<?xml version="1.0" encoding="UTF-8" standalone="no" ?>
<gpx xmlns="http://www.topografix.com/GPX/1/1" xmlns:xsi="http://www.w3.org/2001/XMLSchema-instance" xsi:schemaLocation="http://www.topografix.com/GPX/1/1 http://www.topografix.com/GPX/1/1/gpx.xsd" version="1.1" creator="VisuGPX - https://www.visugpx.com">
  <metadata>
    <name>rando vtt 05 06 17</name>
    <desc><![CDATA[randonnée chemin des caniveaux couvant des bonnes sœurs et tour de garde de flavinereau]]></desc>
  </metadata>
  <trk>
    <name><![CDATA[5 juin 2017 08:31:30]]></name>
    <trkseg>
      <trkpt lat="47.2785" lon="4.99429">
        <ele>281.4</ele>
        <time>2017-06-05T05:31:10.000Z</time>
      </trkpt>
      <trkpt lat="47.27856" lon="4.99418">
        <ele>275</ele>
        <time>2017-06-05T05:34:57.000Z</time>
      </trkpt>
      <trkpt lat="47.27865" lon="4.99412">
        <ele>274.4</ele>
        <time>2017-06-05T05:35:04.000Z</time>
      </trkpt>
      <trkpt lat="47.27872" lon="4.99399">
        <ele>277.1</ele>
        <time>2017-06-05T05:36:37.000Z</time>
      </trkpt>
      <trkpt lat="47.27876" lon="4.99387">
        <ele>277.3</ele>
        <time>2017-06-05T05:36:39.000Z</time>
      </trkpt>
      <trkpt lat="47.27879" lon="4.99374">
        <ele>277.7</ele>
        <time>2017-06-05T05:36:41.000Z</time>
      </trkpt>
      <trkpt lat="47.27883" lon="4.99361">
        <ele>278</ele>
        <time>2017-06-05T05:36:43.000Z</time>
      </trkpt>
      <trkpt lat="47.2789" lon="4.99338">
        <ele>278.7</ele>
        <time>2017-06-05T05:36:47.000Z</time>
      </trkpt>
      <trkpt lat="47.27897" lon="4.99316">
        <ele>279.7</ele>
        <time>2017-06-05T05:36:51.000Z</time>
      </trkpt>
      <trkpt lat="47.27902" lon="4.993">
        <ele>280.7</ele>
        <time>2017-06-05T05:36:54.000Z</time>
      </trkpt>
      <trkpt lat="47.27907" lon="4.99283">
        <ele>281.4</ele>
        <time>2017-06-05T05:36:57.000Z</time>
      </trkpt>
      <trkpt lat="47.27913" lon="4.9926">
        <ele>282.1</ele>
        <time>2017-06-05T05:37:01.000Z</time>
      </trkpt>
      <trkpt lat="47.27921" lon="4.99239">
        <ele>282.8</ele>
        <time>2017-06-05T05:37:05.000Z</time>
      </trkpt>
      <trkpt lat="47.27929" lon="4.99218">
        <ele>283.5</ele>
        <time>2017-06-05T05:37:09.000Z</time>
      </trkpt>
      <trkpt lat="47.27939" lon="4.99185">
        <ele>284.4</ele>
        <time>2017-06-05T05:37:15.000Z</time>
      </trkpt>
      <trkpt lat="47.27945" lon="4.99165">
        <ele>285</ele>
        <time>2017-06-05T05:37:19.000Z</time>
      </trkpt>
      <trkpt lat="47.27952" lon="4.99144">
        <ele>285.7</ele>
        <time>2017-06-05T05:37:23.000Z</time>
      </trkpt>
      <trkpt lat="47.27955" lon="4.99127">
        <ele>286.1</ele>
        <time>2017-06-05T05:37:26.000Z</time>
      </trkpt>
      <trkpt lat="47.27951" lon="4.99104">
        <ele>286.6</ele>
        <time>2017-06-05T05:37:30.000Z</time>
      </trkpt>
      <trkpt lat="47.27945" lon="4.99085">
        <ele>287.1</ele>
        <time>2017-06-05T05:37:33.000Z</time>
      </trkpt>
      <trkpt lat="47.27935" lon="4.99057">
        <ele>288.1</ele>
        <time>2017-06-05T05:37:38.000Z</time>
      </trkpt>
      <trkpt lat="47.27929" lon="4.99032">
        <ele>288.7</ele>
        <time>2017-06-05T05:37:42.000Z</time>
      </trkpt>
      <trkpt lat="47.27926" lon="4.99014">
        <ele>289.4</ele>
        <time>2017-06-05T05:37:45.000Z</time>
      </trkpt>
      <trkpt lat="47.27921" lon="4.98983">
        <ele>289.8</ele>
        <time>2017-06-05T05:37:50.000Z</time>
      </trkpt>
      <trkpt lat="47.27922" lon="4.98964">
        <ele>290.5</ele>
        <time>2017-06-05T05:37:53.000Z</time>
      </trkpt>
      <trkpt lat="47.27925" lon="4.9894">
        <ele>291.5</ele>
        <time>2017-06-05T05:37:57.000Z</time>
      </trkpt>
      <trkpt lat="47.27928" lon="4.98922">
        <ele>292.1</ele>
        <time>2017-06-05T05:38:00.000Z</time>
      </trkpt>
      <trkpt lat="47.27932" lon="4.98905">
        <ele>292.8</ele>
        <time>2017-06-05T05:38:03.000Z</time>
      </trkpt>
      <trkpt lat="47.27942" lon="4.98884">
        <ele>293.7</ele>
        <time>2017-06-05T05:38:07.000Z</time>
      </trkpt>
      <trkpt lat="47.27953" lon="4.98866">
        <ele>294.4</ele>
        <time>2017-06-05T05:38:11.000Z</time>
      </trkpt>
      <trkpt lat="47.27965" lon="4.9885">
        <ele>295.1</ele>
        <time>2017-06-05T05:38:15.000Z</time>
      </trkpt>
      <trkpt lat="47.27977" lon="4.98835">
        <ele>295.9</ele>
        <time>2017-06-05T05:38:19.000Z</time>
      </trkpt>
      <trkpt lat="47.27989" lon="4.9882">
        <ele>296</ele>
        <time>2017-06-05T05:38:23.000Z</time>
      </trkpt>
      <trkpt lat="47.28001" lon="4.98808">
        <ele>296.2</ele>
        <time>2017-06-05T05:38:27.000Z</time>
      </trkpt>
      <trkpt lat="47.28013" lon="4.98794">
        <ele>295.9</ele>
        <time>2017-06-05T05:38:31.000Z</time>
      </trkpt>
      <trkpt lat="47.28022" lon="4.98783">
        <ele>295.9</ele>
        <time>2017-06-05T05:38:34.000Z</time>
      </trkpt>
      <trkpt lat="47.28032" lon="4.9877">
        <ele>295.8</ele>
        <time>2017-06-05T05:38:37.000Z</time>
      </trkpt>
      <trkpt lat="47.28043" lon="4.98753">
        <ele>296</ele>
        <time>2017-06-05T05:38:41.000Z</time>
      </trkpt>
      <trkpt lat="47.28055" lon="4.98736">
        <ele>296.1</ele>
        <time>2017-06-05T05:38:45.000Z</time>
      </trkpt>
      <trkpt lat="47.28066" lon="4.98717">
        <ele>296.3</ele>
        <time>2017-06-05T05:38:49.000Z</time>
      </trkpt>
      <trkpt lat="47.28074" lon="4.98704">
        <ele>296.6</ele>
        <time>2017-06-05T05:38:52.000Z</time>
      </trkpt>
      <trkpt lat="47.28082" lon="4.98689">
        <ele>296.9</ele>
        <time>2017-06-05T05:38:55.000Z</time>
      </trkpt>
      <trkpt lat="47.28091" lon="4.9867">
        <ele>297.2</ele>
        <time>2017-06-05T05:38:59.000Z</time>
      </trkpt>
      <trkpt lat="47.28102" lon="4.98651">
        <ele>297.5</ele>
        <time>2017-06-05T05:39:03.000Z</time>
      </trkpt>
      <trkpt lat="47.28113" lon="4.98632">
        <ele>297.7</ele>
        <time>2017-06-05T05:39:07.000Z</time>
      </trkpt>
      <trkpt lat="47.28132" lon="4.98609">
        <ele>298.4</ele>
        <time>2017-06-05T05:39:13.000Z</time>
      </trkpt>
      <trkpt lat="47.28148" lon="4.98611">
        <ele>298.2</ele>
        <time>2017-06-05T05:39:17.000Z</time>
      </trkpt>
      <trkpt lat="47.28161" lon="4.9862">
        <ele>298.1</ele>
        <time>2017-06-05T05:39:21.000Z</time>
      </trkpt>
      <trkpt lat="47.28174" lon="4.98626">
        <ele>298.3</ele>
        <time>2017-06-05T05:39:25.000Z</time>
      </trkpt>
      <trkpt lat="47.28187" lon="4.98619">
        <ele>298.8</ele>
        <time>2017-06-05T05:39:29.000Z</time>
      </trkpt>
      <trkpt lat="47.28195" lon="4.98604">
        <ele>299</ele>
        <time>2017-06-05T05:39:33.000Z</time>
      </trkpt>
      <trkpt lat="47.28208" lon="4.98587">
        <ele>299.4</ele>
        <time>2017-06-05T05:39:38.000Z</time>
      </trkpt>
      <trkpt lat="47.28217" lon="4.98572">
        <ele>299.6</ele>
        <time>2017-06-05T05:39:42.000Z</time>
      </trkpt>
      <trkpt lat="47.28225" lon="4.98562">
        <ele>299.8</ele>
        <time>2017-06-05T05:39:45.000Z</time>
      </trkpt>
      <trkpt lat="47.28235" lon="4.9855">
        <ele>300.1</ele>
        <time>2017-06-05T05:39:49.000Z</time>
      </trkpt>
      <trkpt lat="47.28244" lon="4.98534">
        <ele>300.7</ele>
        <time>2017-06-05T05:39:54.000Z</time>
      </trkpt>
      <trkpt lat="47.28254" lon="4.98519">
        <ele>301.3</ele>
        <time>2017-06-05T05:39:59.000Z</time>
      </trkpt>
      <trkpt lat="47.28261" lon="4.98506">
        <ele>301.7</ele>
        <time>2017-06-05T05:40:03.000Z</time>
      </trkpt>
      <trkpt lat="47.28269" lon="4.98493">
        <ele>301.3</ele>
        <time>2017-06-05T05:40:07.000Z</time>
      </trkpt>
      <trkpt lat="47.28275" lon="4.98479">
        <ele>301.9</ele>
        <time>2017-06-05T05:40:11.000Z</time>
      </trkpt>
      <trkpt lat="47.28279" lon="4.98461">
        <ele>301.7</ele>
        <time>2017-06-05T05:40:15.000Z</time>
      </trkpt>
      <trkpt lat="47.28283" lon="4.98444">
        <ele>301.3</ele>
        <time>2017-06-05T05:40:18.000Z</time>
      </trkpt>
      <trkpt lat="47.28287" lon="4.98426">
        <ele>300.9</ele>
        <time>2017-06-05T05:40:21.000Z</time>
      </trkpt>
      <trkpt lat="47.28293" lon="4.98415">
        <ele>300.5</ele>
        <time>2017-06-05T05:40:23.000Z</time>
      </trkpt>
      <trkpt lat="47.28305" lon="4.98403">
        <ele>300.1</ele>
        <time>2017-06-05T05:40:27.000Z</time>
      </trkpt>
      <trkpt lat="47.28315" lon="4.98394">
        <ele>300.1</ele>
        <time>2017-06-05T05:40:30.000Z</time>
      </trkpt>
      <trkpt lat="47.28327" lon="4.9838">
        <ele>299.7</ele>
        <time>2017-06-05T05:40:34.000Z</time>
      </trkpt>
      <trkpt lat="47.28341" lon="4.9837">
        <ele>300</ele>
        <time>2017-06-05T05:40:39.000Z</time>
      </trkpt>
      <trkpt lat="47.2835" lon="4.98363">
        <ele>299.6</ele>
        <time>2017-06-05T05:40:42.000Z</time>
      </trkpt>
      <trkpt lat="47.28358" lon="4.98356">
        <ele>299.8</ele>
        <time>2017-06-05T05:40:45.000Z</time>
      </trkpt>
      <trkpt lat="47.28368" lon="4.98347">
        <ele>299.8</ele>
        <time>2017-06-05T05:40:49.000Z</time>
      </trkpt>
      <trkpt lat="47.28378" lon="4.9834">
        <ele>299.5</ele>
        <time>2017-06-05T05:40:53.000Z</time>
      </trkpt>
      <trkpt lat="47.28389" lon="4.98332">
        <ele>298.8</ele>
        <time>2017-06-05T05:40:57.000Z</time>
      </trkpt>
      <trkpt lat="47.284" lon="4.9832">
        <ele>298</ele>
        <time>2017-06-05T05:41:02.000Z</time>
      </trkpt>
      <trkpt lat="47.28407" lon="4.9831">
        <ele>299.6</ele>
        <time>2017-06-05T05:41:06.000Z</time>
      </trkpt>
      <trkpt lat="47.28415" lon="4.98298">
        <ele>300.6</ele>
        <time>2017-06-05T05:41:10.000Z</time>
      </trkpt>
      <trkpt lat="47.28421" lon="4.98285">
        <ele>300.6</ele>
        <time>2017-06-05T05:41:13.000Z</time>
      </trkpt>
      <trkpt lat="47.28429" lon="4.98269">
        <ele>301.5</ele>
        <time>2017-06-05T05:41:17.000Z</time>
      </trkpt>
      <trkpt lat="47.28434" lon="4.98251">
        <ele>301.7</ele>
        <time>2017-06-05T05:41:21.000Z</time>
      </trkpt>
      <trkpt lat="47.28437" lon="4.98234">
        <ele>300.8</ele>
        <time>2017-06-05T05:41:25.000Z</time>
      </trkpt>
      <trkpt lat="47.2843" lon="4.98214">
        <ele>302</ele>
        <time>2017-06-05T05:41:32.000Z</time>
      </trkpt>
      <trkpt lat="47.28423" lon="4.98204">
        <ele>303.9</ele>
        <time>2017-06-05T05:41:38.000Z</time>
      </trkpt>
      <trkpt lat="47.28414" lon="4.98196">
        <ele>307.6</ele>
        <time>2017-06-05T05:41:47.000Z</time>
      </trkpt>
      <trkpt lat="47.28404" lon="4.98187">
        <ele>313.5</ele>
        <time>2017-06-05T05:41:56.000Z</time>
      </trkpt>
      <trkpt lat="47.28397" lon="4.98175">
        <ele>316.8</ele>
        <time>2017-06-05T05:42:03.000Z</time>
      </trkpt>
      <trkpt lat="47.28393" lon="4.98162">
        <ele>319.6</ele>
        <time>2017-06-05T05:42:09.000Z</time>
      </trkpt>
      <trkpt lat="47.28389" lon="4.98149">
        <ele>321.2</ele>
        <time>2017-06-05T05:42:15.000Z</time>
      </trkpt>
      <trkpt lat="47.28388" lon="4.98134">
        <ele>321.5</ele>
        <time>2017-06-05T05:42:21.000Z</time>
      </trkpt>
      <trkpt lat="47.28386" lon="4.98118">
        <ele>322.8</ele>
        <time>2017-06-05T05:42:29.000Z</time>
      </trkpt>
      <trkpt lat="47.28384" lon="4.98105">
        <ele>324</ele>
        <time>2017-06-05T05:42:36.000Z</time>
      </trkpt>
      <trkpt lat="47.28386" lon="4.98091">
        <ele>324.6</ele>
        <time>2017-06-05T05:42:43.000Z</time>
      </trkpt>
      <trkpt lat="47.28387" lon="4.98076">
        <ele>324.7</ele>
        <time>2017-06-05T05:42:51.000Z</time>
      </trkpt>
      <trkpt lat="47.28388" lon="4.9806">
        <ele>324.7</ele>
        <time>2017-06-05T05:42:59.000Z</time>
      </trkpt>
      <trkpt lat="47.28382" lon="4.98048">
        <ele>325.7</ele>
        <time>2017-06-05T05:43:07.000Z</time>
      </trkpt>
      <trkpt lat="47.28372" lon="4.98045">
        <ele>326.5</ele>
        <time>2017-06-05T05:43:13.000Z</time>
      </trkpt>
      <trkpt lat="47.28354" lon="4.98042">
        <ele>326.4</ele>
        <time>2017-06-05T05:43:17.000Z</time>
      </trkpt>
      <trkpt lat="47.28342" lon="4.9803">
        <ele>326.9</ele>
        <time>2017-06-05T05:43:20.000Z</time>
      </trkpt>
      <trkpt lat="47.2833" lon="4.98018">
        <ele>326.7</ele>
        <time>2017-06-05T05:43:24.000Z</time>
      </trkpt>
      <trkpt lat="47.2832" lon="4.98004">
        <ele>327.3</ele>
        <time>2017-06-05T05:43:28.000Z</time>
      </trkpt>
      <trkpt lat="47.28315" lon="4.97992">
        <ele>327.2</ele>
        <time>2017-06-05T05:43:33.000Z</time>
      </trkpt>
      <trkpt lat="47.28307" lon="4.97962">
        <ele>327.3</ele>
        <time>2017-06-05T05:43:41.000Z</time>
      </trkpt>
      <trkpt lat="47.28298" lon="4.97951">
        <ele>326.8</ele>
        <time>2017-06-05T05:43:43.000Z</time>
      </trkpt>
      <trkpt lat="47.28288" lon="4.97939">
        <ele>325.7</ele>
        <time>2017-06-05T05:43:45.000Z</time>
      </trkpt>
      <trkpt lat="47.28276" lon="4.97928">
        <ele>325.2</ele>
        <time>2017-06-05T05:43:47.000Z</time>
      </trkpt>
      <trkpt lat="47.28262" lon="4.97917">
        <ele>324.6</ele>
        <time>2017-06-05T05:43:49.000Z</time>
      </trkpt>
      <trkpt lat="47.28248" lon="4.97905">
        <ele>324.1</ele>
        <time>2017-06-05T05:43:51.000Z</time>
      </trkpt>
      <trkpt lat="47.28239" lon="4.97899">
        <ele>323.8</ele>
        <time>2017-06-05T05:43:52.000Z</time>
      </trkpt>
      <trkpt lat="47.28222" lon="4.97889">
        <ele>323.3</ele>
        <time>2017-06-05T05:43:54.000Z</time>
      </trkpt>
      <trkpt lat="47.28212" lon="4.97885">
        <ele>323</ele>
        <time>2017-06-05T05:43:55.000Z</time>
      </trkpt>
      <trkpt lat="47.28192" lon="4.97881">
        <ele>322.5</ele>
        <time>2017-06-05T05:43:57.000Z</time>
      </trkpt>
      <trkpt lat="47.28173" lon="4.97883">
        <ele>322.1</ele>
        <time>2017-06-05T05:43:59.000Z</time>
      </trkpt>
      <trkpt lat="47.28152" lon="4.97876">
        <ele>318.7</ele>
        <time>2017-06-05T05:44:02.000Z</time>
      </trkpt>
      <trkpt lat="47.28142" lon="4.9786">
        <ele>317.5</ele>
        <time>2017-06-05T05:44:04.000Z</time>
      </trkpt>
      <trkpt lat="47.28135" lon="4.97843">
        <ele>316.7</ele>
        <time>2017-06-05T05:44:06.000Z</time>
      </trkpt>
      <trkpt lat="47.28124" lon="4.97824">
        <ele>315.2</ele>
        <time>2017-06-05T05:44:09.000Z</time>
      </trkpt>
      <trkpt lat="47.28113" lon="4.97808">
        <ele>313.8</ele>
        <time>2017-06-05T05:44:13.000Z</time>
      </trkpt>
      <trkpt lat="47.28104" lon="4.97796">
        <ele>312.9</ele>
        <time>2017-06-05T05:44:17.000Z</time>
      </trkpt>
      <trkpt lat="47.28096" lon="4.97787">
        <ele>312.8</ele>
        <time>2017-06-05T05:44:21.000Z</time>
      </trkpt>
      <trkpt lat="47.28089" lon="4.97778">
        <ele>312.8</ele>
        <time>2017-06-05T05:44:25.000Z</time>
      </trkpt>
      <trkpt lat="47.28081" lon="4.97767">
        <ele>312.8</ele>
        <time>2017-06-05T05:44:29.000Z</time>
      </trkpt>
      <trkpt lat="47.2807" lon="4.97749">
        <ele>312.7</ele>
        <time>2017-06-05T05:44:35.000Z</time>
      </trkpt>
      <trkpt lat="47.28061" lon="4.97738">
        <ele>313.3</ele>
        <time>2017-06-05T05:44:40.000Z</time>
      </trkpt>
      <trkpt lat="47.28052" lon="4.97727">
        <ele>314.4</ele>
        <time>2017-06-05T05:44:45.000Z</time>
      </trkpt>
      <trkpt lat="47.28042" lon="4.97716">
        <ele>315.6</ele>
        <time>2017-06-05T05:44:51.000Z</time>
      </trkpt>
      <trkpt lat="47.28034" lon="4.97705">
        <ele>316.1</ele>
        <time>2017-06-05T05:44:57.000Z</time>
      </trkpt>
      <trkpt lat="47.28026" lon="4.97693">
        <ele>316.3</ele>
        <time>2017-06-05T05:45:03.000Z</time>
      </trkpt>
      <trkpt lat="47.28018" lon="4.9768">
        <ele>317.1</ele>
        <time>2017-06-05T05:45:09.000Z</time>
      </trkpt>
      <trkpt lat="47.28013" lon="4.97667">
        <ele>318.9</ele>
        <time>2017-06-05T05:45:17.000Z</time>
      </trkpt>
      <trkpt lat="47.28014" lon="4.97653">
        <ele>322.1</ele>
        <time>2017-06-05T05:45:25.000Z</time>
      </trkpt>
      <trkpt lat="47.28023" lon="4.97644">
        <ele>330.1</ele>
        <time>2017-06-05T05:45:39.000Z</time>
      </trkpt>
      <trkpt lat="47.28025" lon="4.97628">
        <ele>335.3</ele>
        <time>2017-06-05T05:45:49.000Z</time>
      </trkpt>
      <trkpt lat="47.2803" lon="4.97615">
        <ele>338.3</ele>
        <time>2017-06-05T05:45:55.000Z</time>
      </trkpt>
      <trkpt lat="47.28033" lon="4.97601">
        <ele>342.4</ele>
        <time>2017-06-05T05:46:03.000Z</time>
      </trkpt>
      <trkpt lat="47.28035" lon="4.97585">
        <ele>346.1</ele>
        <time>2017-06-05T05:46:11.000Z</time>
      </trkpt>
      <trkpt lat="47.28037" lon="4.97568">
        <ele>349.6</ele>
        <time>2017-06-05T05:46:20.000Z</time>
      </trkpt>
      <trkpt lat="47.28037" lon="4.97549">
        <ele>353</ele>
        <time>2017-06-05T05:46:30.000Z</time>
      </trkpt>
      <trkpt lat="47.28037" lon="4.97534">
        <ele>355.3</ele>
        <time>2017-06-05T05:46:37.000Z</time>
      </trkpt>
      <trkpt lat="47.28042" lon="4.97521">
        <ele>358.5</ele>
        <time>2017-06-05T05:46:45.000Z</time>
      </trkpt>
      <trkpt lat="47.28047" lon="4.97508">
        <ele>361.8</ele>
        <time>2017-06-05T05:46:53.000Z</time>
      </trkpt>
      <trkpt lat="47.28053" lon="4.97488">
        <ele>363.7</ele>
        <time>2017-06-05T05:46:59.000Z</time>
      </trkpt>
      <trkpt lat="47.28055" lon="4.97473">
        <ele>366</ele>
        <time>2017-06-05T05:47:05.000Z</time>
      </trkpt>
      <trkpt lat="47.2805" lon="4.97453">
        <ele>366</ele>
        <time>2017-06-05T05:47:14.000Z</time>
      </trkpt>
      <trkpt lat="47.2805" lon="4.97436">
        <ele>362.3</ele>
        <time>2017-06-05T05:47:25.000Z</time>
      </trkpt>
      <trkpt lat="47.28043" lon="4.9742">
        <ele>351.3</ele>
        <time>2017-06-05T05:47:53.000Z</time>
      </trkpt>
      <trkpt lat="47.28054" lon="4.97423">
        <ele>350.1</ele>
        <time>2017-06-05T05:48:13.000Z</time>
      </trkpt>
      <trkpt lat="47.28054" lon="4.9741">
        <ele>345.8</ele>
        <time>2017-06-05T05:49:11.000Z</time>
      </trkpt>
      <trkpt lat="47.28043" lon="4.97404">
        <ele>344.2</ele>
        <time>2017-06-05T05:49:35.000Z</time>
      </trkpt>
      <trkpt lat="47.28048" lon="4.97415">
        <ele>343.1</ele>
        <time>2017-06-05T05:50:12.000Z</time>
      </trkpt>
      <trkpt lat="47.28058" lon="4.97411">
        <ele>341.6</ele>
        <time>2017-06-05T05:51:28.000Z</time>
      </trkpt>
      <trkpt lat="47.28046" lon="4.97416">
        <ele>339.5</ele>
        <time>2017-06-05T05:51:55.000Z</time>
      </trkpt>
      <trkpt lat="47.28056" lon="4.97412">
        <ele>339.3</ele>
        <time>2017-06-05T05:52:16.000Z</time>
      </trkpt>
      <trkpt lat="47.2806" lon="4.974">
        <ele>340.8</ele>
        <time>2017-06-05T05:52:23.000Z</time>
      </trkpt>
      <trkpt lat="47.28063" lon="4.97384">
        <ele>342.4</ele>
        <time>2017-06-05T05:52:29.000Z</time>
      </trkpt>
      <trkpt lat="47.28064" lon="4.9737">
        <ele>343.8</ele>
        <time>2017-06-05T05:52:36.000Z</time>
      </trkpt>
      <trkpt lat="47.28067" lon="4.97354">
        <ele>345.3</ele>
        <time>2017-06-05T05:52:43.000Z</time>
      </trkpt>
      <trkpt lat="47.28069" lon="4.97336">
        <ele>346.1</ele>
        <time>2017-06-05T05:52:49.000Z</time>
      </trkpt>
      <trkpt lat="47.28071" lon="4.97317">
        <ele>348</ele>
        <time>2017-06-05T05:52:56.000Z</time>
      </trkpt>
      <trkpt lat="47.28072" lon="4.97301">
        <ele>349.6</ele>
        <time>2017-06-05T05:53:04.000Z</time>
      </trkpt>
      <trkpt lat="47.28077" lon="4.97285">
        <ele>351.2</ele>
        <time>2017-06-05T05:53:11.000Z</time>
      </trkpt>
      <trkpt lat="47.28079" lon="4.9727">
        <ele>352.7</ele>
        <time>2017-06-05T05:53:17.000Z</time>
      </trkpt>
      <trkpt lat="47.28082" lon="4.97255">
        <ele>353.7</ele>
        <time>2017-06-05T05:53:22.000Z</time>
      </trkpt>
      <trkpt lat="47.28085" lon="4.97241">
        <ele>355.3</ele>
        <time>2017-06-05T05:53:27.000Z</time>
      </trkpt>
      <trkpt lat="47.28085" lon="4.97222">
        <ele>356.8</ele>
        <time>2017-06-05T05:53:32.000Z</time>
      </trkpt>
      <trkpt lat="47.28087" lon="4.97206">
        <ele>358.9</ele>
        <time>2017-06-05T05:53:39.000Z</time>
      </trkpt>
      <trkpt lat="47.28088" lon="4.97189">
        <ele>362.5</ele>
        <time>2017-06-05T05:53:47.000Z</time>
      </trkpt>
      <trkpt lat="47.28091" lon="4.97174">
        <ele>366.2</ele>
        <time>2017-06-05T05:53:55.000Z</time>
      </trkpt>
      <trkpt lat="47.28094" lon="4.9716">
        <ele>369.3</ele>
        <time>2017-06-05T05:54:03.000Z</time>
      </trkpt>
      <trkpt lat="47.28098" lon="4.97144">
        <ele>371.9</ele>
        <time>2017-06-05T05:54:10.000Z</time>
      </trkpt>
      <trkpt lat="47.28099" lon="4.97131">
        <ele>374.7</ele>
        <time>2017-06-05T05:54:17.000Z</time>
      </trkpt>
      <trkpt lat="47.28103" lon="4.97115">
        <ele>377.5</ele>
        <time>2017-06-05T05:54:25.000Z</time>
      </trkpt>
      <trkpt lat="47.28102" lon="4.971">
        <ele>379.4</ele>
        <time>2017-06-05T05:54:30.000Z</time>
      </trkpt>
      <trkpt lat="47.28102" lon="4.97084">
        <ele>380.5</ele>
        <time>2017-06-05T05:54:34.000Z</time>
      </trkpt>
      <trkpt lat="47.281" lon="4.9707">
        <ele>381.6</ele>
        <time>2017-06-05T05:54:39.000Z</time>
      </trkpt>
      <trkpt lat="47.28104" lon="4.97055">
        <ele>384.7</ele>
        <time>2017-06-05T05:54:48.000Z</time>
      </trkpt>
      <trkpt lat="47.28106" lon="4.97041">
        <ele>386.7</ele>
        <time>2017-06-05T05:54:56.000Z</time>
      </trkpt>
      <trkpt lat="47.28112" lon="4.97027">
        <ele>388.9</ele>
        <time>2017-06-05T05:55:03.000Z</time>
      </trkpt>
      <trkpt lat="47.28118" lon="4.97015">
        <ele>390.1</ele>
        <time>2017-06-05T05:55:08.000Z</time>
      </trkpt>
      <trkpt lat="47.28122" lon="4.96997">
        <ele>392.2</ele>
        <time>2017-06-05T05:55:17.000Z</time>
      </trkpt>
      <trkpt lat="47.28126" lon="4.96983">
        <ele>393.9</ele>
        <time>2017-06-05T05:55:25.000Z</time>
      </trkpt>
      <trkpt lat="47.28129" lon="4.96968">
        <ele>395.5</ele>
        <time>2017-06-05T05:55:33.000Z</time>
      </trkpt>
      <trkpt lat="47.28131" lon="4.96952">
        <ele>397.4</ele>
        <time>2017-06-05T05:55:41.000Z</time>
      </trkpt>
      <trkpt lat="47.28135" lon="4.96932">
        <ele>397.7</ele>
        <time>2017-06-05T05:55:45.000Z</time>
      </trkpt>
      <trkpt lat="47.28139" lon="4.96918">
        <ele>399.8</ele>
        <time>2017-06-05T05:55:53.000Z</time>
      </trkpt>
      <trkpt lat="47.28142" lon="4.96901">
        <ele>401.5</ele>
        <time>2017-06-05T05:56:01.000Z</time>
      </trkpt>
      <trkpt lat="47.28145" lon="4.96888">
        <ele>402.6</ele>
        <time>2017-06-05T05:56:07.000Z</time>
      </trkpt>
      <trkpt lat="47.28148" lon="4.96875">
        <ele>404.5</ele>
        <time>2017-06-05T05:56:15.000Z</time>
      </trkpt>
      <trkpt lat="47.28148" lon="4.96858">
        <ele>406</ele>
        <time>2017-06-05T05:56:21.000Z</time>
      </trkpt>
      <trkpt lat="47.28149" lon="4.96843">
        <ele>406.1</ele>
        <time>2017-06-05T05:56:25.000Z</time>
      </trkpt>
      <trkpt lat="47.28152" lon="4.96828">
        <ele>406.9</ele>
        <time>2017-06-05T05:56:31.000Z</time>
      </trkpt>
      <trkpt lat="47.28157" lon="4.96802">
        <ele>407.8</ele>
        <time>2017-06-05T05:56:40.000Z</time>
      </trkpt>
      <trkpt lat="47.28162" lon="4.96785">
        <ele>407.5</ele>
        <time>2017-06-05T05:56:46.000Z</time>
      </trkpt>
      <trkpt lat="47.28166" lon="4.96771">
        <ele>406.7</ele>
        <time>2017-06-05T05:56:53.000Z</time>
      </trkpt>
      <trkpt lat="47.28173" lon="4.96757">
        <ele>407</ele>
        <time>2017-06-05T05:56:59.000Z</time>
      </trkpt>
      <trkpt lat="47.28173" lon="4.9674">
        <ele>407.1</ele>
        <time>2017-06-05T05:57:07.000Z</time>
      </trkpt>
      <trkpt lat="47.28161" lon="4.96728">
        <ele>408.7</ele>
        <time>2017-06-05T05:57:23.000Z</time>
      </trkpt>
      <trkpt lat="47.28161" lon="4.96711">
        <ele>401.9</ele>
        <time>2017-06-05T05:57:25.000Z</time>
      </trkpt>
      <trkpt lat="47.28154" lon="4.96721">
        <ele>399.1</ele>
        <time>2017-06-05T05:57:48.000Z</time>
      </trkpt>
      <trkpt lat="47.28151" lon="4.96734">
        <ele>400.4</ele>
        <time>2017-06-05T05:57:53.000Z</time>
      </trkpt>
      <trkpt lat="47.28145" lon="4.96746">
        <ele>401.2</ele>
        <time>2017-06-05T05:57:59.000Z</time>
      </trkpt>
      <trkpt lat="47.28142" lon="4.96759">
        <ele>402.3</ele>
        <time>2017-06-05T05:58:05.000Z</time>
      </trkpt>
      <trkpt lat="47.28135" lon="4.96776">
        <ele>402.1</ele>
        <time>2017-06-05T05:58:12.000Z</time>
      </trkpt>
      <trkpt lat="47.2813" lon="4.96793">
        <ele>401.6</ele>
        <time>2017-06-05T05:58:18.000Z</time>
      </trkpt>
      <trkpt lat="47.28125" lon="4.96805">
        <ele>402.6</ele>
        <time>2017-06-05T05:58:25.000Z</time>
      </trkpt>
      <trkpt lat="47.28124" lon="4.96821">
        <ele>406.1</ele>
        <time>2017-06-05T05:58:33.000Z</time>
      </trkpt>
      <trkpt lat="47.28121" lon="4.96835">
        <ele>407.9</ele>
        <time>2017-06-05T05:58:37.000Z</time>
      </trkpt>
      <trkpt lat="47.28116" lon="4.96846">
        <ele>410.3</ele>
        <time>2017-06-05T05:58:43.000Z</time>
      </trkpt>
      <trkpt lat="47.2811" lon="4.9686">
        <ele>413.9</ele>
        <time>2017-06-05T05:58:51.000Z</time>
      </trkpt>
      <trkpt lat="47.28105" lon="4.96875">
        <ele>417.3</ele>
        <time>2017-06-05T05:58:57.000Z</time>
      </trkpt>
      <trkpt lat="47.281" lon="4.96887">
        <ele>419.8</ele>
        <time>2017-06-05T05:59:03.000Z</time>
      </trkpt>
      <trkpt lat="47.28095" lon="4.96902">
        <ele>422.7</ele>
        <time>2017-06-05T05:59:09.000Z</time>
      </trkpt>
      <trkpt lat="47.28089" lon="4.96915">
        <ele>423.6</ele>
        <time>2017-06-05T05:59:15.000Z</time>
      </trkpt>
      <trkpt lat="47.28077" lon="4.9693">
        <ele>422.7</ele>
        <time>2017-06-05T05:59:24.000Z</time>
      </trkpt>
      <trkpt lat="47.28066" lon="4.96938">
        <ele>419.7</ele>
        <time>2017-06-05T05:59:31.000Z</time>
      </trkpt>
      <trkpt lat="47.28057" lon="4.96943">
        <ele>419.6</ele>
        <time>2017-06-05T05:59:35.000Z</time>
      </trkpt>
      <trkpt lat="47.2804" lon="4.96945">
        <ele>418.4</ele>
        <time>2017-06-05T05:59:39.000Z</time>
      </trkpt>
      <trkpt lat="47.28032" lon="4.9695">
        <ele>418.7</ele>
        <time>2017-06-05T05:59:49.000Z</time>
      </trkpt>
      <trkpt lat="47.28023" lon="4.96954">
        <ele>421.9</ele>
        <time>2017-06-05T06:00:00.000Z</time>
      </trkpt>
      <trkpt lat="47.28017" lon="4.96963">
        <ele>424.5</ele>
        <time>2017-06-05T06:00:10.000Z</time>
      </trkpt>
      <trkpt lat="47.28015" lon="4.96979">
        <ele>429.4</ele>
        <time>2017-06-05T06:00:22.000Z</time>
      </trkpt>
      <trkpt lat="47.28011" lon="4.96994">
        <ele>431.6</ele>
        <time>2017-06-05T06:00:30.000Z</time>
      </trkpt>
      <trkpt lat="47.28008" lon="4.97007">
        <ele>432.8</ele>
        <time>2017-06-05T06:00:37.000Z</time>
      </trkpt>
      <trkpt lat="47.28005" lon="4.97023">
        <ele>434.8</ele>
        <time>2017-06-05T06:00:43.000Z</time>
      </trkpt>
      <trkpt lat="47.28001" lon="4.97037">
        <ele>435.8</ele>
        <time>2017-06-05T06:00:49.000Z</time>
      </trkpt>
      <trkpt lat="47.27997" lon="4.97052">
        <ele>437.5</ele>
        <time>2017-06-05T06:00:57.000Z</time>
      </trkpt>
      <trkpt lat="47.27995" lon="4.97065">
        <ele>438</ele>
        <time>2017-06-05T06:01:01.000Z</time>
      </trkpt>
      <trkpt lat="47.2799" lon="4.97078">
        <ele>439.2</ele>
        <time>2017-06-05T06:01:07.000Z</time>
      </trkpt>
      <trkpt lat="47.27988" lon="4.97099">
        <ele>441.4</ele>
        <time>2017-06-05T06:01:14.000Z</time>
      </trkpt>
      <trkpt lat="47.27984" lon="4.97114">
        <ele>443.5</ele>
        <time>2017-06-05T06:01:19.000Z</time>
      </trkpt>
      <trkpt lat="47.27981" lon="4.97131">
        <ele>445.2</ele>
        <time>2017-06-05T06:01:26.000Z</time>
      </trkpt>
      <trkpt lat="47.27977" lon="4.97145">
        <ele>447.6</ele>
        <time>2017-06-05T06:01:33.000Z</time>
      </trkpt>
      <trkpt lat="47.27971" lon="4.9716">
        <ele>448.9</ele>
        <time>2017-06-05T06:01:39.000Z</time>
      </trkpt>
      <trkpt lat="47.27965" lon="4.97172">
        <ele>449.3</ele>
        <time>2017-06-05T06:01:44.000Z</time>
      </trkpt>
      <trkpt lat="47.27959" lon="4.97183">
        <ele>449.5</ele>
        <time>2017-06-05T06:01:48.000Z</time>
      </trkpt>
      <trkpt lat="47.27954" lon="4.97197">
        <ele>450.1</ele>
        <time>2017-06-05T06:01:53.000Z</time>
      </trkpt>
      <trkpt lat="47.27947" lon="4.97208">
        <ele>450</ele>
        <time>2017-06-05T06:01:59.000Z</time>
      </trkpt>
      <trkpt lat="47.27937" lon="4.97217">
        <ele>450.7</ele>
        <time>2017-06-05T06:02:05.000Z</time>
      </trkpt>
      <trkpt lat="47.27929" lon="4.97226">
        <ele>450.5</ele>
        <time>2017-06-05T06:02:11.000Z</time>
      </trkpt>
      <trkpt lat="47.27916" lon="4.97235">
        <ele>450.1</ele>
        <time>2017-06-05T06:02:18.000Z</time>
      </trkpt>
      <trkpt lat="47.27906" lon="4.97239">
        <ele>452.4</ele>
        <time>2017-06-05T06:02:24.000Z</time>
      </trkpt>
      <trkpt lat="47.27897" lon="4.97247">
        <ele>455.2</ele>
        <time>2017-06-05T06:02:31.000Z</time>
      </trkpt>
      <trkpt lat="47.27884" lon="4.97255">
        <ele>456.7</ele>
        <time>2017-06-05T06:02:38.000Z</time>
      </trkpt>
      <trkpt lat="47.27874" lon="4.97263">
        <ele>457.3</ele>
        <time>2017-06-05T06:02:43.000Z</time>
      </trkpt>
      <trkpt lat="47.27863" lon="4.97269">
        <ele>457.4</ele>
        <time>2017-06-05T06:02:49.000Z</time>
      </trkpt>
      <trkpt lat="47.27854" lon="4.97277">
        <ele>457.5</ele>
        <time>2017-06-05T06:02:53.000Z</time>
      </trkpt>
      <trkpt lat="47.27843" lon="4.97282">
        <ele>455.2</ele>
        <time>2017-06-05T06:02:58.000Z</time>
      </trkpt>
      <trkpt lat="47.27832" lon="4.97282">
        <ele>454.8</ele>
        <time>2017-06-05T06:03:03.000Z</time>
      </trkpt>
      <trkpt lat="47.27817" lon="4.97284">
        <ele>451.9</ele>
        <time>2017-06-05T06:03:09.000Z</time>
      </trkpt>
      <trkpt lat="47.27807" lon="4.97283">
        <ele>450.2</ele>
        <time>2017-06-05T06:03:13.000Z</time>
      </trkpt>
      <trkpt lat="47.27793" lon="4.97283">
        <ele>447.1</ele>
        <time>2017-06-05T06:03:18.000Z</time>
      </trkpt>
      <trkpt lat="47.2778" lon="4.97285">
        <ele>444.8</ele>
        <time>2017-06-05T06:03:22.000Z</time>
      </trkpt>
      <trkpt lat="47.27768" lon="4.97283">
        <ele>442.6</ele>
        <time>2017-06-05T06:03:28.000Z</time>
      </trkpt>
      <trkpt lat="47.2776" lon="4.97281">
        <ele>442.2</ele>
        <time>2017-06-05T06:03:33.000Z</time>
      </trkpt>
      <trkpt lat="47.2775" lon="4.97274">
        <ele>442</ele>
        <time>2017-06-05T06:03:41.000Z</time>
      </trkpt>
      <trkpt lat="47.27744" lon="4.97261">
        <ele>438.9</ele>
        <time>2017-06-05T06:03:45.000Z</time>
      </trkpt>
      <trkpt lat="47.27737" lon="4.97252">
        <ele>439.4</ele>
        <time>2017-06-05T06:03:51.000Z</time>
      </trkpt>
      <trkpt lat="47.27728" lon="4.97235">
        <ele>439.9</ele>
        <time>2017-06-05T06:04:00.000Z</time>
      </trkpt>
      <trkpt lat="47.27726" lon="4.97218">
        <ele>441.9</ele>
        <time>2017-06-05T06:04:10.000Z</time>
      </trkpt>
      <trkpt lat="47.27728" lon="4.97204">
        <ele>441.6</ele>
        <time>2017-06-05T06:04:15.000Z</time>
      </trkpt>
      <trkpt lat="47.27731" lon="4.97191">
        <ele>440.7</ele>
        <time>2017-06-05T06:04:19.000Z</time>
      </trkpt>
      <trkpt lat="47.27734" lon="4.97172">
        <ele>440.1</ele>
        <time>2017-06-05T06:04:25.000Z</time>
      </trkpt>
      <trkpt lat="47.27741" lon="4.97162">
        <ele>440</ele>
        <time>2017-06-05T06:04:32.000Z</time>
      </trkpt>
      <trkpt lat="47.27747" lon="4.97152">
        <ele>440.6</ele>
        <time>2017-06-05T06:04:39.000Z</time>
      </trkpt>
      <trkpt lat="47.27757" lon="4.97139">
        <ele>442.1</ele>
        <time>2017-06-05T06:04:48.000Z</time>
      </trkpt>
      <trkpt lat="47.27765" lon="4.97123">
        <ele>442.5</ele>
        <time>2017-06-05T06:04:56.000Z</time>
      </trkpt>
      <trkpt lat="47.27773" lon="4.97116">
        <ele>443.8</ele>
        <time>2017-06-05T06:05:01.000Z</time>
      </trkpt>
      <trkpt lat="47.27781" lon="4.97105">
        <ele>445.3</ele>
        <time>2017-06-05T06:05:07.000Z</time>
      </trkpt>
      <trkpt lat="47.27788" lon="4.97096">
        <ele>446.2</ele>
        <time>2017-06-05T06:05:11.000Z</time>
      </trkpt>
      <trkpt lat="47.27791" lon="4.97081">
        <ele>446.4</ele>
        <time>2017-06-05T06:05:15.000Z</time>
      </trkpt>
      <trkpt lat="47.27797" lon="4.97066">
        <ele>447.3</ele>
        <time>2017-06-05T06:05:21.000Z</time>
      </trkpt>
      <trkpt lat="47.27803" lon="4.97048">
        <ele>447.3</ele>
        <time>2017-06-05T06:05:27.000Z</time>
      </trkpt>
      <trkpt lat="47.27807" lon="4.97031">
        <ele>447.5</ele>
        <time>2017-06-05T06:05:33.000Z</time>
      </trkpt>
      <trkpt lat="47.27809" lon="4.97018">
        <ele>447.4</ele>
        <time>2017-06-05T06:05:37.000Z</time>
      </trkpt>
      <trkpt lat="47.27813" lon="4.97001">
        <ele>447</ele>
        <time>2017-06-05T06:05:43.000Z</time>
      </trkpt>
      <trkpt lat="47.27817" lon="4.96986">
        <ele>447.1</ele>
        <time>2017-06-05T06:05:49.000Z</time>
      </trkpt>
      <trkpt lat="47.2782" lon="4.96972">
        <ele>446.9</ele>
        <time>2017-06-05T06:05:54.000Z</time>
      </trkpt>
      <trkpt lat="47.27824" lon="4.96956">
        <ele>448</ele>
        <time>2017-06-05T06:06:00.000Z</time>
      </trkpt>
      <trkpt lat="47.27829" lon="4.96938">
        <ele>449.7</ele>
        <time>2017-06-05T06:06:07.000Z</time>
      </trkpt>
      <trkpt lat="47.27832" lon="4.96921">
        <ele>449.6</ele>
        <time>2017-06-05T06:06:12.000Z</time>
      </trkpt>
      <trkpt lat="47.27834" lon="4.96908">
        <ele>450.2</ele>
        <time>2017-06-05T06:06:17.000Z</time>
      </trkpt>
      <trkpt lat="47.27838" lon="4.96893">
        <ele>450</ele>
        <time>2017-06-05T06:06:23.000Z</time>
      </trkpt>
      <trkpt lat="47.27842" lon="4.96876">
        <ele>449.8</ele>
        <time>2017-06-05T06:06:29.000Z</time>
      </trkpt>
      <trkpt lat="47.27844" lon="4.96863">
        <ele>452.6</ele>
        <time>2017-06-05T06:06:38.000Z</time>
      </trkpt>
      <trkpt lat="47.27837" lon="4.96849">
        <ele>457.4</ele>
        <time>2017-06-05T06:06:49.000Z</time>
      </trkpt>
      <trkpt lat="47.27833" lon="4.96837">
        <ele>457.9</ele>
        <time>2017-06-05T06:06:55.000Z</time>
      </trkpt>
      <trkpt lat="47.27828" lon="4.96822">
        <ele>458.1</ele>
        <time>2017-06-05T06:07:01.000Z</time>
      </trkpt>
      <trkpt lat="47.27822" lon="4.96812">
        <ele>458.8</ele>
        <time>2017-06-05T06:07:08.000Z</time>
      </trkpt>
      <trkpt lat="47.27812" lon="4.96807">
        <ele>460.2</ele>
        <time>2017-06-05T06:07:17.000Z</time>
      </trkpt>
      <trkpt lat="47.27802" lon="4.968">
        <ele>461.2</ele>
        <time>2017-06-05T06:07:25.000Z</time>
      </trkpt>
      <trkpt lat="47.2779" lon="4.96793">
        <ele>461.7</ele>
        <time>2017-06-05T06:07:31.000Z</time>
      </trkpt>
      <trkpt lat="47.27781" lon="4.96786">
        <ele>462.6</ele>
        <time>2017-06-05T06:07:37.000Z</time>
      </trkpt>
      <trkpt lat="47.27772" lon="4.9678">
        <ele>463.8</ele>
        <time>2017-06-05T06:07:43.000Z</time>
      </trkpt>
      <trkpt lat="47.27757" lon="4.9677">
        <ele>464.5</ele>
        <time>2017-06-05T06:07:52.000Z</time>
      </trkpt>
      <trkpt lat="47.27742" lon="4.96761">
        <ele>464.4</ele>
        <time>2017-06-05T06:07:59.000Z</time>
      </trkpt>
      <trkpt lat="47.27729" lon="4.96757">
        <ele>464.5</ele>
        <time>2017-06-05T06:08:05.000Z</time>
      </trkpt>
      <trkpt lat="47.27717" lon="4.96754">
        <ele>464.2</ele>
        <time>2017-06-05T06:08:09.000Z</time>
      </trkpt>
      <trkpt lat="47.27707" lon="4.96741">
        <ele>463</ele>
        <time>2017-06-05T06:08:15.000Z</time>
      </trkpt>
      <trkpt lat="47.27697" lon="4.96734">
        <ele>462.5</ele>
        <time>2017-06-05T06:08:19.000Z</time>
      </trkpt>
      <trkpt lat="47.27684" lon="4.96726">
        <ele>462.9</ele>
        <time>2017-06-05T06:08:23.000Z</time>
      </trkpt>
      <trkpt lat="47.27675" lon="4.96718">
        <ele>462.2</ele>
        <time>2017-06-05T06:08:27.000Z</time>
      </trkpt>
      <trkpt lat="47.27665" lon="4.96712">
        <ele>462.3</ele>
        <time>2017-06-05T06:08:31.000Z</time>
      </trkpt>
      <trkpt lat="47.27657" lon="4.96704">
        <ele>464</ele>
        <time>2017-06-05T06:08:36.000Z</time>
      </trkpt>
      <trkpt lat="47.2765" lon="4.96689">
        <ele>465</ele>
        <time>2017-06-05T06:08:41.000Z</time>
      </trkpt>
      <trkpt lat="47.27642" lon="4.96676">
        <ele>467.8</ele>
        <time>2017-06-05T06:08:45.000Z</time>
      </trkpt>
      <trkpt lat="47.27638" lon="4.96663">
        <ele>470.6</ele>
        <time>2017-06-05T06:08:49.000Z</time>
      </trkpt>
      <trkpt lat="47.2763" lon="4.96644">
        <ele>476.8</ele>
        <time>2017-06-05T06:08:54.000Z</time>
      </trkpt>
      <trkpt lat="47.27625" lon="4.9663">
        <ele>477.4</ele>
        <time>2017-06-05T06:08:57.000Z</time>
      </trkpt>
      <trkpt lat="47.27621" lon="4.96612">
        <ele>480.8</ele>
        <time>2017-06-05T06:09:01.000Z</time>
      </trkpt>
      <trkpt lat="47.27618" lon="4.96593">
        <ele>483.4</ele>
        <time>2017-06-05T06:09:05.000Z</time>
      </trkpt>
      <trkpt lat="47.27615" lon="4.96573">
        <ele>485.7</ele>
        <time>2017-06-05T06:09:08.000Z</time>
      </trkpt>
      <trkpt lat="47.2761" lon="4.96554">
        <ele>487.9</ele>
        <time>2017-06-05T06:09:12.000Z</time>
      </trkpt>
      <trkpt lat="47.27605" lon="4.96531">
        <ele>489.3</ele>
        <time>2017-06-05T06:09:16.000Z</time>
      </trkpt>
      <trkpt lat="47.27601" lon="4.96519">
        <ele>490.4</ele>
        <time>2017-06-05T06:09:19.000Z</time>
      </trkpt>
      <trkpt lat="47.27599" lon="4.96503">
        <ele>491.5</ele>
        <time>2017-06-05T06:09:23.000Z</time>
      </trkpt>
      <trkpt lat="47.27593" lon="4.96489">
        <ele>494.2</ele>
        <time>2017-06-05T06:09:30.000Z</time>
      </trkpt>
      <trkpt lat="47.27587" lon="4.96475">
        <ele>495.6</ele>
        <time>2017-06-05T06:09:36.000Z</time>
      </trkpt>
      <trkpt lat="47.27583" lon="4.96456">
        <ele>496.4</ele>
        <time>2017-06-05T06:09:41.000Z</time>
      </trkpt>
      <trkpt lat="47.2758" lon="4.96441">
        <ele>498.3</ele>
        <time>2017-06-05T06:09:46.000Z</time>
      </trkpt>
      <trkpt lat="47.27577" lon="4.96426">
        <ele>500.5</ele>
        <time>2017-06-05T06:09:53.000Z</time>
      </trkpt>
      <trkpt lat="47.27576" lon="4.96413">
        <ele>502.9</ele>
        <time>2017-06-05T06:09:59.000Z</time>
      </trkpt>
      <trkpt lat="47.27573" lon="4.96399">
        <ele>503.6</ele>
        <time>2017-06-05T06:10:03.000Z</time>
      </trkpt>
      <trkpt lat="47.27571" lon="4.96382">
        <ele>504.6</ele>
        <time>2017-06-05T06:10:08.000Z</time>
      </trkpt>
      <trkpt lat="47.27568" lon="4.96367">
        <ele>505.8</ele>
        <time>2017-06-05T06:10:13.000Z</time>
      </trkpt>
      <trkpt lat="47.27567" lon="4.96353">
        <ele>506.6</ele>
        <time>2017-06-05T06:10:16.000Z</time>
      </trkpt>
      <trkpt lat="47.27569" lon="4.96329">
        <ele>508.4</ele>
        <time>2017-06-05T06:10:21.000Z</time>
      </trkpt>
      <trkpt lat="47.27572" lon="4.96317">
        <ele>508.8</ele>
        <time>2017-06-05T06:10:23.000Z</time>
      </trkpt>
      <trkpt lat="47.2758" lon="4.96295">
        <ele>508.9</ele>
        <time>2017-06-05T06:10:27.000Z</time>
      </trkpt>
      <trkpt lat="47.27583" lon="4.96281">
        <ele>509.9</ele>
        <time>2017-06-05T06:10:31.000Z</time>
      </trkpt>
      <trkpt lat="47.27585" lon="4.96259">
        <ele>511.4</ele>
        <time>2017-06-05T06:10:35.000Z</time>
      </trkpt>
      <trkpt lat="47.27588" lon="4.96244">
        <ele>513</ele>
        <time>2017-06-05T06:10:38.000Z</time>
      </trkpt>
      <trkpt lat="47.27589" lon="4.96222">
        <ele>514.2</ele>
        <time>2017-06-05T06:10:42.000Z</time>
      </trkpt>
      <trkpt lat="47.27593" lon="4.96207">
        <ele>513.9</ele>
        <time>2017-06-05T06:10:45.000Z</time>
      </trkpt>
      <trkpt lat="47.27598" lon="4.96192">
        <ele>513.9</ele>
        <time>2017-06-05T06:10:49.000Z</time>
      </trkpt>
      <trkpt lat="47.27601" lon="4.96171">
        <ele>514</ele>
        <time>2017-06-05T06:10:53.000Z</time>
      </trkpt>
      <trkpt lat="47.27604" lon="4.96149">
        <ele>511.8</ele>
        <time>2017-06-05T06:10:57.000Z</time>
      </trkpt>
      <trkpt lat="47.2761" lon="4.96124">
        <ele>506.9</ele>
        <time>2017-06-05T06:11:01.000Z</time>
      </trkpt>
      <trkpt lat="47.27615" lon="4.96112">
        <ele>506.7</ele>
        <time>2017-06-05T06:11:03.000Z</time>
      </trkpt>
      <trkpt lat="47.27617" lon="4.96098">
        <ele>504.7</ele>
        <time>2017-06-05T06:11:05.000Z</time>
      </trkpt>
      <trkpt lat="47.27621" lon="4.96082">
        <ele>503.1</ele>
        <time>2017-06-05T06:11:07.000Z</time>
      </trkpt>
      <trkpt lat="47.27624" lon="4.96064">
        <ele>499.6</ele>
        <time>2017-06-05T06:11:09.000Z</time>
      </trkpt>
      <trkpt lat="47.2763" lon="4.96047">
        <ele>498.7</ele>
        <time>2017-06-05T06:11:11.000Z</time>
      </trkpt>
      <trkpt lat="47.27632" lon="4.96032">
        <ele>497.6</ele>
        <time>2017-06-05T06:11:13.000Z</time>
      </trkpt>
      <trkpt lat="47.27633" lon="4.96">
        <ele>495.8</ele>
        <time>2017-06-05T06:11:17.000Z</time>
      </trkpt>
      <trkpt lat="47.27631" lon="4.95976">
        <ele>494</ele>
        <time>2017-06-05T06:11:20.000Z</time>
      </trkpt>
      <trkpt lat="47.27629" lon="4.95962">
        <ele>493.5</ele>
        <time>2017-06-05T06:11:22.000Z</time>
      </trkpt>
      <trkpt lat="47.27627" lon="4.95947">
        <ele>492.8</ele>
        <time>2017-06-05T06:11:24.000Z</time>
      </trkpt>
      <trkpt lat="47.27622" lon="4.95929">
        <ele>492.4</ele>
        <time>2017-06-05T06:11:27.000Z</time>
      </trkpt>
      <trkpt lat="47.27615" lon="4.95905">
        <ele>492.1</ele>
        <time>2017-06-05T06:11:31.000Z</time>
      </trkpt>
      <trkpt lat="47.2761" lon="4.95893">
        <ele>491.9</ele>
        <time>2017-06-05T06:11:33.000Z</time>
      </trkpt>
      <trkpt lat="47.27605" lon="4.95881">
        <ele>491.5</ele>
        <time>2017-06-05T06:11:35.000Z</time>
      </trkpt>
      <trkpt lat="47.27595" lon="4.9586">
        <ele>491.9</ele>
        <time>2017-06-05T06:11:39.000Z</time>
      </trkpt>
      <trkpt lat="47.2759" lon="4.95848">
        <ele>492.2</ele>
        <time>2017-06-05T06:11:41.000Z</time>
      </trkpt>
      <trkpt lat="47.2758" lon="4.95829">
        <ele>493</ele>
        <time>2017-06-05T06:11:45.000Z</time>
      </trkpt>
      <trkpt lat="47.27569" lon="4.95812">
        <ele>494.6</ele>
        <time>2017-06-05T06:11:49.000Z</time>
      </trkpt>
      <trkpt lat="47.27559" lon="4.95791">
        <ele>496.2</ele>
        <time>2017-06-05T06:11:53.000Z</time>
      </trkpt>
      <trkpt lat="47.27549" lon="4.95772">
        <ele>498.3</ele>
        <time>2017-06-05T06:11:57.000Z</time>
      </trkpt>
      <trkpt lat="47.2754" lon="4.95754">
        <ele>500.3</ele>
        <time>2017-06-05T06:12:01.000Z</time>
      </trkpt>
      <trkpt lat="47.27531" lon="4.95741">
        <ele>502.4</ele>
        <time>2017-06-05T06:12:05.000Z</time>
      </trkpt>
      <trkpt lat="47.27525" lon="4.95729">
        <ele>504.4</ele>
        <time>2017-06-05T06:12:08.000Z</time>
      </trkpt>
      <trkpt lat="47.27516" lon="4.95706">
        <ele>507.3</ele>
        <time>2017-06-05T06:12:12.000Z</time>
      </trkpt>
      <trkpt lat="47.27501" lon="4.95673">
        <ele>511</ele>
        <time>2017-06-05T06:12:18.000Z</time>
      </trkpt>
      <trkpt lat="47.27493" lon="4.9566">
        <ele>512.6</ele>
        <time>2017-06-05T06:12:21.000Z</time>
      </trkpt>
      <trkpt lat="47.27485" lon="4.95645">
        <ele>514.1</ele>
        <time>2017-06-05T06:12:24.000Z</time>
      </trkpt>
      <trkpt lat="47.27478" lon="4.95634">
        <ele>515.6</ele>
        <time>2017-06-05T06:12:27.000Z</time>
      </trkpt>
      <trkpt lat="47.27469" lon="4.95619">
        <ele>518.3</ele>
        <time>2017-06-05T06:12:31.000Z</time>
      </trkpt>
      <trkpt lat="47.27458" lon="4.95603">
        <ele>521.9</ele>
        <time>2017-06-05T06:12:35.000Z</time>
      </trkpt>
      <trkpt lat="47.27447" lon="4.95583">
        <ele>524.4</ele>
        <time>2017-06-05T06:12:39.000Z</time>
      </trkpt>
      <trkpt lat="47.27436" lon="4.95554">
        <ele>527</ele>
        <time>2017-06-05T06:12:44.000Z</time>
      </trkpt>
      <trkpt lat="47.27429" lon="4.95542">
        <ele>528.7</ele>
        <time>2017-06-05T06:12:47.000Z</time>
      </trkpt>
      <trkpt lat="47.27422" lon="4.95524">
        <ele>531.5</ele>
        <time>2017-06-05T06:12:51.000Z</time>
      </trkpt>
      <trkpt lat="47.27414" lon="4.9551">
        <ele>533.8</ele>
        <time>2017-06-05T06:12:55.000Z</time>
      </trkpt>
      <trkpt lat="47.27409" lon="4.95499">
        <ele>537.2</ele>
        <time>2017-06-05T06:12:59.000Z</time>
      </trkpt>
      <trkpt lat="47.27399" lon="4.95475">
        <ele>538.8</ele>
        <time>2017-06-05T06:13:04.000Z</time>
      </trkpt>
      <trkpt lat="47.27387" lon="4.95458">
        <ele>543.1</ele>
        <time>2017-06-05T06:13:09.000Z</time>
      </trkpt>
      <trkpt lat="47.27376" lon="4.9544">
        <ele>546.6</ele>
        <time>2017-06-05T06:13:14.000Z</time>
      </trkpt>
      <trkpt lat="47.27366" lon="4.95422">
        <ele>550.6</ele>
        <time>2017-06-05T06:13:18.000Z</time>
      </trkpt>
      <trkpt lat="47.27359" lon="4.954">
        <ele>553.2</ele>
        <time>2017-06-05T06:13:21.000Z</time>
      </trkpt>
      <trkpt lat="47.27355" lon="4.9538">
        <ele>553.8</ele>
        <time>2017-06-05T06:13:23.000Z</time>
      </trkpt>
      <trkpt lat="47.27351" lon="4.95365">
        <ele>553.6</ele>
        <time>2017-06-05T06:13:25.000Z</time>
      </trkpt>
      <trkpt lat="47.27342" lon="4.95349">
        <ele>556.8</ele>
        <time>2017-06-05T06:13:29.000Z</time>
      </trkpt>
      <trkpt lat="47.27333" lon="4.95333">
        <ele>558.5</ele>
        <time>2017-06-05T06:13:34.000Z</time>
      </trkpt>
      <trkpt lat="47.27325" lon="4.95324">
        <ele>558.1</ele>
        <time>2017-06-05T06:13:37.000Z</time>
      </trkpt>
      <trkpt lat="47.27316" lon="4.95306">
        <ele>557.7</ele>
        <time>2017-06-05T06:13:41.000Z</time>
      </trkpt>
      <trkpt lat="47.2731" lon="4.95289">
        <ele>558.8</ele>
        <time>2017-06-05T06:13:45.000Z</time>
      </trkpt>
      <trkpt lat="47.27302" lon="4.95275">
        <ele>559.2</ele>
        <time>2017-06-05T06:13:49.000Z</time>
      </trkpt>
      <trkpt lat="47.27293" lon="4.95264">
        <ele>563.1</ele>
        <time>2017-06-05T06:13:54.000Z</time>
      </trkpt>
      <trkpt lat="47.27287" lon="4.95254">
        <ele>566.2</ele>
        <time>2017-06-05T06:13:58.000Z</time>
      </trkpt>
      <trkpt lat="47.27277" lon="4.95244">
        <ele>571.8</ele>
        <time>2017-06-05T06:14:04.000Z</time>
      </trkpt>
      <trkpt lat="47.27267" lon="4.95247">
        <ele>578.2</ele>
        <time>2017-06-05T06:14:11.000Z</time>
      </trkpt>
      <trkpt lat="47.27257" lon="4.95252">
        <ele>583</ele>
        <time>2017-06-05T06:14:19.000Z</time>
      </trkpt>
      <trkpt lat="47.27245" lon="4.95256">
        <ele>582.5</ele>
        <time>2017-06-05T06:14:25.000Z</time>
      </trkpt>
      <trkpt lat="47.27236" lon="4.95252">
        <ele>577.7</ele>
        <time>2017-06-05T06:14:29.000Z</time>
      </trkpt>
      <trkpt lat="47.27243" lon="4.95238">
        <ele>556.9</ele>
        <time>2017-06-05T06:14:37.000Z</time>
      </trkpt>
      <trkpt lat="47.27235" lon="4.95249">
        <ele>555.4</ele>
        <time>2017-06-05T06:14:41.000Z</time>
      </trkpt>
      <trkpt lat="47.27224" lon="4.9526">
        <ele>553</ele>
        <time>2017-06-05T06:14:45.000Z</time>
      </trkpt>
      <trkpt lat="47.27214" lon="4.95266">
        <ele>550.9</ele>
        <time>2017-06-05T06:14:48.000Z</time>
      </trkpt>
      <trkpt lat="47.27207" lon="4.95275">
        <ele>548.8</ele>
        <time>2017-06-05T06:14:51.000Z</time>
      </trkpt>
      <trkpt lat="47.272" lon="4.95283">
        <ele>548</ele>
        <time>2017-06-05T06:14:55.000Z</time>
      </trkpt>
      <trkpt lat="47.27185" lon="4.95296">
        <ele>545.5</ele>
        <time>2017-06-05T06:15:00.000Z</time>
      </trkpt>
      <trkpt lat="47.27176" lon="4.95302">
        <ele>543.2</ele>
        <time>2017-06-05T06:15:02.000Z</time>
      </trkpt>
      <trkpt lat="47.27166" lon="4.95308">
        <ele>539.8</ele>
        <time>2017-06-05T06:15:04.000Z</time>
      </trkpt>
      <trkpt lat="47.27157" lon="4.95314">
        <ele>537.8</ele>
        <time>2017-06-05T06:15:06.000Z</time>
      </trkpt>
      <trkpt lat="47.27145" lon="4.95319">
        <ele>535.7</ele>
        <time>2017-06-05T06:15:08.000Z</time>
      </trkpt>
      <trkpt lat="47.27135" lon="4.95322">
        <ele>532</ele>
        <time>2017-06-05T06:15:10.000Z</time>
      </trkpt>
      <trkpt lat="47.27128" lon="4.9533">
        <ele>529.6</ele>
        <time>2017-06-05T06:15:12.000Z</time>
      </trkpt>
      <trkpt lat="47.2712" lon="4.9534">
        <ele>528.7</ele>
        <time>2017-06-05T06:15:15.000Z</time>
      </trkpt>
      <trkpt lat="47.27113" lon="4.95353">
        <ele>527.5</ele>
        <time>2017-06-05T06:15:18.000Z</time>
      </trkpt>
      <trkpt lat="47.27104" lon="4.95364">
        <ele>526.5</ele>
        <time>2017-06-05T06:15:21.000Z</time>
      </trkpt>
      <trkpt lat="47.27091" lon="4.95382">
        <ele>524.1</ele>
        <time>2017-06-05T06:15:25.000Z</time>
      </trkpt>
      <trkpt lat="47.27084" lon="4.95391">
        <ele>524.8</ele>
        <time>2017-06-05T06:15:27.000Z</time>
      </trkpt>
      <trkpt lat="47.27077" lon="4.954">
        <ele>522.8</ele>
        <time>2017-06-05T06:15:29.000Z</time>
      </trkpt>
      <trkpt lat="47.27069" lon="4.9541">
        <ele>519.7</ele>
        <time>2017-06-05T06:15:31.000Z</time>
      </trkpt>
      <trkpt lat="47.27057" lon="4.95419">
        <ele>513.9</ele>
        <time>2017-06-05T06:15:33.000Z</time>
      </trkpt>
      <trkpt lat="47.27047" lon="4.95429">
        <ele>508.8</ele>
        <time>2017-06-05T06:15:35.000Z</time>
      </trkpt>
      <trkpt lat="47.27037" lon="4.95439">
        <ele>504.5</ele>
        <time>2017-06-05T06:15:37.000Z</time>
      </trkpt>
      <trkpt lat="47.27026" lon="4.95443">
        <ele>500.5</ele>
        <time>2017-06-05T06:15:38.000Z</time>
      </trkpt>
      <trkpt lat="47.27018" lon="4.95455">
        <ele>498.4</ele>
        <time>2017-06-05T06:15:40.000Z</time>
      </trkpt>
      <trkpt lat="47.27008" lon="4.95467">
        <ele>494.8</ele>
        <time>2017-06-05T06:15:42.000Z</time>
      </trkpt>
      <trkpt lat="47.26998" lon="4.95488">
        <ele>491.9</ele>
        <time>2017-06-05T06:15:45.000Z</time>
      </trkpt>
      <trkpt lat="47.2699" lon="4.955">
        <ele>490.3</ele>
        <time>2017-06-05T06:15:47.000Z</time>
      </trkpt>
      <trkpt lat="47.26982" lon="4.95512">
        <ele>488.7</ele>
        <time>2017-06-05T06:15:49.000Z</time>
      </trkpt>
      <trkpt lat="47.26973" lon="4.95525">
        <ele>486.5</ele>
        <time>2017-06-05T06:15:51.000Z</time>
      </trkpt>
      <trkpt lat="47.26965" lon="4.95536">
        <ele>483.4</ele>
        <time>2017-06-05T06:15:53.000Z</time>
      </trkpt>
      <trkpt lat="47.26958" lon="4.95547">
        <ele>483.1</ele>
        <time>2017-06-05T06:15:55.000Z</time>
      </trkpt>
      <trkpt lat="47.26951" lon="4.95557">
        <ele>481.8</ele>
        <time>2017-06-05T06:15:57.000Z</time>
      </trkpt>
      <trkpt lat="47.26944" lon="4.95566">
        <ele>479.8</ele>
        <time>2017-06-05T06:15:59.000Z</time>
      </trkpt>
      <trkpt lat="47.2693" lon="4.9558">
        <ele>478.8</ele>
        <time>2017-06-05T06:16:03.000Z</time>
      </trkpt>
      <trkpt lat="47.26917" lon="4.9559">
        <ele>476.9</ele>
        <time>2017-06-05T06:16:07.000Z</time>
      </trkpt>
      <trkpt lat="47.26906" lon="4.95599">
        <ele>476.9</ele>
        <time>2017-06-05T06:16:11.000Z</time>
      </trkpt>
      <trkpt lat="47.26897" lon="4.95607">
        <ele>477.3</ele>
        <time>2017-06-05T06:16:15.000Z</time>
      </trkpt>
      <trkpt lat="47.26889" lon="4.95616">
        <ele>479.8</ele>
        <time>2017-06-05T06:16:19.000Z</time>
      </trkpt>
      <trkpt lat="47.26881" lon="4.95626">
        <ele>481.8</ele>
        <time>2017-06-05T06:16:23.000Z</time>
      </trkpt>
      <trkpt lat="47.26871" lon="4.95637">
        <ele>482.9</ele>
        <time>2017-06-05T06:16:27.000Z</time>
      </trkpt>
      <trkpt lat="47.26861" lon="4.95649">
        <ele>482</ele>
        <time>2017-06-05T06:16:31.000Z</time>
      </trkpt>
      <trkpt lat="47.26853" lon="4.95664">
        <ele>480.3</ele>
        <time>2017-06-05T06:16:35.000Z</time>
      </trkpt>
      <trkpt lat="47.26845" lon="4.95675">
        <ele>478.4</ele>
        <time>2017-06-05T06:16:38.000Z</time>
      </trkpt>
      <trkpt lat="47.26836" lon="4.95693">
        <ele>478.2</ele>
        <time>2017-06-05T06:16:42.000Z</time>
      </trkpt>
      <trkpt lat="47.26826" lon="4.95704">
        <ele>477.6</ele>
        <time>2017-06-05T06:16:45.000Z</time>
      </trkpt>
      <trkpt lat="47.26814" lon="4.95719">
        <ele>476.7</ele>
        <time>2017-06-05T06:16:49.000Z</time>
      </trkpt>
      <trkpt lat="47.26805" lon="4.95738">
        <ele>474.6</ele>
        <time>2017-06-05T06:16:53.000Z</time>
      </trkpt>
      <trkpt lat="47.26798" lon="4.95752">
        <ele>473</ele>
        <time>2017-06-05T06:16:56.000Z</time>
      </trkpt>
      <trkpt lat="47.2679" lon="4.95772">
        <ele>472.6</ele>
        <time>2017-06-05T06:17:00.000Z</time>
      </trkpt>
      <trkpt lat="47.26783" lon="4.95787">
        <ele>472.5</ele>
        <time>2017-06-05T06:17:03.000Z</time>
      </trkpt>
      <trkpt lat="47.26769" lon="4.958">
        <ele>471.4</ele>
        <time>2017-06-05T06:17:07.000Z</time>
      </trkpt>
      <trkpt lat="47.26755" lon="4.95811">
        <ele>471.7</ele>
        <time>2017-06-05T06:17:11.000Z</time>
      </trkpt>
      <trkpt lat="47.2674" lon="4.95813">
        <ele>472.2</ele>
        <time>2017-06-05T06:17:15.000Z</time>
      </trkpt>
      <trkpt lat="47.26731" lon="4.958">
        <ele>472.1</ele>
        <time>2017-06-05T06:17:19.000Z</time>
      </trkpt>
      <trkpt lat="47.26724" lon="4.95781">
        <ele>472.2</ele>
        <time>2017-06-05T06:17:23.000Z</time>
      </trkpt>
      <trkpt lat="47.26716" lon="4.95765">
        <ele>472.6</ele>
        <time>2017-06-05T06:17:27.000Z</time>
      </trkpt>
      <trkpt lat="47.26711" lon="4.95749">
        <ele>474</ele>
        <time>2017-06-05T06:17:31.000Z</time>
      </trkpt>
      <trkpt lat="47.26708" lon="4.9573">
        <ele>474.6</ele>
        <time>2017-06-05T06:17:36.000Z</time>
      </trkpt>
      <trkpt lat="47.26704" lon="4.95711">
        <ele>476</ele>
        <time>2017-06-05T06:17:41.000Z</time>
      </trkpt>
      <trkpt lat="47.26708" lon="4.95698">
        <ele>477.6</ele>
        <time>2017-06-05T06:17:45.000Z</time>
      </trkpt>
      <trkpt lat="47.2671" lon="4.95681">
        <ele>479.2</ele>
        <time>2017-06-05T06:17:49.000Z</time>
      </trkpt>
      <trkpt lat="47.26711" lon="4.95668">
        <ele>480.8</ele>
        <time>2017-06-05T06:17:53.000Z</time>
      </trkpt>
      <trkpt lat="47.26711" lon="4.95653">
        <ele>482.8</ele>
        <time>2017-06-05T06:17:57.000Z</time>
      </trkpt>
      <trkpt lat="47.2671" lon="4.95634">
        <ele>484.6</ele>
        <time>2017-06-05T06:18:01.000Z</time>
      </trkpt>
      <trkpt lat="47.26711" lon="4.9562">
        <ele>485.7</ele>
        <time>2017-06-05T06:18:04.000Z</time>
      </trkpt>
      <trkpt lat="47.26711" lon="4.95604">
        <ele>487.4</ele>
        <time>2017-06-05T06:18:08.000Z</time>
      </trkpt>
      <trkpt lat="47.26704" lon="4.95584">
        <ele>489.3</ele>
        <time>2017-06-05T06:18:13.000Z</time>
      </trkpt>
      <trkpt lat="47.26698" lon="4.95569">
        <ele>490.9</ele>
        <time>2017-06-05T06:18:17.000Z</time>
      </trkpt>
      <trkpt lat="47.2669" lon="4.9556">
        <ele>492.5</ele>
        <time>2017-06-05T06:18:21.000Z</time>
      </trkpt>
      <trkpt lat="47.2668" lon="4.95551">
        <ele>495.1</ele>
        <time>2017-06-05T06:18:27.000Z</time>
      </trkpt>
      <trkpt lat="47.26672" lon="4.9554">
        <ele>498.4</ele>
        <time>2017-06-05T06:18:32.000Z</time>
      </trkpt>
      <trkpt lat="47.26664" lon="4.9553">
        <ele>500.9</ele>
        <time>2017-06-05T06:18:36.000Z</time>
      </trkpt>
      <trkpt lat="47.26656" lon="4.95519">
        <ele>504</ele>
        <time>2017-06-05T06:18:40.000Z</time>
      </trkpt>
      <trkpt lat="47.26647" lon="4.95506">
        <ele>506.8</ele>
        <time>2017-06-05T06:18:44.000Z</time>
      </trkpt>
      <trkpt lat="47.26638" lon="4.95492">
        <ele>509.8</ele>
        <time>2017-06-05T06:18:49.000Z</time>
      </trkpt>
      <trkpt lat="47.26628" lon="4.95481">
        <ele>513</ele>
        <time>2017-06-05T06:18:54.000Z</time>
      </trkpt>
      <trkpt lat="47.2662" lon="4.95466">
        <ele>516.8</ele>
        <time>2017-06-05T06:18:59.000Z</time>
      </trkpt>
      <trkpt lat="47.26608" lon="4.95457">
        <ele>520.3</ele>
        <time>2017-06-05T06:19:04.000Z</time>
      </trkpt>
      <trkpt lat="47.26596" lon="4.95443">
        <ele>523.8</ele>
        <time>2017-06-05T06:19:09.000Z</time>
      </trkpt>
      <trkpt lat="47.26587" lon="4.95431">
        <ele>526.7</ele>
        <time>2017-06-05T06:19:13.000Z</time>
      </trkpt>
      <trkpt lat="47.26578" lon="4.95419">
        <ele>529.8</ele>
        <time>2017-06-05T06:19:17.000Z</time>
      </trkpt>
      <trkpt lat="47.26562" lon="4.954">
        <ele>536</ele>
        <time>2017-06-05T06:19:25.000Z</time>
      </trkpt>
      <trkpt lat="47.2655" lon="4.95386">
        <ele>537.2</ele>
        <time>2017-06-05T06:19:29.000Z</time>
      </trkpt>
      <trkpt lat="47.26542" lon="4.95374">
        <ele>541.3</ele>
        <time>2017-06-05T06:19:34.000Z</time>
      </trkpt>
      <trkpt lat="47.26531" lon="4.95368">
        <ele>545.2</ele>
        <time>2017-06-05T06:19:39.000Z</time>
      </trkpt>
      <trkpt lat="47.26519" lon="4.95351">
        <ele>549.2</ele>
        <time>2017-06-05T06:19:44.000Z</time>
      </trkpt>
      <trkpt lat="47.2651" lon="4.95345">
        <ele>552.3</ele>
        <time>2017-06-05T06:19:48.000Z</time>
      </trkpt>
      <trkpt lat="47.26497" lon="4.95344">
        <ele>552.3</ele>
        <time>2017-06-05T06:19:51.000Z</time>
      </trkpt>
      <trkpt lat="47.26485" lon="4.95345">
        <ele>555</ele>
        <time>2017-06-05T06:19:55.000Z</time>
      </trkpt>
      <trkpt lat="47.26469" lon="4.95337">
        <ele>562.1</ele>
        <time>2017-06-05T06:20:03.000Z</time>
      </trkpt>
      <trkpt lat="47.26458" lon="4.95334">
        <ele>566.1</ele>
        <time>2017-06-05T06:20:07.000Z</time>
      </trkpt>
      <trkpt lat="47.26452" lon="4.95322">
        <ele>568.5</ele>
        <time>2017-06-05T06:20:10.000Z</time>
      </trkpt>
      <trkpt lat="47.26448" lon="4.9531">
        <ele>572.7</ele>
        <time>2017-06-05T06:20:15.000Z</time>
      </trkpt>
      <trkpt lat="47.26445" lon="4.95294">
        <ele>573.2</ele>
        <time>2017-06-05T06:20:19.000Z</time>
      </trkpt>
      <trkpt lat="47.26441" lon="4.9528">
        <ele>572.2</ele>
        <time>2017-06-05T06:20:22.000Z</time>
      </trkpt>
      <trkpt lat="47.26439" lon="4.95266">
        <ele>574.3</ele>
        <time>2017-06-05T06:20:27.000Z</time>
      </trkpt>
      <trkpt lat="47.2644" lon="4.95248">
        <ele>575.9</ele>
        <time>2017-06-05T06:20:31.000Z</time>
      </trkpt>
      <trkpt lat="47.26442" lon="4.95234">
        <ele>578.3</ele>
        <time>2017-06-05T06:20:35.000Z</time>
      </trkpt>
      <trkpt lat="47.26442" lon="4.95219">
        <ele>580.2</ele>
        <time>2017-06-05T06:20:39.000Z</time>
      </trkpt>
      <trkpt lat="47.26444" lon="4.95194">
        <ele>583.9</ele>
        <time>2017-06-05T06:20:47.000Z</time>
      </trkpt>
      <trkpt lat="47.2644" lon="4.95178">
        <ele>586.7</ele>
        <time>2017-06-05T06:20:51.000Z</time>
      </trkpt>
      <trkpt lat="47.26428" lon="4.95172">
        <ele>588.2</ele>
        <time>2017-06-05T06:20:59.000Z</time>
      </trkpt>
      <trkpt lat="47.26415" lon="4.95169">
        <ele>588.6</ele>
        <time>2017-06-05T06:21:03.000Z</time>
      </trkpt>
      <trkpt lat="47.26405" lon="4.95167">
        <ele>587.7</ele>
        <time>2017-06-05T06:21:05.000Z</time>
      </trkpt>
      <trkpt lat="47.26391" lon="4.95163">
        <ele>586.7</ele>
        <time>2017-06-05T06:21:09.000Z</time>
      </trkpt>
      <trkpt lat="47.26381" lon="4.9516">
        <ele>587.2</ele>
        <time>2017-06-05T06:21:12.000Z</time>
      </trkpt>
      <trkpt lat="47.26371" lon="4.95156">
        <ele>587.5</ele>
        <time>2017-06-05T06:21:15.000Z</time>
      </trkpt>
      <trkpt lat="47.26358" lon="4.95148">
        <ele>587.1</ele>
        <time>2017-06-05T06:21:19.000Z</time>
      </trkpt>
      <trkpt lat="47.26347" lon="4.9514">
        <ele>588.2</ele>
        <time>2017-06-05T06:21:23.000Z</time>
      </trkpt>
      <trkpt lat="47.26333" lon="4.95137">
        <ele>588</ele>
        <time>2017-06-05T06:21:27.000Z</time>
      </trkpt>
      <trkpt lat="47.26319" lon="4.9513">
        <ele>586.6</ele>
        <time>2017-06-05T06:21:31.000Z</time>
      </trkpt>
      <trkpt lat="47.2631" lon="4.9512">
        <ele>582.8</ele>
        <time>2017-06-05T06:21:33.000Z</time>
      </trkpt>
      <trkpt lat="47.26301" lon="4.95114">
        <ele>581.9</ele>
        <time>2017-06-05T06:21:37.000Z</time>
      </trkpt>
      <trkpt lat="47.26291" lon="4.95111">
        <ele>579.1</ele>
        <time>2017-06-05T06:21:41.000Z</time>
      </trkpt>
      <trkpt lat="47.26284" lon="4.95102">
        <ele>576.8</ele>
        <time>2017-06-05T06:21:45.000Z</time>
      </trkpt>
      <trkpt lat="47.26275" lon="4.95094">
        <ele>577.2</ele>
        <time>2017-06-05T06:21:51.000Z</time>
      </trkpt>
      <trkpt lat="47.26262" lon="4.9508">
        <ele>576.1</ele>
        <time>2017-06-05T06:22:00.000Z</time>
      </trkpt>
      <trkpt lat="47.26247" lon="4.95075">
        <ele>575.5</ele>
        <time>2017-06-05T06:22:05.000Z</time>
      </trkpt>
      <trkpt lat="47.26233" lon="4.95068">
        <ele>576.6</ele>
        <time>2017-06-05T06:22:09.000Z</time>
      </trkpt>
      <trkpt lat="47.26222" lon="4.9506">
        <ele>576.2</ele>
        <time>2017-06-05T06:22:12.000Z</time>
      </trkpt>
      <trkpt lat="47.26218" lon="4.95047">
        <ele>575.9</ele>
        <time>2017-06-05T06:22:15.000Z</time>
      </trkpt>
      <trkpt lat="47.26215" lon="4.95028">
        <ele>573.7</ele>
        <time>2017-06-05T06:22:21.000Z</time>
      </trkpt>
      <trkpt lat="47.26209" lon="4.9501">
        <ele>574.8</ele>
        <time>2017-06-05T06:22:25.000Z</time>
      </trkpt>
      <trkpt lat="47.26193" lon="4.95008">
        <ele>575.4</ele>
        <time>2017-06-05T06:22:29.000Z</time>
      </trkpt>
      <trkpt lat="47.26178" lon="4.94995">
        <ele>576</ele>
        <time>2017-06-05T06:22:33.000Z</time>
      </trkpt>
      <trkpt lat="47.26161" lon="4.94983">
        <ele>576.1</ele>
        <time>2017-06-05T06:22:37.000Z</time>
      </trkpt>
      <trkpt lat="47.26145" lon="4.94978">
        <ele>574.8</ele>
        <time>2017-06-05T06:22:40.000Z</time>
      </trkpt>
      <trkpt lat="47.26133" lon="4.9497">
        <ele>573.3</ele>
        <time>2017-06-05T06:22:43.000Z</time>
      </trkpt>
      <trkpt lat="47.26107" lon="4.9495">
        <ele>572.3</ele>
        <time>2017-06-05T06:22:50.000Z</time>
      </trkpt>
      <trkpt lat="47.26098" lon="4.94936">
        <ele>568.5</ele>
        <time>2017-06-05T06:22:53.000Z</time>
      </trkpt>
      <trkpt lat="47.26097" lon="4.94916">
        <ele>560.9</ele>
        <time>2017-06-05T06:22:56.000Z</time>
      </trkpt>
      <trkpt lat="47.26099" lon="4.94902">
        <ele>557.3</ele>
        <time>2017-06-05T06:22:58.000Z</time>
      </trkpt>
      <trkpt lat="47.26101" lon="4.94883">
        <ele>552.5</ele>
        <time>2017-06-05T06:23:01.000Z</time>
      </trkpt>
      <trkpt lat="47.26102" lon="4.94869">
        <ele>549.5</ele>
        <time>2017-06-05T06:23:03.000Z</time>
      </trkpt>
      <trkpt lat="47.26105" lon="4.94845">
        <ele>545.7</ele>
        <time>2017-06-05T06:23:07.000Z</time>
      </trkpt>
      <trkpt lat="47.26107" lon="4.94822">
        <ele>541.1</ele>
        <time>2017-06-05T06:23:11.000Z</time>
      </trkpt>
      <trkpt lat="47.26111" lon="4.948">
        <ele>536.8</ele>
        <time>2017-06-05T06:23:15.000Z</time>
      </trkpt>
      <trkpt lat="47.26111" lon="4.94783">
        <ele>534.6</ele>
        <time>2017-06-05T06:23:18.000Z</time>
      </trkpt>
      <trkpt lat="47.26111" lon="4.94763">
        <ele>532.3</ele>
        <time>2017-06-05T06:23:21.000Z</time>
      </trkpt>
      <trkpt lat="47.26114" lon="4.94738">
        <ele>529.1</ele>
        <time>2017-06-05T06:23:25.000Z</time>
      </trkpt>
      <trkpt lat="47.26115" lon="4.94718">
        <ele>527.1</ele>
        <time>2017-06-05T06:23:29.000Z</time>
      </trkpt>
      <trkpt lat="47.26116" lon="4.94698">
        <ele>525.3</ele>
        <time>2017-06-05T06:23:33.000Z</time>
      </trkpt>
      <trkpt lat="47.26118" lon="4.94682">
        <ele>524.4</ele>
        <time>2017-06-05T06:23:37.000Z</time>
      </trkpt>
      <trkpt lat="47.26117" lon="4.94664">
        <ele>524.1</ele>
        <time>2017-06-05T06:23:42.000Z</time>
      </trkpt>
      <trkpt lat="47.26115" lon="4.94647">
        <ele>523.9</ele>
        <time>2017-06-05T06:23:49.000Z</time>
      </trkpt>
      <trkpt lat="47.26111" lon="4.9463">
        <ele>524.2</ele>
        <time>2017-06-05T06:23:53.000Z</time>
      </trkpt>
      <trkpt lat="47.26107" lon="4.94614">
        <ele>524.5</ele>
        <time>2017-06-05T06:23:57.000Z</time>
      </trkpt>
      <trkpt lat="47.26102" lon="4.94596">
        <ele>524.8</ele>
        <time>2017-06-05T06:24:01.000Z</time>
      </trkpt>
      <trkpt lat="47.26098" lon="4.94581">
        <ele>525</ele>
        <time>2017-06-05T06:24:05.000Z</time>
      </trkpt>
      <trkpt lat="47.26091" lon="4.9457">
        <ele>525.7</ele>
        <time>2017-06-05T06:24:09.000Z</time>
      </trkpt>
      <trkpt lat="47.26085" lon="4.94554">
        <ele>526.4</ele>
        <time>2017-06-05T06:24:13.000Z</time>
      </trkpt>
      <trkpt lat="47.26083" lon="4.94537">
        <ele>527.2</ele>
        <time>2017-06-05T06:24:17.000Z</time>
      </trkpt>
      <trkpt lat="47.26078" lon="4.94519">
        <ele>527.7</ele>
        <time>2017-06-05T06:24:21.000Z</time>
      </trkpt>
      <trkpt lat="47.26075" lon="4.94504">
        <ele>527.5</ele>
        <time>2017-06-05T06:24:25.000Z</time>
      </trkpt>
      <trkpt lat="47.26069" lon="4.94489">
        <ele>526.5</ele>
        <time>2017-06-05T06:24:31.000Z</time>
      </trkpt>
      <trkpt lat="47.26065" lon="4.94476">
        <ele>527.9</ele>
        <time>2017-06-05T06:24:37.000Z</time>
      </trkpt>
      <trkpt lat="47.2606" lon="4.94464">
        <ele>529.2</ele>
        <time>2017-06-05T06:24:44.000Z</time>
      </trkpt>
      <trkpt lat="47.26052" lon="4.94453">
        <ele>528.9</ele>
        <time>2017-06-05T06:24:51.000Z</time>
      </trkpt>
      <trkpt lat="47.26045" lon="4.94443">
        <ele>528.1</ele>
        <time>2017-06-05T06:24:57.000Z</time>
      </trkpt>
      <trkpt lat="47.26039" lon="4.94429">
        <ele>529</ele>
        <time>2017-06-05T06:25:05.000Z</time>
      </trkpt>
      <trkpt lat="47.26037" lon="4.94413">
        <ele>524.8</ele>
        <time>2017-06-05T06:25:10.000Z</time>
      </trkpt>
      <trkpt lat="47.26028" lon="4.94404">
        <ele>522.1</ele>
        <time>2017-06-05T06:25:17.000Z</time>
      </trkpt>
      <trkpt lat="47.26019" lon="4.94396">
        <ele>520.6</ele>
        <time>2017-06-05T06:25:25.000Z</time>
      </trkpt>
      <trkpt lat="47.26011" lon="4.94387">
        <ele>519.4</ele>
        <time>2017-06-05T06:25:33.000Z</time>
      </trkpt>
      <trkpt lat="47.26003" lon="4.94372">
        <ele>520</ele>
        <time>2017-06-05T06:25:41.000Z</time>
      </trkpt>
      <trkpt lat="47.25995" lon="4.94363">
        <ele>521.4</ele>
        <time>2017-06-05T06:25:47.000Z</time>
      </trkpt>
      <trkpt lat="47.25987" lon="4.94359">
        <ele>522.9</ele>
        <time>2017-06-05T06:25:53.000Z</time>
      </trkpt>
      <trkpt lat="47.25978" lon="4.94351">
        <ele>525.8</ele>
        <time>2017-06-05T06:26:01.000Z</time>
      </trkpt>
      <trkpt lat="47.25972" lon="4.94338">
        <ele>528.8</ele>
        <time>2017-06-05T06:26:09.000Z</time>
      </trkpt>
      <trkpt lat="47.25969" lon="4.94326">
        <ele>530.6</ele>
        <time>2017-06-05T06:26:13.000Z</time>
      </trkpt>
      <trkpt lat="47.25964" lon="4.94312">
        <ele>533.4</ele>
        <time>2017-06-05T06:26:19.000Z</time>
      </trkpt>
      <trkpt lat="47.25957" lon="4.94302">
        <ele>538.1</ele>
        <time>2017-06-05T06:26:26.000Z</time>
      </trkpt>
      <trkpt lat="47.25948" lon="4.9429">
        <ele>541.3</ele>
        <time>2017-06-05T06:26:31.000Z</time>
      </trkpt>
      <trkpt lat="47.2594" lon="4.94283">
        <ele>543.6</ele>
        <time>2017-06-05T06:26:35.000Z</time>
      </trkpt>
      <trkpt lat="47.25931" lon="4.94272">
        <ele>546.7</ele>
        <time>2017-06-05T06:26:41.000Z</time>
      </trkpt>
      <trkpt lat="47.25922" lon="4.94262">
        <ele>548.7</ele>
        <time>2017-06-05T06:26:45.000Z</time>
      </trkpt>
      <trkpt lat="47.25913" lon="4.94255">
        <ele>550</ele>
        <time>2017-06-05T06:26:49.000Z</time>
      </trkpt>
      <trkpt lat="47.25902" lon="4.94244">
        <ele>551.8</ele>
        <time>2017-06-05T06:26:55.000Z</time>
      </trkpt>
      <trkpt lat="47.25886" lon="4.9423">
        <ele>549.1</ele>
        <time>2017-06-05T06:27:02.000Z</time>
      </trkpt>
      <trkpt lat="47.25876" lon="4.94225">
        <ele>549.4</ele>
        <time>2017-06-05T06:27:07.000Z</time>
      </trkpt>
      <trkpt lat="47.25866" lon="4.94211">
        <ele>550.5</ele>
        <time>2017-06-05T06:27:13.000Z</time>
      </trkpt>
      <trkpt lat="47.25862" lon="4.94198">
        <ele>550</ele>
        <time>2017-06-05T06:27:17.000Z</time>
      </trkpt>
      <trkpt lat="47.25855" lon="4.94186">
        <ele>549.1</ele>
        <time>2017-06-05T06:27:22.000Z</time>
      </trkpt>
      <trkpt lat="47.25844" lon="4.94175">
        <ele>550.7</ele>
        <time>2017-06-05T06:27:27.000Z</time>
      </trkpt>
      <trkpt lat="47.25835" lon="4.94164">
        <ele>551.4</ele>
        <time>2017-06-05T06:27:31.000Z</time>
      </trkpt>
      <trkpt lat="47.25826" lon="4.94154">
        <ele>552.2</ele>
        <time>2017-06-05T06:27:35.000Z</time>
      </trkpt>
      <trkpt lat="47.25824" lon="4.94139">
        <ele>551.3</ele>
        <time>2017-06-05T06:27:42.000Z</time>
      </trkpt>
      <trkpt lat="47.25824" lon="4.94125">
        <ele>549.6</ele>
        <time>2017-06-05T06:27:46.000Z</time>
      </trkpt>
      <trkpt lat="47.25831" lon="4.94114">
        <ele>550.3</ele>
        <time>2017-06-05T06:27:53.000Z</time>
      </trkpt>
      <trkpt lat="47.25827" lon="4.94099">
        <ele>551.9</ele>
        <time>2017-06-05T06:28:02.000Z</time>
      </trkpt>
      <trkpt lat="47.25824" lon="4.94082">
        <ele>552.8</ele>
        <time>2017-06-05T06:28:17.000Z</time>
      </trkpt>
      <trkpt lat="47.25813" lon="4.94063">
        <ele>553.5</ele>
        <time>2017-06-05T06:28:25.000Z</time>
      </trkpt>
      <trkpt lat="47.25805" lon="4.94052">
        <ele>554.7</ele>
        <time>2017-06-05T06:28:32.000Z</time>
      </trkpt>
      <trkpt lat="47.25795" lon="4.94045">
        <ele>555.9</ele>
        <time>2017-06-05T06:28:39.000Z</time>
      </trkpt>
      <trkpt lat="47.25785" lon="4.9404">
        <ele>556.3</ele>
        <time>2017-06-05T06:28:46.000Z</time>
      </trkpt>
      <trkpt lat="47.25781" lon="4.94028">
        <ele>556.5</ele>
        <time>2017-06-05T06:28:53.000Z</time>
      </trkpt>
      <trkpt lat="47.25782" lon="4.94014">
        <ele>557.3</ele>
        <time>2017-06-05T06:29:00.000Z</time>
      </trkpt>
      <trkpt lat="47.25783" lon="4.93999">
        <ele>558.1</ele>
        <time>2017-06-05T06:29:07.000Z</time>
      </trkpt>
      <trkpt lat="47.25786" lon="4.93985">
        <ele>558.8</ele>
        <time>2017-06-05T06:29:13.000Z</time>
      </trkpt>
      <trkpt lat="47.25788" lon="4.93971">
        <ele>559.9</ele>
        <time>2017-06-05T06:29:19.000Z</time>
      </trkpt>
      <trkpt lat="47.2579" lon="4.93954">
        <ele>560.9</ele>
        <time>2017-06-05T06:29:25.000Z</time>
      </trkpt>
      <trkpt lat="47.25792" lon="4.93938">
        <ele>561.2</ele>
        <time>2017-06-05T06:29:29.000Z</time>
      </trkpt>
      <trkpt lat="47.25793" lon="4.93922">
        <ele>559.9</ele>
        <time>2017-06-05T06:29:33.000Z</time>
      </trkpt>
      <trkpt lat="47.25793" lon="4.93908">
        <ele>557.2</ele>
        <time>2017-06-05T06:29:37.000Z</time>
      </trkpt>
      <trkpt lat="47.25796" lon="4.93892">
        <ele>556.4</ele>
        <time>2017-06-05T06:29:45.000Z</time>
      </trkpt>
      <trkpt lat="47.25797" lon="4.93875">
        <ele>555.5</ele>
        <time>2017-06-05T06:29:52.000Z</time>
      </trkpt>
      <trkpt lat="47.25798" lon="4.93858">
        <ele>555.2</ele>
        <time>2017-06-05T06:29:57.000Z</time>
      </trkpt>
      <trkpt lat="47.25798" lon="4.93839">
        <ele>555.5</ele>
        <time>2017-06-05T06:30:03.000Z</time>
      </trkpt>
      <trkpt lat="47.25798" lon="4.93824">
        <ele>555.7</ele>
        <time>2017-06-05T06:30:09.000Z</time>
      </trkpt>
      <trkpt lat="47.258" lon="4.93809">
        <ele>556.2</ele>
        <time>2017-06-05T06:30:14.000Z</time>
      </trkpt>
      <trkpt lat="47.25803" lon="4.9379">
        <ele>556.4</ele>
        <time>2017-06-05T06:30:19.000Z</time>
      </trkpt>
      <trkpt lat="47.25802" lon="4.93767">
        <ele>558.4</ele>
        <time>2017-06-05T06:30:28.000Z</time>
      </trkpt>
      <trkpt lat="47.25801" lon="4.93752">
        <ele>559</ele>
        <time>2017-06-05T06:30:33.000Z</time>
      </trkpt>
      <trkpt lat="47.25798" lon="4.93737">
        <ele>561.2</ele>
        <time>2017-06-05T06:30:40.000Z</time>
      </trkpt>
      <trkpt lat="47.25797" lon="4.93722">
        <ele>563.4</ele>
        <time>2017-06-05T06:30:46.000Z</time>
      </trkpt>
      <trkpt lat="47.25797" lon="4.93708">
        <ele>565.3</ele>
        <time>2017-06-05T06:30:51.000Z</time>
      </trkpt>
      <trkpt lat="47.25792" lon="4.93684">
        <ele>564.3</ele>
        <time>2017-06-05T06:30:59.000Z</time>
      </trkpt>
      <trkpt lat="47.2579" lon="4.9367">
        <ele>563.7</ele>
        <time>2017-06-05T06:31:02.000Z</time>
      </trkpt>
      <trkpt lat="47.25787" lon="4.93651">
        <ele>564.8</ele>
        <time>2017-06-05T06:31:09.000Z</time>
      </trkpt>
      <trkpt lat="47.25786" lon="4.93633">
        <ele>565.5</ele>
        <time>2017-06-05T06:31:16.000Z</time>
      </trkpt>
      <trkpt lat="47.25782" lon="4.93619">
        <ele>566.4</ele>
        <time>2017-06-05T06:31:23.000Z</time>
      </trkpt>
      <trkpt lat="47.2578" lon="4.93604">
        <ele>567.6</ele>
        <time>2017-06-05T06:31:29.000Z</time>
      </trkpt>
      <trkpt lat="47.25774" lon="4.93576">
        <ele>569.7</ele>
        <time>2017-06-05T06:31:36.000Z</time>
      </trkpt>
      <trkpt lat="47.25766" lon="4.93553">
        <ele>571.7</ele>
        <time>2017-06-05T06:31:45.000Z</time>
      </trkpt>
      <trkpt lat="47.25762" lon="4.93539">
        <ele>573.6</ele>
        <time>2017-06-05T06:31:51.000Z</time>
      </trkpt>
      <trkpt lat="47.25758" lon="4.93523">
        <ele>575.4</ele>
        <time>2017-06-05T06:31:57.000Z</time>
      </trkpt>
      <trkpt lat="47.25755" lon="4.93506">
        <ele>577.2</ele>
        <time>2017-06-05T06:32:01.000Z</time>
      </trkpt>
      <trkpt lat="47.2575" lon="4.93492">
        <ele>578.6</ele>
        <time>2017-06-05T06:32:05.000Z</time>
      </trkpt>
      <trkpt lat="47.25747" lon="4.9347">
        <ele>577.7</ele>
        <time>2017-06-05T06:32:10.000Z</time>
      </trkpt>
      <trkpt lat="47.25748" lon="4.9345">
        <ele>580.8</ele>
        <time>2017-06-05T06:32:18.000Z</time>
      </trkpt>
      <trkpt lat="47.25753" lon="4.93439">
        <ele>582.4</ele>
        <time>2017-06-05T06:32:22.000Z</time>
      </trkpt>
      <trkpt lat="47.25758" lon="4.93426">
        <ele>584</ele>
        <time>2017-06-05T06:32:27.000Z</time>
      </trkpt>
      <trkpt lat="47.25766" lon="4.93406">
        <ele>585.6</ele>
        <time>2017-06-05T06:32:33.000Z</time>
      </trkpt>
      <trkpt lat="47.25771" lon="4.93395">
        <ele>586</ele>
        <time>2017-06-05T06:32:37.000Z</time>
      </trkpt>
      <trkpt lat="47.25777" lon="4.93382">
        <ele>586.7</ele>
        <time>2017-06-05T06:32:42.000Z</time>
      </trkpt>
      <trkpt lat="47.25784" lon="4.93368">
        <ele>586.7</ele>
        <time>2017-06-05T06:32:47.000Z</time>
      </trkpt>
      <trkpt lat="47.2579" lon="4.93353">
        <ele>586.6</ele>
        <time>2017-06-05T06:32:52.000Z</time>
      </trkpt>
      <trkpt lat="47.25795" lon="4.93337">
        <ele>587.2</ele>
        <time>2017-06-05T06:32:57.000Z</time>
      </trkpt>
      <trkpt lat="47.25799" lon="4.93324">
        <ele>587.7</ele>
        <time>2017-06-05T06:33:01.000Z</time>
      </trkpt>
      <trkpt lat="47.25804" lon="4.93307">
        <ele>588.4</ele>
        <time>2017-06-05T06:33:05.000Z</time>
      </trkpt>
      <trkpt lat="47.25806" lon="4.9329">
        <ele>589.3</ele>
        <time>2017-06-05T06:33:11.000Z</time>
      </trkpt>
      <trkpt lat="47.25813" lon="4.93272">
        <ele>589.9</ele>
        <time>2017-06-05T06:33:17.000Z</time>
      </trkpt>
      <trkpt lat="47.25819" lon="4.93258">
        <ele>590</ele>
        <time>2017-06-05T06:33:21.000Z</time>
      </trkpt>
      <trkpt lat="47.25825" lon="4.93239">
        <ele>589.5</ele>
        <time>2017-06-05T06:33:27.000Z</time>
      </trkpt>
      <trkpt lat="47.25832" lon="4.93229">
        <ele>586.5</ele>
        <time>2017-06-05T06:33:31.000Z</time>
      </trkpt>
      <trkpt lat="47.25839" lon="4.9322">
        <ele>585.8</ele>
        <time>2017-06-05T06:33:35.000Z</time>
      </trkpt>
      <trkpt lat="47.25846" lon="4.93204">
        <ele>585.5</ele>
        <time>2017-06-05T06:33:40.000Z</time>
      </trkpt>
      <trkpt lat="47.25845" lon="4.9319">
        <ele>579.8</ele>
        <time>2017-06-05T06:33:43.000Z</time>
      </trkpt>
      <trkpt lat="47.25846" lon="4.93173">
        <ele>573.8</ele>
        <time>2017-06-05T06:33:47.000Z</time>
      </trkpt>
      <trkpt lat="47.2585" lon="4.93155">
        <ele>569.7</ele>
        <time>2017-06-05T06:33:53.000Z</time>
      </trkpt>
      <trkpt lat="47.25854" lon="4.93139">
        <ele>564.6</ele>
        <time>2017-06-05T06:33:57.000Z</time>
      </trkpt>
      <trkpt lat="47.25862" lon="4.93126">
        <ele>561.3</ele>
        <time>2017-06-05T06:34:01.000Z</time>
      </trkpt>
      <trkpt lat="47.25869" lon="4.93113">
        <ele>558.4</ele>
        <time>2017-06-05T06:34:05.000Z</time>
      </trkpt>
      <trkpt lat="47.25878" lon="4.931">
        <ele>556.3</ele>
        <time>2017-06-05T06:34:09.000Z</time>
      </trkpt>
      <trkpt lat="47.25891" lon="4.93089">
        <ele>553.7</ele>
        <time>2017-06-05T06:34:15.000Z</time>
      </trkpt>
      <trkpt lat="47.25903" lon="4.93086">
        <ele>551.2</ele>
        <time>2017-06-05T06:34:19.000Z</time>
      </trkpt>
      <trkpt lat="47.25914" lon="4.93084">
        <ele>548.4</ele>
        <time>2017-06-05T06:34:23.000Z</time>
      </trkpt>
      <trkpt lat="47.25923" lon="4.93082">
        <ele>548.4</ele>
        <time>2017-06-05T06:34:27.000Z</time>
      </trkpt>
      <trkpt lat="47.25932" lon="4.9308">
        <ele>548</ele>
        <time>2017-06-05T06:34:31.000Z</time>
      </trkpt>
      <trkpt lat="47.25942" lon="4.9308">
        <ele>547.5</ele>
        <time>2017-06-05T06:34:35.000Z</time>
      </trkpt>
      <trkpt lat="47.25953" lon="4.93084">
        <ele>546</ele>
        <time>2017-06-05T06:34:39.000Z</time>
      </trkpt>
      <trkpt lat="47.25963" lon="4.93086">
        <ele>547.4</ele>
        <time>2017-06-05T06:34:43.000Z</time>
      </trkpt>
      <trkpt lat="47.25975" lon="4.9309">
        <ele>547.6</ele>
        <time>2017-06-05T06:34:48.000Z</time>
      </trkpt>
      <trkpt lat="47.25984" lon="4.93095">
        <ele>546.2</ele>
        <time>2017-06-05T06:34:51.000Z</time>
      </trkpt>
      <trkpt lat="47.25996" lon="4.93101">
        <ele>545.2</ele>
        <time>2017-06-05T06:34:55.000Z</time>
      </trkpt>
      <trkpt lat="47.26005" lon="4.93105">
        <ele>544.9</ele>
        <time>2017-06-05T06:34:59.000Z</time>
      </trkpt>
      <trkpt lat="47.26016" lon="4.9311">
        <ele>544.5</ele>
        <time>2017-06-05T06:35:04.000Z</time>
      </trkpt>
      <trkpt lat="47.2603" lon="4.93119">
        <ele>544.2</ele>
        <time>2017-06-05T06:35:09.000Z</time>
      </trkpt>
      <trkpt lat="47.26045" lon="4.93127">
        <ele>543.5</ele>
        <time>2017-06-05T06:35:14.000Z</time>
      </trkpt>
      <trkpt lat="47.26053" lon="4.93132">
        <ele>543.2</ele>
        <time>2017-06-05T06:35:17.000Z</time>
      </trkpt>
      <trkpt lat="47.26065" lon="4.93137">
        <ele>543.2</ele>
        <time>2017-06-05T06:35:21.000Z</time>
      </trkpt>
      <trkpt lat="47.26078" lon="4.93142">
        <ele>542.1</ele>
        <time>2017-06-05T06:35:26.000Z</time>
      </trkpt>
      <trkpt lat="47.26087" lon="4.93145">
        <ele>542</ele>
        <time>2017-06-05T06:35:29.000Z</time>
      </trkpt>
      <trkpt lat="47.26099" lon="4.93147">
        <ele>541.4</ele>
        <time>2017-06-05T06:35:33.000Z</time>
      </trkpt>
      <trkpt lat="47.26107" lon="4.93138">
        <ele>539.4</ele>
        <time>2017-06-05T06:35:37.000Z</time>
      </trkpt>
      <trkpt lat="47.26115" lon="4.93133">
        <ele>537.6</ele>
        <time>2017-06-05T06:35:40.000Z</time>
      </trkpt>
      <trkpt lat="47.26127" lon="4.93126">
        <ele>535.7</ele>
        <time>2017-06-05T06:35:44.000Z</time>
      </trkpt>
      <trkpt lat="47.2614" lon="4.93122">
        <ele>534.6</ele>
        <time>2017-06-05T06:35:49.000Z</time>
      </trkpt>
      <trkpt lat="47.26151" lon="4.93125">
        <ele>534.1</ele>
        <time>2017-06-05T06:35:53.000Z</time>
      </trkpt>
      <trkpt lat="47.26167" lon="4.9313">
        <ele>532.3</ele>
        <time>2017-06-05T06:35:59.000Z</time>
      </trkpt>
      <trkpt lat="47.26178" lon="4.93133">
        <ele>531.9</ele>
        <time>2017-06-05T06:36:03.000Z</time>
      </trkpt>
      <trkpt lat="47.26189" lon="4.93134">
        <ele>531.2</ele>
        <time>2017-06-05T06:36:09.000Z</time>
      </trkpt>
      <trkpt lat="47.26197" lon="4.93134">
        <ele>525.9</ele>
        <time>2017-06-05T06:38:10.000Z</time>
      </trkpt>
      <trkpt lat="47.26212" lon="4.93138">
        <ele>525.5</ele>
        <time>2017-06-05T06:38:15.000Z</time>
      </trkpt>
      <trkpt lat="47.26226" lon="4.93143">
        <ele>525.4</ele>
        <time>2017-06-05T06:38:19.000Z</time>
      </trkpt>
      <trkpt lat="47.26236" lon="4.93146">
        <ele>525.3</ele>
        <time>2017-06-05T06:38:22.000Z</time>
      </trkpt>
      <trkpt lat="47.26248" lon="4.9315">
        <ele>525.2</ele>
        <time>2017-06-05T06:38:26.000Z</time>
      </trkpt>
      <trkpt lat="47.2626" lon="4.93153">
        <ele>525</ele>
        <time>2017-06-05T06:38:30.000Z</time>
      </trkpt>
      <trkpt lat="47.26271" lon="4.93157">
        <ele>524.9</ele>
        <time>2017-06-05T06:38:33.000Z</time>
      </trkpt>
      <trkpt lat="47.26286" lon="4.93161">
        <ele>524.7</ele>
        <time>2017-06-05T06:38:37.000Z</time>
      </trkpt>
      <trkpt lat="47.26301" lon="4.93167">
        <ele>524.6</ele>
        <time>2017-06-05T06:38:41.000Z</time>
      </trkpt>
      <trkpt lat="47.26318" lon="4.93172">
        <ele>524.4</ele>
        <time>2017-06-05T06:38:45.000Z</time>
      </trkpt>
      <trkpt lat="47.26327" lon="4.93176">
        <ele>524.4</ele>
        <time>2017-06-05T06:38:47.000Z</time>
      </trkpt>
      <trkpt lat="47.26343" lon="4.93183">
        <ele>524.2</ele>
        <time>2017-06-05T06:38:51.000Z</time>
      </trkpt>
      <trkpt lat="47.2636" lon="4.9319">
        <ele>524</ele>
        <time>2017-06-05T06:38:55.000Z</time>
      </trkpt>
      <trkpt lat="47.26371" lon="4.93199">
        <ele>523.7</ele>
        <time>2017-06-05T06:38:58.000Z</time>
      </trkpt>
      <trkpt lat="47.26378" lon="4.93207">
        <ele>523.6</ele>
        <time>2017-06-05T06:39:00.000Z</time>
      </trkpt>
      <trkpt lat="47.26392" lon="4.93221">
        <ele>523.8</ele>
        <time>2017-06-05T06:39:04.000Z</time>
      </trkpt>
      <trkpt lat="47.26402" lon="4.93229">
        <ele>524.2</ele>
        <time>2017-06-05T06:39:07.000Z</time>
      </trkpt>
      <trkpt lat="47.26413" lon="4.93226">
        <ele>525.7</ele>
        <time>2017-06-05T06:39:11.000Z</time>
      </trkpt>
      <trkpt lat="47.26413" lon="4.9321">
        <ele>526.4</ele>
        <time>2017-06-05T06:39:15.000Z</time>
      </trkpt>
      <trkpt lat="47.26417" lon="4.93194">
        <ele>527.2</ele>
        <time>2017-06-05T06:39:18.000Z</time>
      </trkpt>
      <trkpt lat="47.26423" lon="4.93178">
        <ele>527.2</ele>
        <time>2017-06-05T06:39:21.000Z</time>
      </trkpt>
      <trkpt lat="47.2643" lon="4.93155">
        <ele>526.7</ele>
        <time>2017-06-05T06:39:25.000Z</time>
      </trkpt>
      <trkpt lat="47.26433" lon="4.93143">
        <ele>526.5</ele>
        <time>2017-06-05T06:39:27.000Z</time>
      </trkpt>
      <trkpt lat="47.26436" lon="4.9313">
        <ele>526.5</ele>
        <time>2017-06-05T06:39:29.000Z</time>
      </trkpt>
      <trkpt lat="47.26439" lon="4.93084">
        <ele>526.1</ele>
        <time>2017-06-05T06:39:36.000Z</time>
      </trkpt>
      <trkpt lat="47.26441" lon="4.93057">
        <ele>525.9</ele>
        <time>2017-06-05T06:39:40.000Z</time>
      </trkpt>
      <trkpt lat="47.26442" lon="4.93042">
        <ele>524.8</ele>
        <time>2017-06-05T06:39:42.000Z</time>
      </trkpt>
      <trkpt lat="47.26444" lon="4.93025">
        <ele>524</ele>
        <time>2017-06-05T06:39:44.000Z</time>
      </trkpt>
      <trkpt lat="47.26445" lon="4.93008">
        <ele>523.1</ele>
        <time>2017-06-05T06:39:46.000Z</time>
      </trkpt>
      <trkpt lat="47.26447" lon="4.92989">
        <ele>522.1</ele>
        <time>2017-06-05T06:39:48.000Z</time>
      </trkpt>
      <trkpt lat="47.26449" lon="4.92969">
        <ele>521.3</ele>
        <time>2017-06-05T06:39:50.000Z</time>
      </trkpt>
      <trkpt lat="47.26451" lon="4.92949">
        <ele>520.5</ele>
        <time>2017-06-05T06:39:52.000Z</time>
      </trkpt>
      <trkpt lat="47.26453" lon="4.9293">
        <ele>520.4</ele>
        <time>2017-06-05T06:39:54.000Z</time>
      </trkpt>
      <trkpt lat="47.26456" lon="4.92902">
        <ele>520.6</ele>
        <time>2017-06-05T06:39:57.000Z</time>
      </trkpt>
      <trkpt lat="47.26457" lon="4.92879">
        <ele>520.8</ele>
        <time>2017-06-05T06:40:00.000Z</time>
      </trkpt>
      <trkpt lat="47.26458" lon="4.92857">
        <ele>520.9</ele>
        <time>2017-06-05T06:40:03.000Z</time>
      </trkpt>
      <trkpt lat="47.26458" lon="4.92841">
        <ele>521</ele>
        <time>2017-06-05T06:40:05.000Z</time>
      </trkpt>
      <trkpt lat="47.2646" lon="4.92827">
        <ele>521.1</ele>
        <time>2017-06-05T06:40:07.000Z</time>
      </trkpt>
      <trkpt lat="47.26462" lon="4.92813">
        <ele>521.2</ele>
        <time>2017-06-05T06:40:09.000Z</time>
      </trkpt>
      <trkpt lat="47.26464" lon="4.928">
        <ele>521.4</ele>
        <time>2017-06-05T06:40:11.000Z</time>
      </trkpt>
      <trkpt lat="47.26466" lon="4.92786">
        <ele>521.3</ele>
        <time>2017-06-05T06:40:13.000Z</time>
      </trkpt>
      <trkpt lat="47.26469" lon="4.92772">
        <ele>521.3</ele>
        <time>2017-06-05T06:40:15.000Z</time>
      </trkpt>
      <trkpt lat="47.26473" lon="4.9275">
        <ele>521.1</ele>
        <time>2017-06-05T06:40:18.000Z</time>
      </trkpt>
      <trkpt lat="47.26476" lon="4.92727">
        <ele>521</ele>
        <time>2017-06-05T06:40:21.000Z</time>
      </trkpt>
      <trkpt lat="47.26478" lon="4.92712">
        <ele>520.8</ele>
        <time>2017-06-05T06:40:23.000Z</time>
      </trkpt>
      <trkpt lat="47.2648" lon="4.92697">
        <ele>520.6</ele>
        <time>2017-06-05T06:40:25.000Z</time>
      </trkpt>
      <trkpt lat="47.26483" lon="4.9268">
        <ele>520.2</ele>
        <time>2017-06-05T06:40:27.000Z</time>
      </trkpt>
      <trkpt lat="47.26486" lon="4.92661">
        <ele>519.9</ele>
        <time>2017-06-05T06:40:29.000Z</time>
      </trkpt>
      <trkpt lat="47.26491" lon="4.92636">
        <ele>519.7</ele>
        <time>2017-06-05T06:40:32.000Z</time>
      </trkpt>
      <trkpt lat="47.26495" lon="4.92619">
        <ele>519</ele>
        <time>2017-06-05T06:40:34.000Z</time>
      </trkpt>
      <trkpt lat="47.26498" lon="4.92602">
        <ele>518.8</ele>
        <time>2017-06-05T06:40:36.000Z</time>
      </trkpt>
      <trkpt lat="47.265" lon="4.92579">
        <ele>518.2</ele>
        <time>2017-06-05T06:40:39.000Z</time>
      </trkpt>
      <trkpt lat="47.26498" lon="4.92564">
        <ele>518</ele>
        <time>2017-06-05T06:40:41.000Z</time>
      </trkpt>
      <trkpt lat="47.26496" lon="4.9255">
        <ele>517.7</ele>
        <time>2017-06-05T06:40:43.000Z</time>
      </trkpt>
      <trkpt lat="47.26491" lon="4.92534">
        <ele>517.2</ele>
        <time>2017-06-05T06:40:47.000Z</time>
      </trkpt>
      <trkpt lat="47.26483" lon="4.92521">
        <ele>516.7</ele>
        <time>2017-06-05T06:40:51.000Z</time>
      </trkpt>
      <trkpt lat="47.26477" lon="4.92509">
        <ele>516.2</ele>
        <time>2017-06-05T06:40:54.000Z</time>
      </trkpt>
      <trkpt lat="47.26474" lon="4.92489">
        <ele>515</ele>
        <time>2017-06-05T06:40:59.000Z</time>
      </trkpt>
      <trkpt lat="47.26476" lon="4.92472">
        <ele>514.8</ele>
        <time>2017-06-05T06:41:03.000Z</time>
      </trkpt>
      <trkpt lat="47.26477" lon="4.92454">
        <ele>514.3</ele>
        <time>2017-06-05T06:41:06.000Z</time>
      </trkpt>
      <trkpt lat="47.26476" lon="4.92438">
        <ele>514.1</ele>
        <time>2017-06-05T06:41:09.000Z</time>
      </trkpt>
      <trkpt lat="47.26475" lon="4.92421">
        <ele>514.2</ele>
        <time>2017-06-05T06:41:14.000Z</time>
      </trkpt>
      <trkpt lat="47.26476" lon="4.92403">
        <ele>515.1</ele>
        <time>2017-06-05T06:41:19.000Z</time>
      </trkpt>
      <trkpt lat="47.26473" lon="4.92388">
        <ele>515.7</ele>
        <time>2017-06-05T06:41:24.000Z</time>
      </trkpt>
      <trkpt lat="47.26463" lon="4.92375">
        <ele>517.7</ele>
        <time>2017-06-05T06:41:30.000Z</time>
      </trkpt>
      <trkpt lat="47.26462" lon="4.9236">
        <ele>519.1</ele>
        <time>2017-06-05T06:41:33.000Z</time>
      </trkpt>
      <trkpt lat="47.26461" lon="4.9234">
        <ele>520.6</ele>
        <time>2017-06-05T06:41:38.000Z</time>
      </trkpt>
      <trkpt lat="47.26461" lon="4.92327">
        <ele>521.6</ele>
        <time>2017-06-05T06:41:42.000Z</time>
      </trkpt>
      <trkpt lat="47.26464" lon="4.9231">
        <ele>523.9</ele>
        <time>2017-06-05T06:41:47.000Z</time>
      </trkpt>
      <trkpt lat="47.26468" lon="4.92292">
        <ele>526.7</ele>
        <time>2017-06-05T06:41:53.000Z</time>
      </trkpt>
      <trkpt lat="47.26468" lon="4.92277">
        <ele>529.9</ele>
        <time>2017-06-05T06:41:58.000Z</time>
      </trkpt>
      <trkpt lat="47.26468" lon="4.92263">
        <ele>531.9</ele>
        <time>2017-06-05T06:42:02.000Z</time>
      </trkpt>
      <trkpt lat="47.26464" lon="4.92249">
        <ele>534.9</ele>
        <time>2017-06-05T06:42:09.000Z</time>
      </trkpt>
      <trkpt lat="47.26461" lon="4.92235">
        <ele>539.1</ele>
        <time>2017-06-05T06:42:17.000Z</time>
      </trkpt>
      <trkpt lat="47.26455" lon="4.92222">
        <ele>541.7</ele>
        <time>2017-06-05T06:42:22.000Z</time>
      </trkpt>
      <trkpt lat="47.26448" lon="4.92206">
        <ele>544.8</ele>
        <time>2017-06-05T06:42:27.000Z</time>
      </trkpt>
      <trkpt lat="47.26446" lon="4.92191">
        <ele>546.7</ele>
        <time>2017-06-05T06:42:30.000Z</time>
      </trkpt>
      <trkpt lat="47.26443" lon="4.92174">
        <ele>547.8</ele>
        <time>2017-06-05T06:42:33.000Z</time>
      </trkpt>
      <trkpt lat="47.26441" lon="4.9216">
        <ele>549.2</ele>
        <time>2017-06-05T06:42:36.000Z</time>
      </trkpt>
      <trkpt lat="47.26436" lon="4.92143">
        <ele>551.3</ele>
        <time>2017-06-05T06:42:40.000Z</time>
      </trkpt>
      <trkpt lat="47.26429" lon="4.92126">
        <ele>553.8</ele>
        <time>2017-06-05T06:42:45.000Z</time>
      </trkpt>
      <trkpt lat="47.26424" lon="4.92112">
        <ele>555.4</ele>
        <time>2017-06-05T06:42:49.000Z</time>
      </trkpt>
      <trkpt lat="47.26419" lon="4.92095">
        <ele>555.8</ele>
        <time>2017-06-05T06:42:53.000Z</time>
      </trkpt>
      <trkpt lat="47.26414" lon="4.92078">
        <ele>555.1</ele>
        <time>2017-06-05T06:42:57.000Z</time>
      </trkpt>
      <trkpt lat="47.26403" lon="4.92048">
        <ele>556.6</ele>
        <time>2017-06-05T06:43:05.000Z</time>
      </trkpt>
      <trkpt lat="47.26402" lon="4.92027">
        <ele>558.2</ele>
        <time>2017-06-05T06:43:11.000Z</time>
      </trkpt>
      <trkpt lat="47.264" lon="4.92013">
        <ele>560.1</ele>
        <time>2017-06-05T06:43:16.000Z</time>
      </trkpt>
      <trkpt lat="47.26395" lon="4.91996">
        <ele>562.3</ele>
        <time>2017-06-05T06:43:23.000Z</time>
      </trkpt>
      <trkpt lat="47.26393" lon="4.91982">
        <ele>564.2</ele>
        <time>2017-06-05T06:43:27.000Z</time>
      </trkpt>
      <trkpt lat="47.26386" lon="4.91966">
        <ele>566.6</ele>
        <time>2017-06-05T06:43:33.000Z</time>
      </trkpt>
      <trkpt lat="47.26377" lon="4.91952">
        <ele>568.1</ele>
        <time>2017-06-05T06:43:38.000Z</time>
      </trkpt>
      <trkpt lat="47.26372" lon="4.91934">
        <ele>568.6</ele>
        <time>2017-06-05T06:43:41.000Z</time>
      </trkpt>
      <trkpt lat="47.26365" lon="4.91912">
        <ele>570.3</ele>
        <time>2017-06-05T06:43:45.000Z</time>
      </trkpt>
      <trkpt lat="47.26355" lon="4.91893">
        <ele>572.1</ele>
        <time>2017-06-05T06:43:49.000Z</time>
      </trkpt>
      <trkpt lat="47.26345" lon="4.9188">
        <ele>573.2</ele>
        <time>2017-06-05T06:43:53.000Z</time>
      </trkpt>
      <trkpt lat="47.26337" lon="4.91861">
        <ele>575.4</ele>
        <time>2017-06-05T06:43:58.000Z</time>
      </trkpt>
      <trkpt lat="47.26341" lon="4.91846">
        <ele>579.3</ele>
        <time>2017-06-05T06:44:03.000Z</time>
      </trkpt>
      <trkpt lat="47.26344" lon="4.9183">
        <ele>582.1</ele>
        <time>2017-06-05T06:44:07.000Z</time>
      </trkpt>
      <trkpt lat="47.26336" lon="4.91814">
        <ele>577.9</ele>
        <time>2017-06-05T06:44:09.000Z</time>
      </trkpt>
      <trkpt lat="47.26341" lon="4.91801">
        <ele>574.2</ele>
        <time>2017-06-05T06:44:16.000Z</time>
      </trkpt>
      <trkpt lat="47.2635" lon="4.91795">
        <ele>571.4</ele>
        <time>2017-06-05T06:44:21.000Z</time>
      </trkpt>
      <trkpt lat="47.26395" lon="4.91787">
        <ele>548.4</ele>
        <time>2017-06-05T06:44:50.000Z</time>
      </trkpt>
      <trkpt lat="47.26405" lon="4.91788">
        <ele>550.4</ele>
        <time>2017-06-05T06:45:02.000Z</time>
      </trkpt>
      <trkpt lat="47.26416" lon="4.91788">
        <ele>551.2</ele>
        <time>2017-06-05T06:45:13.000Z</time>
      </trkpt>
      <trkpt lat="47.26426" lon="4.91791">
        <ele>551.6</ele>
        <time>2017-06-05T06:45:25.000Z</time>
      </trkpt>
      <trkpt lat="47.26436" lon="4.91788">
        <ele>551.5</ele>
        <time>2017-06-05T06:45:36.000Z</time>
      </trkpt>
      <trkpt lat="47.26445" lon="4.91785">
        <ele>551.8</ele>
        <time>2017-06-05T06:45:44.000Z</time>
      </trkpt>
      <trkpt lat="47.26456" lon="4.91783">
        <ele>552.1</ele>
        <time>2017-06-05T06:45:53.000Z</time>
      </trkpt>
      <trkpt lat="47.26461" lon="4.91768">
        <ele>552.3</ele>
        <time>2017-06-05T06:46:06.000Z</time>
      </trkpt>
      <trkpt lat="47.26466" lon="4.9175">
        <ele>552.6</ele>
        <time>2017-06-05T06:46:12.000Z</time>
      </trkpt>
      <trkpt lat="47.26468" lon="4.91736">
        <ele>552.5</ele>
        <time>2017-06-05T06:46:15.000Z</time>
      </trkpt>
      <trkpt lat="47.26469" lon="4.91722">
        <ele>552.5</ele>
        <time>2017-06-05T06:46:18.000Z</time>
      </trkpt>
      <trkpt lat="47.26478" lon="4.91703">
        <ele>552.5</ele>
        <time>2017-06-05T06:46:23.000Z</time>
      </trkpt>
      <trkpt lat="47.26492" lon="4.91687">
        <ele>552.4</ele>
        <time>2017-06-05T06:46:27.000Z</time>
      </trkpt>
      <trkpt lat="47.265" lon="4.91669">
        <ele>550.6</ele>
        <time>2017-06-05T06:46:30.000Z</time>
      </trkpt>
      <trkpt lat="47.2651" lon="4.91658">
        <ele>550.1</ele>
        <time>2017-06-05T06:46:32.000Z</time>
      </trkpt>
      <trkpt lat="47.26519" lon="4.9165">
        <ele>549.8</ele>
        <time>2017-06-05T06:46:34.000Z</time>
      </trkpt>
      <trkpt lat="47.26528" lon="4.91639">
        <ele>548.9</ele>
        <time>2017-06-05T06:46:36.000Z</time>
      </trkpt>
      <trkpt lat="47.26547" lon="4.91627">
        <ele>546.2</ele>
        <time>2017-06-05T06:46:39.000Z</time>
      </trkpt>
      <trkpt lat="47.26556" lon="4.91622">
        <ele>545.4</ele>
        <time>2017-06-05T06:46:41.000Z</time>
      </trkpt>
      <trkpt lat="47.26567" lon="4.91619">
        <ele>543.7</ele>
        <time>2017-06-05T06:46:43.000Z</time>
      </trkpt>
      <trkpt lat="47.26581" lon="4.91615">
        <ele>542</ele>
        <time>2017-06-05T06:46:46.000Z</time>
      </trkpt>
      <trkpt lat="47.26593" lon="4.9161">
        <ele>541.4</ele>
        <time>2017-06-05T06:46:49.000Z</time>
      </trkpt>
      <trkpt lat="47.26611" lon="4.91603">
        <ele>541.4</ele>
        <time>2017-06-05T06:46:53.000Z</time>
      </trkpt>
      <trkpt lat="47.26619" lon="4.91598">
        <ele>541.3</ele>
        <time>2017-06-05T06:46:55.000Z</time>
      </trkpt>
      <trkpt lat="47.26637" lon="4.91591">
        <ele>541.9</ele>
        <time>2017-06-05T06:46:59.000Z</time>
      </trkpt>
      <trkpt lat="47.26648" lon="4.91585">
        <ele>542.4</ele>
        <time>2017-06-05T06:47:02.000Z</time>
      </trkpt>
      <trkpt lat="47.26665" lon="4.91576">
        <ele>543.1</ele>
        <time>2017-06-05T06:47:06.000Z</time>
      </trkpt>
      <trkpt lat="47.26677" lon="4.91571">
        <ele>543.8</ele>
        <time>2017-06-05T06:47:09.000Z</time>
      </trkpt>
      <trkpt lat="47.26688" lon="4.91567">
        <ele>544.2</ele>
        <time>2017-06-05T06:47:12.000Z</time>
      </trkpt>
      <trkpt lat="47.26703" lon="4.91565">
        <ele>543.7</ele>
        <time>2017-06-05T06:47:16.000Z</time>
      </trkpt>
      <trkpt lat="47.26714" lon="4.91563">
        <ele>543.6</ele>
        <time>2017-06-05T06:47:19.000Z</time>
      </trkpt>
      <trkpt lat="47.26729" lon="4.91562">
        <ele>544.3</ele>
        <time>2017-06-05T06:47:23.000Z</time>
      </trkpt>
      <trkpt lat="47.26742" lon="4.91565">
        <ele>544.4</ele>
        <time>2017-06-05T06:47:27.000Z</time>
      </trkpt>
      <trkpt lat="47.26754" lon="4.91566">
        <ele>545.6</ele>
        <time>2017-06-05T06:47:31.000Z</time>
      </trkpt>
      <trkpt lat="47.26769" lon="4.91566">
        <ele>550.3</ele>
        <time>2017-06-05T06:47:36.000Z</time>
      </trkpt>
      <trkpt lat="47.2678" lon="4.91566">
        <ele>556.3</ele>
        <time>2017-06-05T06:47:41.000Z</time>
      </trkpt>
      <trkpt lat="47.26791" lon="4.91568">
        <ele>562.2</ele>
        <time>2017-06-05T06:47:47.000Z</time>
      </trkpt>
      <trkpt lat="47.26811" lon="4.91565">
        <ele>565.4</ele>
        <time>2017-06-05T06:47:51.000Z</time>
      </trkpt>
      <trkpt lat="47.2683" lon="4.91568">
        <ele>564</ele>
        <time>2017-06-05T06:47:54.000Z</time>
      </trkpt>
      <trkpt lat="47.26842" lon="4.9157">
        <ele>565.6</ele>
        <time>2017-06-05T06:47:57.000Z</time>
      </trkpt>
      <trkpt lat="47.26862" lon="4.91577">
        <ele>566.9</ele>
        <time>2017-06-05T06:48:02.000Z</time>
      </trkpt>
      <trkpt lat="47.2687" lon="4.91586">
        <ele>562.6</ele>
        <time>2017-06-05T06:48:04.000Z</time>
      </trkpt>
      <trkpt lat="47.26882" lon="4.91591">
        <ele>562.5</ele>
        <time>2017-06-05T06:48:07.000Z</time>
      </trkpt>
      <trkpt lat="47.26899" lon="4.91596">
        <ele>561.5</ele>
        <time>2017-06-05T06:48:11.000Z</time>
      </trkpt>
      <trkpt lat="47.26915" lon="4.916">
        <ele>561.6</ele>
        <time>2017-06-05T06:48:15.000Z</time>
      </trkpt>
      <trkpt lat="47.26929" lon="4.91606">
        <ele>560</ele>
        <time>2017-06-05T06:48:19.000Z</time>
      </trkpt>
      <trkpt lat="47.26948" lon="4.91615">
        <ele>558.4</ele>
        <time>2017-06-05T06:48:23.000Z</time>
      </trkpt>
      <trkpt lat="47.26957" lon="4.91618">
        <ele>558.8</ele>
        <time>2017-06-05T06:48:25.000Z</time>
      </trkpt>
      <trkpt lat="47.26972" lon="4.91625">
        <ele>561.1</ele>
        <time>2017-06-05T06:48:29.000Z</time>
      </trkpt>
      <trkpt lat="47.26981" lon="4.91629">
        <ele>561.7</ele>
        <time>2017-06-05T06:48:31.000Z</time>
      </trkpt>
      <trkpt lat="47.26999" lon="4.91638">
        <ele>562.2</ele>
        <time>2017-06-05T06:48:35.000Z</time>
      </trkpt>
      <trkpt lat="47.27015" lon="4.91644">
        <ele>562</ele>
        <time>2017-06-05T06:48:39.000Z</time>
      </trkpt>
      <trkpt lat="47.27031" lon="4.91649">
        <ele>563.6</ele>
        <time>2017-06-05T06:48:43.000Z</time>
      </trkpt>
      <trkpt lat="47.27041" lon="4.91653">
        <ele>564</ele>
        <time>2017-06-05T06:48:45.000Z</time>
      </trkpt>
      <trkpt lat="47.27059" lon="4.91658">
        <ele>564.5</ele>
        <time>2017-06-05T06:48:50.000Z</time>
      </trkpt>
      <trkpt lat="47.27072" lon="4.91657">
        <ele>564.8</ele>
        <time>2017-06-05T06:48:53.000Z</time>
      </trkpt>
      <trkpt lat="47.27088" lon="4.9167">
        <ele>566</ele>
        <time>2017-06-05T06:48:57.000Z</time>
      </trkpt>
      <trkpt lat="47.27097" lon="4.91675">
        <ele>565.7</ele>
        <time>2017-06-05T06:48:59.000Z</time>
      </trkpt>
      <trkpt lat="47.27109" lon="4.91682">
        <ele>565.4</ele>
        <time>2017-06-05T06:49:03.000Z</time>
      </trkpt>
      <trkpt lat="47.27122" lon="4.91691">
        <ele>568</ele>
        <time>2017-06-05T06:49:08.000Z</time>
      </trkpt>
      <trkpt lat="47.27131" lon="4.91702">
        <ele>571.4</ele>
        <time>2017-06-05T06:49:12.000Z</time>
      </trkpt>
      <trkpt lat="47.27139" lon="4.91709">
        <ele>574.1</ele>
        <time>2017-06-05T06:49:15.000Z</time>
      </trkpt>
      <trkpt lat="47.27156" lon="4.91712">
        <ele>579.1</ele>
        <time>2017-06-05T06:49:21.000Z</time>
      </trkpt>
      <trkpt lat="47.27168" lon="4.91719">
        <ele>579.5</ele>
        <time>2017-06-05T06:49:25.000Z</time>
      </trkpt>
      <trkpt lat="47.27184" lon="4.91723">
        <ele>576.9</ele>
        <time>2017-06-05T06:49:27.000Z</time>
      </trkpt>
      <trkpt lat="47.27197" lon="4.91728">
        <ele>573.3</ele>
        <time>2017-06-05T06:49:29.000Z</time>
      </trkpt>
      <trkpt lat="47.27208" lon="4.91731">
        <ele>568.6</ele>
        <time>2017-06-05T06:49:31.000Z</time>
      </trkpt>
      <trkpt lat="47.27226" lon="4.9175">
        <ele>558.9</ele>
        <time>2017-06-05T06:49:34.000Z</time>
      </trkpt>
      <trkpt lat="47.27236" lon="4.91764">
        <ele>554.3</ele>
        <time>2017-06-05T06:49:36.000Z</time>
      </trkpt>
      <trkpt lat="47.27251" lon="4.91786">
        <ele>546.3</ele>
        <time>2017-06-05T06:49:39.000Z</time>
      </trkpt>
      <trkpt lat="47.27267" lon="4.91812">
        <ele>538</ele>
        <time>2017-06-05T06:49:42.000Z</time>
      </trkpt>
      <trkpt lat="47.27277" lon="4.91827">
        <ele>534</ele>
        <time>2017-06-05T06:49:44.000Z</time>
      </trkpt>
      <trkpt lat="47.27288" lon="4.91841">
        <ele>530.1</ele>
        <time>2017-06-05T06:49:46.000Z</time>
      </trkpt>
      <trkpt lat="47.273" lon="4.91856">
        <ele>526.6</ele>
        <time>2017-06-05T06:49:48.000Z</time>
      </trkpt>
      <trkpt lat="47.27312" lon="4.9187">
        <ele>523.5</ele>
        <time>2017-06-05T06:49:50.000Z</time>
      </trkpt>
      <trkpt lat="47.2733" lon="4.9189">
        <ele>519.5</ele>
        <time>2017-06-05T06:49:53.000Z</time>
      </trkpt>
      <trkpt lat="47.27343" lon="4.91904">
        <ele>517.2</ele>
        <time>2017-06-05T06:49:55.000Z</time>
      </trkpt>
      <trkpt lat="47.27355" lon="4.91918">
        <ele>515</ele>
        <time>2017-06-05T06:49:57.000Z</time>
      </trkpt>
      <trkpt lat="47.27365" lon="4.91931">
        <ele>513</ele>
        <time>2017-06-05T06:49:59.000Z</time>
      </trkpt>
      <trkpt lat="47.27374" lon="4.91943">
        <ele>511.6</ele>
        <time>2017-06-05T06:50:01.000Z</time>
      </trkpt>
      <trkpt lat="47.27383" lon="4.91955">
        <ele>508.8</ele>
        <time>2017-06-05T06:50:03.000Z</time>
      </trkpt>
      <trkpt lat="47.27406" lon="4.91981">
        <ele>502.6</ele>
        <time>2017-06-05T06:50:09.000Z</time>
      </trkpt>
      <trkpt lat="47.27419" lon="4.91984">
        <ele>501.4</ele>
        <time>2017-06-05T06:50:13.000Z</time>
      </trkpt>
      <trkpt lat="47.27436" lon="4.91982">
        <ele>498.7</ele>
        <time>2017-06-05T06:50:17.000Z</time>
      </trkpt>
      <trkpt lat="47.2745" lon="4.91981">
        <ele>495.9</ele>
        <time>2017-06-05T06:50:19.000Z</time>
      </trkpt>
      <trkpt lat="47.27465" lon="4.91981">
        <ele>492.9</ele>
        <time>2017-06-05T06:50:21.000Z</time>
      </trkpt>
      <trkpt lat="47.27479" lon="4.91978">
        <ele>489.7</ele>
        <time>2017-06-05T06:50:23.000Z</time>
      </trkpt>
      <trkpt lat="47.27491" lon="4.91975">
        <ele>487.8</ele>
        <time>2017-06-05T06:50:25.000Z</time>
      </trkpt>
      <trkpt lat="47.27501" lon="4.91972">
        <ele>482</ele>
        <time>2017-06-05T06:50:29.000Z</time>
      </trkpt>
      <trkpt lat="47.27512" lon="4.91977">
        <ele>480.9</ele>
        <time>2017-06-05T06:50:47.000Z</time>
      </trkpt>
      <trkpt lat="47.27531" lon="4.91989">
        <ele>479.5</ele>
        <time>2017-06-05T06:50:56.000Z</time>
      </trkpt>
      <trkpt lat="47.27544" lon="4.91995">
        <ele>478.4</ele>
        <time>2017-06-05T06:51:00.000Z</time>
      </trkpt>
      <trkpt lat="47.27554" lon="4.92003">
        <ele>477.6</ele>
        <time>2017-06-05T06:51:03.000Z</time>
      </trkpt>
      <trkpt lat="47.27568" lon="4.92014">
        <ele>477</ele>
        <time>2017-06-05T06:51:07.000Z</time>
      </trkpt>
      <trkpt lat="47.27578" lon="4.92021">
        <ele>476.5</ele>
        <time>2017-06-05T06:51:10.000Z</time>
      </trkpt>
      <trkpt lat="47.27586" lon="4.92028">
        <ele>476.1</ele>
        <time>2017-06-05T06:51:13.000Z</time>
      </trkpt>
      <trkpt lat="47.276" lon="4.92038">
        <ele>475.6</ele>
        <time>2017-06-05T06:51:17.000Z</time>
      </trkpt>
      <trkpt lat="47.27611" lon="4.92047">
        <ele>475.1</ele>
        <time>2017-06-05T06:51:21.000Z</time>
      </trkpt>
      <trkpt lat="47.27622" lon="4.92055">
        <ele>474.6</ele>
        <time>2017-06-05T06:51:25.000Z</time>
      </trkpt>
      <trkpt lat="47.27632" lon="4.92064">
        <ele>474.7</ele>
        <time>2017-06-05T06:51:29.000Z</time>
      </trkpt>
      <trkpt lat="47.27643" lon="4.92077">
        <ele>474.8</ele>
        <time>2017-06-05T06:51:33.000Z</time>
      </trkpt>
      <trkpt lat="47.2766" lon="4.92097">
        <ele>474.8</ele>
        <time>2017-06-05T06:51:40.000Z</time>
      </trkpt>
      <trkpt lat="47.27671" lon="4.92104">
        <ele>474.9</ele>
        <time>2017-06-05T06:51:43.000Z</time>
      </trkpt>
      <trkpt lat="47.2768" lon="4.92107">
        <ele>474.9</ele>
        <time>2017-06-05T06:51:45.000Z</time>
      </trkpt>
      <trkpt lat="47.27692" lon="4.92117">
        <ele>474.9</ele>
        <time>2017-06-05T06:51:48.000Z</time>
      </trkpt>
      <trkpt lat="47.27699" lon="4.92127">
        <ele>474.8</ele>
        <time>2017-06-05T06:51:50.000Z</time>
      </trkpt>
      <trkpt lat="47.27706" lon="4.92137">
        <ele>474.6</ele>
        <time>2017-06-05T06:51:52.000Z</time>
      </trkpt>
      <trkpt lat="47.27713" lon="4.92147">
        <ele>474.5</ele>
        <time>2017-06-05T06:51:54.000Z</time>
      </trkpt>
      <trkpt lat="47.27723" lon="4.92159">
        <ele>474.7</ele>
        <time>2017-06-05T06:51:57.000Z</time>
      </trkpt>
      <trkpt lat="47.27737" lon="4.92169">
        <ele>475.2</ele>
        <time>2017-06-05T06:52:01.000Z</time>
      </trkpt>
      <trkpt lat="47.27751" lon="4.92176">
        <ele>475.7</ele>
        <time>2017-06-05T06:52:05.000Z</time>
      </trkpt>
      <trkpt lat="47.27762" lon="4.92182">
        <ele>475.1</ele>
        <time>2017-06-05T06:52:09.000Z</time>
      </trkpt>
      <trkpt lat="47.27771" lon="4.92186">
        <ele>474.6</ele>
        <time>2017-06-05T06:52:12.000Z</time>
      </trkpt>
      <trkpt lat="47.27781" lon="4.92182">
        <ele>473.8</ele>
        <time>2017-06-05T06:52:16.000Z</time>
      </trkpt>
      <trkpt lat="47.27786" lon="4.9217">
        <ele>473.1</ele>
        <time>2017-06-05T06:52:21.000Z</time>
      </trkpt>
      <trkpt lat="47.27787" lon="4.92152">
        <ele>472.7</ele>
        <time>2017-06-05T06:52:27.000Z</time>
      </trkpt>
      <trkpt lat="47.27785" lon="4.92134">
        <ele>472.4</ele>
        <time>2017-06-05T06:52:33.000Z</time>
      </trkpt>
      <trkpt lat="47.27782" lon="4.92116">
        <ele>472.3</ele>
        <time>2017-06-05T06:52:39.000Z</time>
      </trkpt>
      <trkpt lat="47.27778" lon="4.92101">
        <ele>472.3</ele>
        <time>2017-06-05T06:52:44.000Z</time>
      </trkpt>
      <trkpt lat="47.27774" lon="4.92087">
        <ele>472.4</ele>
        <time>2017-06-05T06:52:49.000Z</time>
      </trkpt>
      <trkpt lat="47.2777" lon="4.92068">
        <ele>472.8</ele>
        <time>2017-06-05T06:52:55.000Z</time>
      </trkpt>
      <trkpt lat="47.27766" lon="4.92052">
        <ele>473.2</ele>
        <time>2017-06-05T06:53:01.000Z</time>
      </trkpt>
      <trkpt lat="47.27764" lon="4.92038">
        <ele>473.7</ele>
        <time>2017-06-05T06:53:07.000Z</time>
      </trkpt>
      <trkpt lat="47.27763" lon="4.92024">
        <ele>474.7</ele>
        <time>2017-06-05T06:53:13.000Z</time>
      </trkpt>
      <trkpt lat="47.27763" lon="4.9201">
        <ele>476</ele>
        <time>2017-06-05T06:53:19.000Z</time>
      </trkpt>
      <trkpt lat="47.27764" lon="4.91995">
        <ele>476.9</ele>
        <time>2017-06-05T06:53:25.000Z</time>
      </trkpt>
      <trkpt lat="47.27769" lon="4.91979">
        <ele>478.7</ele>
        <time>2017-06-05T06:53:32.000Z</time>
      </trkpt>
      <trkpt lat="47.27774" lon="4.91966">
        <ele>480.9</ele>
        <time>2017-06-05T06:53:39.000Z</time>
      </trkpt>
      <trkpt lat="47.27782" lon="4.91957">
        <ele>483.1</ele>
        <time>2017-06-05T06:53:49.000Z</time>
      </trkpt>
      <trkpt lat="47.27787" lon="4.91945">
        <ele>483.4</ele>
        <time>2017-06-05T06:53:55.000Z</time>
      </trkpt>
      <trkpt lat="47.27794" lon="4.91935">
        <ele>484</ele>
        <time>2017-06-05T06:54:01.000Z</time>
      </trkpt>
      <trkpt lat="47.27799" lon="4.91924">
        <ele>484.7</ele>
        <time>2017-06-05T06:54:07.000Z</time>
      </trkpt>
      <trkpt lat="47.27805" lon="4.91913">
        <ele>485.1</ele>
        <time>2017-06-05T06:54:13.000Z</time>
      </trkpt>
      <trkpt lat="47.27812" lon="4.91902">
        <ele>486.4</ele>
        <time>2017-06-05T06:54:19.000Z</time>
      </trkpt>
      <trkpt lat="47.27817" lon="4.91891">
        <ele>487.8</ele>
        <time>2017-06-05T06:54:25.000Z</time>
      </trkpt>
      <trkpt lat="47.27824" lon="4.91876">
        <ele>488.6</ele>
        <time>2017-06-05T06:54:32.000Z</time>
      </trkpt>
      <trkpt lat="47.27831" lon="4.91863">
        <ele>489.4</ele>
        <time>2017-06-05T06:54:39.000Z</time>
      </trkpt>
      <trkpt lat="47.27837" lon="4.91849">
        <ele>490.9</ele>
        <time>2017-06-05T06:54:46.000Z</time>
      </trkpt>
      <trkpt lat="47.27842" lon="4.91838">
        <ele>491.9</ele>
        <time>2017-06-05T06:54:52.000Z</time>
      </trkpt>
      <trkpt lat="47.27846" lon="4.91823">
        <ele>493.2</ele>
        <time>2017-06-05T06:54:59.000Z</time>
      </trkpt>
      <trkpt lat="47.2785" lon="4.91808">
        <ele>494.5</ele>
        <time>2017-06-05T06:55:07.000Z</time>
      </trkpt>
      <trkpt lat="47.27851" lon="4.91792">
        <ele>496</ele>
        <time>2017-06-05T06:55:15.000Z</time>
      </trkpt>
      <trkpt lat="47.27851" lon="4.91776">
        <ele>497.8</ele>
        <time>2017-06-05T06:55:23.000Z</time>
      </trkpt>
      <trkpt lat="47.27852" lon="4.9176">
        <ele>500.3</ele>
        <time>2017-06-05T06:55:31.000Z</time>
      </trkpt>
      <trkpt lat="47.27853" lon="4.91745">
        <ele>502.1</ele>
        <time>2017-06-05T06:55:38.000Z</time>
      </trkpt>
      <trkpt lat="47.27854" lon="4.91728">
        <ele>503.2</ele>
        <time>2017-06-05T06:55:45.000Z</time>
      </trkpt>
      <trkpt lat="47.27856" lon="4.91711">
        <ele>504.5</ele>
        <time>2017-06-05T06:55:51.000Z</time>
      </trkpt>
      <trkpt lat="47.2786" lon="4.91698">
        <ele>505.5</ele>
        <time>2017-06-05T06:55:56.000Z</time>
      </trkpt>
      <trkpt lat="47.27865" lon="4.91684">
        <ele>506</ele>
        <time>2017-06-05T06:56:01.000Z</time>
      </trkpt>
      <trkpt lat="47.27875" lon="4.91668">
        <ele>508</ele>
        <time>2017-06-05T06:56:08.000Z</time>
      </trkpt>
      <trkpt lat="47.27887" lon="4.91661">
        <ele>506.9</ele>
        <time>2017-06-05T06:56:14.000Z</time>
      </trkpt>
      <trkpt lat="47.27898" lon="4.91661">
        <ele>507.2</ele>
        <time>2017-06-05T06:56:19.000Z</time>
      </trkpt>
      <trkpt lat="47.27902" lon="4.91649">
        <ele>508.9</ele>
        <time>2017-06-05T06:56:58.000Z</time>
      </trkpt>
      <trkpt lat="47.27912" lon="4.91652">
        <ele>508.5</ele>
        <time>2017-06-05T06:57:19.000Z</time>
      </trkpt>
      <trkpt lat="47.27922" lon="4.9165">
        <ele>508.1</ele>
        <time>2017-06-05T06:57:24.000Z</time>
      </trkpt>
      <trkpt lat="47.27934" lon="4.91644">
        <ele>508.2</ele>
        <time>2017-06-05T06:57:30.000Z</time>
      </trkpt>
      <trkpt lat="47.27944" lon="4.91639">
        <ele>508.5</ele>
        <time>2017-06-05T06:57:35.000Z</time>
      </trkpt>
      <trkpt lat="47.27956" lon="4.91637">
        <ele>509.6</ele>
        <time>2017-06-05T06:57:41.000Z</time>
      </trkpt>
      <trkpt lat="47.27966" lon="4.91637">
        <ele>510.5</ele>
        <time>2017-06-05T06:57:46.000Z</time>
      </trkpt>
      <trkpt lat="47.27973" lon="4.91644">
        <ele>511.2</ele>
        <time>2017-06-05T06:57:51.000Z</time>
      </trkpt>
      <trkpt lat="47.27981" lon="4.91655">
        <ele>512.4</ele>
        <time>2017-06-05T06:57:57.000Z</time>
      </trkpt>
      <trkpt lat="47.2799" lon="4.91662">
        <ele>513.8</ele>
        <time>2017-06-05T06:58:04.000Z</time>
      </trkpt>
      <trkpt lat="47.27998" lon="4.91672">
        <ele>515.3</ele>
        <time>2017-06-05T06:58:11.000Z</time>
      </trkpt>
      <trkpt lat="47.28007" lon="4.91681">
        <ele>516.3</ele>
        <time>2017-06-05T06:58:18.000Z</time>
      </trkpt>
      <trkpt lat="47.28014" lon="4.91691">
        <ele>517.8</ele>
        <time>2017-06-05T06:58:27.000Z</time>
      </trkpt>
      <trkpt lat="47.28011" lon="4.91704">
        <ele>514.8</ele>
        <time>2017-06-05T06:58:35.000Z</time>
      </trkpt>
      <trkpt lat="47.28005" lon="4.91714">
        <ele>513.5</ele>
        <time>2017-06-05T06:58:41.000Z</time>
      </trkpt>
      <trkpt lat="47.27998" lon="4.91724">
        <ele>513.1</ele>
        <time>2017-06-05T06:58:49.000Z</time>
      </trkpt>
      <trkpt lat="47.2799" lon="4.91732">
        <ele>514</ele>
        <time>2017-06-05T06:58:56.000Z</time>
      </trkpt>
      <trkpt lat="47.27981" lon="4.91735">
        <ele>515.2</ele>
        <time>2017-06-05T06:59:02.000Z</time>
      </trkpt>
      <trkpt lat="47.27976" lon="4.91748">
        <ele>520.7</ele>
        <time>2017-06-05T06:59:12.000Z</time>
      </trkpt>
      <trkpt lat="47.27969" lon="4.9176">
        <ele>523.7</ele>
        <time>2017-06-05T06:59:19.000Z</time>
      </trkpt>
      <trkpt lat="47.27964" lon="4.91771">
        <ele>525.6</ele>
        <time>2017-06-05T06:59:25.000Z</time>
      </trkpt>
      <trkpt lat="47.2796" lon="4.91789">
        <ele>526.2</ele>
        <time>2017-06-05T06:59:29.000Z</time>
      </trkpt>
      <trkpt lat="47.27952" lon="4.9181">
        <ele>527.3</ele>
        <time>2017-06-05T06:59:33.000Z</time>
      </trkpt>
      <trkpt lat="47.27948" lon="4.91824">
        <ele>528.2</ele>
        <time>2017-06-05T06:59:36.000Z</time>
      </trkpt>
      <trkpt lat="47.27943" lon="4.91844">
        <ele>529.6</ele>
        <time>2017-06-05T06:59:40.000Z</time>
      </trkpt>
      <trkpt lat="47.27938" lon="4.91858">
        <ele>530.3</ele>
        <time>2017-06-05T06:59:43.000Z</time>
      </trkpt>
      <trkpt lat="47.27935" lon="4.91874">
        <ele>530</ele>
        <time>2017-06-05T06:59:46.000Z</time>
      </trkpt>
      <trkpt lat="47.27931" lon="4.91894">
        <ele>530.3</ele>
        <time>2017-06-05T06:59:51.000Z</time>
      </trkpt>
      <trkpt lat="47.27933" lon="4.91915">
        <ele>531.9</ele>
        <time>2017-06-05T06:59:57.000Z</time>
      </trkpt>
      <trkpt lat="47.27936" lon="4.91934">
        <ele>533.6</ele>
        <time>2017-06-05T07:00:03.000Z</time>
      </trkpt>
      <trkpt lat="47.27938" lon="4.91949">
        <ele>534.9</ele>
        <time>2017-06-05T07:00:08.000Z</time>
      </trkpt>
      <trkpt lat="47.27943" lon="4.91963">
        <ele>536.4</ele>
        <time>2017-06-05T07:00:13.000Z</time>
      </trkpt>
      <trkpt lat="47.27947" lon="4.91978">
        <ele>537.8</ele>
        <time>2017-06-05T07:00:17.000Z</time>
      </trkpt>
      <trkpt lat="47.27952" lon="4.91998">
        <ele>539.1</ele>
        <time>2017-06-05T07:00:21.000Z</time>
      </trkpt>
      <trkpt lat="47.27959" lon="4.9202">
        <ele>539.3</ele>
        <time>2017-06-05T07:00:25.000Z</time>
      </trkpt>
      <trkpt lat="47.27968" lon="4.92045">
        <ele>539.4</ele>
        <time>2017-06-05T07:00:30.000Z</time>
      </trkpt>
      <trkpt lat="47.27973" lon="4.92065">
        <ele>539.8</ele>
        <time>2017-06-05T07:00:33.000Z</time>
      </trkpt>
      <trkpt lat="47.2798" lon="4.92079">
        <ele>540.3</ele>
        <time>2017-06-05T07:00:37.000Z</time>
      </trkpt>
      <trkpt lat="47.27989" lon="4.9209">
        <ele>542.3</ele>
        <time>2017-06-05T07:00:44.000Z</time>
      </trkpt>
      <trkpt lat="47.27996" lon="4.921">
        <ele>545.1</ele>
        <time>2017-06-05T07:00:51.000Z</time>
      </trkpt>
      <trkpt lat="47.28005" lon="4.92109">
        <ele>548</ele>
        <time>2017-06-05T07:00:59.000Z</time>
      </trkpt>
      <trkpt lat="47.28012" lon="4.9212">
        <ele>550.3</ele>
        <time>2017-06-05T07:01:05.000Z</time>
      </trkpt>
      <trkpt lat="47.28022" lon="4.9213">
        <ele>553.4</ele>
        <time>2017-06-05T07:01:17.000Z</time>
      </trkpt>
      <trkpt lat="47.28029" lon="4.92141">
        <ele>555</ele>
        <time>2017-06-05T07:01:24.000Z</time>
      </trkpt>
      <trkpt lat="47.28034" lon="4.92155">
        <ele>556.4</ele>
        <time>2017-06-05T07:01:30.000Z</time>
      </trkpt>
      <trkpt lat="47.28041" lon="4.92173">
        <ele>558.2</ele>
        <time>2017-06-05T07:01:35.000Z</time>
      </trkpt>
      <trkpt lat="47.28046" lon="4.92184">
        <ele>559.6</ele>
        <time>2017-06-05T07:01:39.000Z</time>
      </trkpt>
      <trkpt lat="47.28052" lon="4.92195">
        <ele>560.5</ele>
        <time>2017-06-05T07:01:43.000Z</time>
      </trkpt>
      <trkpt lat="47.28062" lon="4.92206">
        <ele>562.4</ele>
        <time>2017-06-05T07:01:49.000Z</time>
      </trkpt>
      <trkpt lat="47.28071" lon="4.92222">
        <ele>563.6</ele>
        <time>2017-06-05T07:01:55.000Z</time>
      </trkpt>
      <trkpt lat="47.28079" lon="4.92234">
        <ele>564.5</ele>
        <time>2017-06-05T07:01:59.000Z</time>
      </trkpt>
      <trkpt lat="47.28085" lon="4.92247">
        <ele>565.9</ele>
        <time>2017-06-05T07:02:03.000Z</time>
      </trkpt>
      <trkpt lat="47.28093" lon="4.92265">
        <ele>567.5</ele>
        <time>2017-06-05T07:02:07.000Z</time>
      </trkpt>
      <trkpt lat="47.28101" lon="4.92286">
        <ele>568.6</ele>
        <time>2017-06-05T07:02:11.000Z</time>
      </trkpt>
      <trkpt lat="47.28108" lon="4.92304">
        <ele>570.1</ele>
        <time>2017-06-05T07:02:15.000Z</time>
      </trkpt>
      <trkpt lat="47.28116" lon="4.92317">
        <ele>571.1</ele>
        <time>2017-06-05T07:02:18.000Z</time>
      </trkpt>
      <trkpt lat="47.28125" lon="4.92328">
        <ele>572.2</ele>
        <time>2017-06-05T07:02:21.000Z</time>
      </trkpt>
      <trkpt lat="47.28133" lon="4.92338">
        <ele>573.7</ele>
        <time>2017-06-05T07:02:25.000Z</time>
      </trkpt>
      <trkpt lat="47.28143" lon="4.92356">
        <ele>574.5</ele>
        <time>2017-06-05T07:02:29.000Z</time>
      </trkpt>
      <trkpt lat="47.28152" lon="4.92367">
        <ele>575.3</ele>
        <time>2017-06-05T07:02:33.000Z</time>
      </trkpt>
      <trkpt lat="47.28156" lon="4.92383">
        <ele>575.6</ele>
        <time>2017-06-05T07:02:35.000Z</time>
      </trkpt>
      <trkpt lat="47.28164" lon="4.92398">
        <ele>576.8</ele>
        <time>2017-06-05T07:02:39.000Z</time>
      </trkpt>
      <trkpt lat="47.28173" lon="4.92408">
        <ele>578.1</ele>
        <time>2017-06-05T07:02:43.000Z</time>
      </trkpt>
      <trkpt lat="47.28182" lon="4.92415">
        <ele>578</ele>
        <time>2017-06-05T07:02:45.000Z</time>
      </trkpt>
      <trkpt lat="47.28193" lon="4.92425">
        <ele>578.4</ele>
        <time>2017-06-05T07:02:49.000Z</time>
      </trkpt>
      <trkpt lat="47.28201" lon="4.92436">
        <ele>580.9</ele>
        <time>2017-06-05T07:02:57.000Z</time>
      </trkpt>
      <trkpt lat="47.28207" lon="4.92449">
        <ele>582.9</ele>
        <time>2017-06-05T07:03:02.000Z</time>
      </trkpt>
      <trkpt lat="47.28228" lon="4.92467">
        <ele>584.8</ele>
        <time>2017-06-05T07:03:09.000Z</time>
      </trkpt>
      <trkpt lat="47.28238" lon="4.92485">
        <ele>585.8</ele>
        <time>2017-06-05T07:03:13.000Z</time>
      </trkpt>
      <trkpt lat="47.28245" lon="4.92496">
        <ele>586.5</ele>
        <time>2017-06-05T07:03:17.000Z</time>
      </trkpt>
      <trkpt lat="47.28257" lon="4.92507">
        <ele>586.5</ele>
        <time>2017-06-05T07:03:21.000Z</time>
      </trkpt>
      <trkpt lat="47.28268" lon="4.92518">
        <ele>588</ele>
        <time>2017-06-05T07:03:27.000Z</time>
      </trkpt>
      <trkpt lat="47.28275" lon="4.9253">
        <ele>589.2</ele>
        <time>2017-06-05T07:03:33.000Z</time>
      </trkpt>
      <trkpt lat="47.28284" lon="4.92543">
        <ele>588.7</ele>
        <time>2017-06-05T07:03:40.000Z</time>
      </trkpt>
      <trkpt lat="47.28293" lon="4.9255">
        <ele>588.3</ele>
        <time>2017-06-05T07:03:45.000Z</time>
      </trkpt>
      <trkpt lat="47.28301" lon="4.92558">
        <ele>586</ele>
        <time>2017-06-05T07:03:52.000Z</time>
      </trkpt>
      <trkpt lat="47.28308" lon="4.92568">
        <ele>586</ele>
        <time>2017-06-05T07:04:01.000Z</time>
      </trkpt>
      <trkpt lat="47.28312" lon="4.92581">
        <ele>586.7</ele>
        <time>2017-06-05T07:04:09.000Z</time>
      </trkpt>
      <trkpt lat="47.2832" lon="4.92587">
        <ele>587.9</ele>
        <time>2017-06-05T07:04:17.000Z</time>
      </trkpt>
      <trkpt lat="47.2833" lon="4.92591">
        <ele>589.2</ele>
        <time>2017-06-05T07:04:25.000Z</time>
      </trkpt>
      <trkpt lat="47.2834" lon="4.92597">
        <ele>588.9</ele>
        <time>2017-06-05T07:04:36.000Z</time>
      </trkpt>
      <trkpt lat="47.28353" lon="4.92611">
        <ele>584.8</ele>
        <time>2017-06-05T07:05:09.000Z</time>
      </trkpt>
      <trkpt lat="47.28362" lon="4.92632">
        <ele>582</ele>
        <time>2017-06-05T07:05:25.000Z</time>
      </trkpt>
      <trkpt lat="47.28357" lon="4.92645">
        <ele>576.4</ele>
        <time>2017-06-05T07:05:57.000Z</time>
      </trkpt>
      <trkpt lat="47.28354" lon="4.92663">
        <ele>574.3</ele>
        <time>2017-06-05T07:06:13.000Z</time>
      </trkpt>
      <trkpt lat="47.28352" lon="4.92679">
        <ele>571.9</ele>
        <time>2017-06-05T07:06:24.000Z</time>
      </trkpt>
      <trkpt lat="47.28345" lon="4.92692">
        <ele>569.2</ele>
        <time>2017-06-05T07:06:40.000Z</time>
      </trkpt>
      <trkpt lat="47.28342" lon="4.92705">
        <ele>569.4</ele>
        <time>2017-06-05T07:06:51.000Z</time>
      </trkpt>
      <trkpt lat="47.28335" lon="4.92717">
        <ele>570</ele>
        <time>2017-06-05T07:07:01.000Z</time>
      </trkpt>
      <trkpt lat="47.28333" lon="4.92731">
        <ele>570.3</ele>
        <time>2017-06-05T07:07:10.000Z</time>
      </trkpt>
      <trkpt lat="47.28328" lon="4.92745">
        <ele>571.4</ele>
        <time>2017-06-05T07:07:21.000Z</time>
      </trkpt>
      <trkpt lat="47.28326" lon="4.9276">
        <ele>572.5</ele>
        <time>2017-06-05T07:07:31.000Z</time>
      </trkpt>
      <trkpt lat="47.28324" lon="4.92773">
        <ele>572.9</ele>
        <time>2017-06-05T07:07:37.000Z</time>
      </trkpt>
      <trkpt lat="47.28322" lon="4.92786">
        <ele>573.8</ele>
        <time>2017-06-05T07:07:45.000Z</time>
      </trkpt>
      <trkpt lat="47.28318" lon="4.92799">
        <ele>575.2</ele>
        <time>2017-06-05T07:07:57.000Z</time>
      </trkpt>
      <trkpt lat="47.2831" lon="4.92812">
        <ele>575.1</ele>
        <time>2017-06-05T07:08:09.000Z</time>
      </trkpt>
      <trkpt lat="47.28301" lon="4.92818">
        <ele>575.1</ele>
        <time>2017-06-05T07:08:17.000Z</time>
      </trkpt>
      <trkpt lat="47.28286" lon="4.92815">
        <ele>574</ele>
        <time>2017-06-05T07:08:51.000Z</time>
      </trkpt>
      <trkpt lat="47.28277" lon="4.92818">
        <ele>573.9</ele>
        <time>2017-06-05T07:08:55.000Z</time>
      </trkpt>
      <trkpt lat="47.28263" lon="4.92819">
        <ele>574</ele>
        <time>2017-06-05T07:09:00.000Z</time>
      </trkpt>
      <trkpt lat="47.28252" lon="4.92821">
        <ele>574.2</ele>
        <time>2017-06-05T07:09:05.000Z</time>
      </trkpt>
      <trkpt lat="47.28238" lon="4.92825">
        <ele>573.9</ele>
        <time>2017-06-05T07:09:11.000Z</time>
      </trkpt>
      <trkpt lat="47.28228" lon="4.92828">
        <ele>574.6</ele>
        <time>2017-06-05T07:09:15.000Z</time>
      </trkpt>
      <trkpt lat="47.28217" lon="4.92832">
        <ele>574.6</ele>
        <time>2017-06-05T07:09:19.000Z</time>
      </trkpt>
      <trkpt lat="47.28207" lon="4.92837">
        <ele>575.1</ele>
        <time>2017-06-05T07:09:23.000Z</time>
      </trkpt>
      <trkpt lat="47.28197" lon="4.92843">
        <ele>575.6</ele>
        <time>2017-06-05T07:09:27.000Z</time>
      </trkpt>
      <trkpt lat="47.28188" lon="4.92852">
        <ele>576.1</ele>
        <time>2017-06-05T07:09:31.000Z</time>
      </trkpt>
      <trkpt lat="47.28177" lon="4.92861">
        <ele>577.2</ele>
        <time>2017-06-05T07:09:35.000Z</time>
      </trkpt>
      <trkpt lat="47.28166" lon="4.92865">
        <ele>578.5</ele>
        <time>2017-06-05T07:09:39.000Z</time>
      </trkpt>
      <trkpt lat="47.28155" lon="4.92867">
        <ele>580.2</ele>
        <time>2017-06-05T07:09:43.000Z</time>
      </trkpt>
      <trkpt lat="47.28143" lon="4.92869">
        <ele>581.9</ele>
        <time>2017-06-05T07:09:47.000Z</time>
      </trkpt>
      <trkpt lat="47.28129" lon="4.92869">
        <ele>584</ele>
        <time>2017-06-05T07:09:51.000Z</time>
      </trkpt>
      <trkpt lat="47.28114" lon="4.92867">
        <ele>585.5</ele>
        <time>2017-06-05T07:09:56.000Z</time>
      </trkpt>
      <trkpt lat="47.28104" lon="4.92866">
        <ele>586</ele>
        <time>2017-06-05T07:09:59.000Z</time>
      </trkpt>
      <trkpt lat="47.28091" lon="4.92866">
        <ele>587.7</ele>
        <time>2017-06-05T07:10:04.000Z</time>
      </trkpt>
      <trkpt lat="47.28077" lon="4.92865">
        <ele>588.6</ele>
        <time>2017-06-05T07:10:09.000Z</time>
      </trkpt>
      <trkpt lat="47.28062" lon="4.92863">
        <ele>588.5</ele>
        <time>2017-06-05T07:10:13.000Z</time>
      </trkpt>
      <trkpt lat="47.28048" lon="4.92863">
        <ele>587.7</ele>
        <time>2017-06-05T07:10:17.000Z</time>
      </trkpt>
      <trkpt lat="47.28035" lon="4.92861">
        <ele>586.7</ele>
        <time>2017-06-05T07:10:21.000Z</time>
      </trkpt>
      <trkpt lat="47.28022" lon="4.92859">
        <ele>585.5</ele>
        <time>2017-06-05T07:10:25.000Z</time>
      </trkpt>
      <trkpt lat="47.28009" lon="4.92857">
        <ele>584.5</ele>
        <time>2017-06-05T07:10:29.000Z</time>
      </trkpt>
      <trkpt lat="47.27995" lon="4.92855">
        <ele>583.8</ele>
        <time>2017-06-05T07:10:33.000Z</time>
      </trkpt>
      <trkpt lat="47.27985" lon="4.92853">
        <ele>584.2</ele>
        <time>2017-06-05T07:10:36.000Z</time>
      </trkpt>
      <trkpt lat="47.27971" lon="4.92851">
        <ele>584.7</ele>
        <time>2017-06-05T07:10:40.000Z</time>
      </trkpt>
      <trkpt lat="47.27959" lon="4.92846">
        <ele>585.2</ele>
        <time>2017-06-05T07:10:43.000Z</time>
      </trkpt>
      <trkpt lat="47.27948" lon="4.92844">
        <ele>585.4</ele>
        <time>2017-06-05T07:10:46.000Z</time>
      </trkpt>
      <trkpt lat="47.27937" lon="4.92842">
        <ele>585.7</ele>
        <time>2017-06-05T07:10:49.000Z</time>
      </trkpt>
      <trkpt lat="47.27924" lon="4.92849">
        <ele>585.5</ele>
        <time>2017-06-05T07:10:53.000Z</time>
      </trkpt>
      <trkpt lat="47.27916" lon="4.92859">
        <ele>585.8</ele>
        <time>2017-06-05T07:10:56.000Z</time>
      </trkpt>
      <trkpt lat="47.27911" lon="4.92871">
        <ele>586.5</ele>
        <time>2017-06-05T07:11:00.000Z</time>
      </trkpt>
      <trkpt lat="47.27916" lon="4.92884">
        <ele>588.8</ele>
        <time>2017-06-05T07:11:04.000Z</time>
      </trkpt>
      <trkpt lat="47.27923" lon="4.929">
        <ele>590</ele>
        <time>2017-06-05T07:11:08.000Z</time>
      </trkpt>
      <trkpt lat="47.27929" lon="4.92912">
        <ele>590.9</ele>
        <time>2017-06-05T07:11:10.000Z</time>
      </trkpt>
      <trkpt lat="47.2794" lon="4.92935">
        <ele>592.7</ele>
        <time>2017-06-05T07:11:15.000Z</time>
      </trkpt>
      <trkpt lat="47.2795" lon="4.92953">
        <ele>593.8</ele>
        <time>2017-06-05T07:11:19.000Z</time>
      </trkpt>
      <trkpt lat="47.2796" lon="4.9297">
        <ele>595.3</ele>
        <time>2017-06-05T07:11:23.000Z</time>
      </trkpt>
      <trkpt lat="47.27969" lon="4.92986">
        <ele>596.8</ele>
        <time>2017-06-05T07:11:27.000Z</time>
      </trkpt>
      <trkpt lat="47.27982" lon="4.93008">
        <ele>598.4</ele>
        <time>2017-06-05T07:11:31.000Z</time>
      </trkpt>
      <trkpt lat="47.27988" lon="4.93018">
        <ele>598.9</ele>
        <time>2017-06-05T07:11:33.000Z</time>
      </trkpt>
      <trkpt lat="47.28007" lon="4.93052">
        <ele>600.3</ele>
        <time>2017-06-05T07:11:39.000Z</time>
      </trkpt>
      <trkpt lat="47.28019" lon="4.93067">
        <ele>600</ele>
        <time>2017-06-05T07:11:42.000Z</time>
      </trkpt>
      <trkpt lat="47.2803" lon="4.93083">
        <ele>599.6</ele>
        <time>2017-06-05T07:11:45.000Z</time>
      </trkpt>
      <trkpt lat="47.2804" lon="4.93098">
        <ele>599.8</ele>
        <time>2017-06-05T07:11:48.000Z</time>
      </trkpt>
      <trkpt lat="47.28048" lon="4.93109">
        <ele>599.6</ele>
        <time>2017-06-05T07:11:50.000Z</time>
      </trkpt>
      <trkpt lat="47.28055" lon="4.93121">
        <ele>599</ele>
        <time>2017-06-05T07:11:52.000Z</time>
      </trkpt>
      <trkpt lat="47.28064" lon="4.93127">
        <ele>599.7</ele>
        <time>2017-06-05T07:11:54.000Z</time>
      </trkpt>
      <trkpt lat="47.28075" lon="4.93127">
        <ele>599</ele>
        <time>2017-06-05T07:11:57.000Z</time>
      </trkpt>
      <trkpt lat="47.28096" lon="4.93133">
        <ele>597.1</ele>
        <time>2017-06-05T07:12:03.000Z</time>
      </trkpt>
      <trkpt lat="47.28111" lon="4.93145">
        <ele>597.3</ele>
        <time>2017-06-05T07:12:07.000Z</time>
      </trkpt>
      <trkpt lat="47.28123" lon="4.93156">
        <ele>597.2</ele>
        <time>2017-06-05T07:12:10.000Z</time>
      </trkpt>
      <trkpt lat="47.28133" lon="4.93167">
        <ele>597.5</ele>
        <time>2017-06-05T07:12:13.000Z</time>
      </trkpt>
      <trkpt lat="47.28148" lon="4.93183">
        <ele>598.1</ele>
        <time>2017-06-05T07:12:17.000Z</time>
      </trkpt>
      <trkpt lat="47.28156" lon="4.93191">
        <ele>598.5</ele>
        <time>2017-06-05T07:12:19.000Z</time>
      </trkpt>
      <trkpt lat="47.28166" lon="4.93201">
        <ele>599</ele>
        <time>2017-06-05T07:12:22.000Z</time>
      </trkpt>
      <trkpt lat="47.28172" lon="4.93211">
        <ele>599.4</ele>
        <time>2017-06-05T07:12:24.000Z</time>
      </trkpt>
      <trkpt lat="47.28177" lon="4.93229">
        <ele>599.9</ele>
        <time>2017-06-05T07:12:27.000Z</time>
      </trkpt>
      <trkpt lat="47.28179" lon="4.93242">
        <ele>600</ele>
        <time>2017-06-05T07:12:29.000Z</time>
      </trkpt>
      <trkpt lat="47.28184" lon="4.93259">
        <ele>600</ele>
        <time>2017-06-05T07:12:31.000Z</time>
      </trkpt>
      <trkpt lat="47.28186" lon="4.93278">
        <ele>599.8</ele>
        <time>2017-06-05T07:12:33.000Z</time>
      </trkpt>
      <trkpt lat="47.28197" lon="4.9329">
        <ele>600.1</ele>
        <time>2017-06-05T07:12:35.000Z</time>
      </trkpt>
      <trkpt lat="47.28206" lon="4.93303">
        <ele>600.4</ele>
        <time>2017-06-05T07:12:37.000Z</time>
      </trkpt>
      <trkpt lat="47.28212" lon="4.93315">
        <ele>600.5</ele>
        <time>2017-06-05T07:12:39.000Z</time>
      </trkpt>
      <trkpt lat="47.28225" lon="4.93329">
        <ele>601</ele>
        <time>2017-06-05T07:12:42.000Z</time>
      </trkpt>
      <trkpt lat="47.28241" lon="4.93344">
        <ele>601.4</ele>
        <time>2017-06-05T07:12:45.000Z</time>
      </trkpt>
      <trkpt lat="47.28252" lon="4.93357">
        <ele>601.5</ele>
        <time>2017-06-05T07:12:47.000Z</time>
      </trkpt>
      <trkpt lat="47.28263" lon="4.93371">
        <ele>601.3</ele>
        <time>2017-06-05T07:12:49.000Z</time>
      </trkpt>
      <trkpt lat="47.28283" lon="4.93386">
        <ele>601.1</ele>
        <time>2017-06-05T07:12:52.000Z</time>
      </trkpt>
      <trkpt lat="47.28296" lon="4.93391">
        <ele>601.2</ele>
        <time>2017-06-05T07:12:54.000Z</time>
      </trkpt>
      <trkpt lat="47.28309" lon="4.93396">
        <ele>601.2</ele>
        <time>2017-06-05T07:12:56.000Z</time>
      </trkpt>
      <trkpt lat="47.2832" lon="4.934">
        <ele>600.7</ele>
        <time>2017-06-05T07:12:58.000Z</time>
      </trkpt>
      <trkpt lat="47.28331" lon="4.93404">
        <ele>600.1</ele>
        <time>2017-06-05T07:13:00.000Z</time>
      </trkpt>
      <trkpt lat="47.28344" lon="4.93415">
        <ele>598.8</ele>
        <time>2017-06-05T07:13:05.000Z</time>
      </trkpt>
      <trkpt lat="47.28361" lon="4.93414">
        <ele>598.2</ele>
        <time>2017-06-05T07:13:09.000Z</time>
      </trkpt>
      <trkpt lat="47.28387" lon="4.93402">
        <ele>597.8</ele>
        <time>2017-06-05T07:13:15.000Z</time>
      </trkpt>
      <trkpt lat="47.28394" lon="4.93393">
        <ele>597.3</ele>
        <time>2017-06-05T07:13:17.000Z</time>
      </trkpt>
      <trkpt lat="47.28409" lon="4.93382">
        <ele>596.8</ele>
        <time>2017-06-05T07:13:21.000Z</time>
      </trkpt>
      <trkpt lat="47.2842" lon="4.93374">
        <ele>596.3</ele>
        <time>2017-06-05T07:13:25.000Z</time>
      </trkpt>
      <trkpt lat="47.28433" lon="4.9337">
        <ele>596.6</ele>
        <time>2017-06-05T07:13:29.000Z</time>
      </trkpt>
      <trkpt lat="47.28454" lon="4.93367">
        <ele>598.2</ele>
        <time>2017-06-05T07:13:33.000Z</time>
      </trkpt>
      <trkpt lat="47.28473" lon="4.93365">
        <ele>599.9</ele>
        <time>2017-06-05T07:13:36.000Z</time>
      </trkpt>
      <trkpt lat="47.28484" lon="4.93364">
        <ele>601.1</ele>
        <time>2017-06-05T07:13:39.000Z</time>
      </trkpt>
      <trkpt lat="47.28499" lon="4.93367">
        <ele>598.9</ele>
        <time>2017-06-05T07:13:43.000Z</time>
      </trkpt>
      <trkpt lat="47.28508" lon="4.93374">
        <ele>598.7</ele>
        <time>2017-06-05T07:13:47.000Z</time>
      </trkpt>
      <trkpt lat="47.28516" lon="4.93383">
        <ele>600.6</ele>
        <time>2017-06-05T07:13:51.000Z</time>
      </trkpt>
      <trkpt lat="47.28525" lon="4.93391">
        <ele>602.3</ele>
        <time>2017-06-05T07:13:55.000Z</time>
      </trkpt>
      <trkpt lat="47.28538" lon="4.93399">
        <ele>604.7</ele>
        <time>2017-06-05T07:14:00.000Z</time>
      </trkpt>
      <trkpt lat="47.28549" lon="4.93405">
        <ele>605.7</ele>
        <time>2017-06-05T07:14:03.000Z</time>
      </trkpt>
      <trkpt lat="47.28557" lon="4.93412">
        <ele>606.6</ele>
        <time>2017-06-05T07:14:05.000Z</time>
      </trkpt>
      <trkpt lat="47.28566" lon="4.93421">
        <ele>607.7</ele>
        <time>2017-06-05T07:14:07.000Z</time>
      </trkpt>
      <trkpt lat="47.28575" lon="4.9343">
        <ele>608.6</ele>
        <time>2017-06-05T07:14:09.000Z</time>
      </trkpt>
      <trkpt lat="47.28589" lon="4.93442">
        <ele>610.1</ele>
        <time>2017-06-05T07:14:12.000Z</time>
      </trkpt>
      <trkpt lat="47.28602" lon="4.93458">
        <ele>611.1</ele>
        <time>2017-06-05T07:14:15.000Z</time>
      </trkpt>
      <trkpt lat="47.28611" lon="4.9347">
        <ele>612</ele>
        <time>2017-06-05T07:14:17.000Z</time>
      </trkpt>
      <trkpt lat="47.28625" lon="4.93491">
        <ele>610.7</ele>
        <time>2017-06-05T07:14:20.000Z</time>
      </trkpt>
      <trkpt lat="47.28631" lon="4.93508">
        <ele>610.5</ele>
        <time>2017-06-05T07:14:22.000Z</time>
      </trkpt>
      <trkpt lat="47.28639" lon="4.93526">
        <ele>610.2</ele>
        <time>2017-06-05T07:14:24.000Z</time>
      </trkpt>
      <trkpt lat="47.28649" lon="4.9355">
        <ele>610.6</ele>
        <time>2017-06-05T07:14:27.000Z</time>
      </trkpt>
      <trkpt lat="47.28666" lon="4.93582">
        <ele>610.2</ele>
        <time>2017-06-05T07:14:31.000Z</time>
      </trkpt>
      <trkpt lat="47.28675" lon="4.93592">
        <ele>609.2</ele>
        <time>2017-06-05T07:14:33.000Z</time>
      </trkpt>
      <trkpt lat="47.28685" lon="4.936">
        <ele>609.5</ele>
        <time>2017-06-05T07:14:35.000Z</time>
      </trkpt>
      <trkpt lat="47.28693" lon="4.9361">
        <ele>609.1</ele>
        <time>2017-06-05T07:14:37.000Z</time>
      </trkpt>
      <trkpt lat="47.28706" lon="4.93619">
        <ele>609</ele>
        <time>2017-06-05T07:14:39.000Z</time>
      </trkpt>
      <trkpt lat="47.28719" lon="4.93628">
        <ele>608.6</ele>
        <time>2017-06-05T07:14:41.000Z</time>
      </trkpt>
      <trkpt lat="47.28731" lon="4.93638">
        <ele>608</ele>
        <time>2017-06-05T07:14:43.000Z</time>
      </trkpt>
      <trkpt lat="47.28741" lon="4.93644">
        <ele>608.2</ele>
        <time>2017-06-05T07:14:45.000Z</time>
      </trkpt>
      <trkpt lat="47.28753" lon="4.93656">
        <ele>608.6</ele>
        <time>2017-06-05T07:14:47.000Z</time>
      </trkpt>
      <trkpt lat="47.28757" lon="4.93676">
        <ele>608.5</ele>
        <time>2017-06-05T07:14:49.000Z</time>
      </trkpt>
      <trkpt lat="47.28767" lon="4.93686">
        <ele>608.5</ele>
        <time>2017-06-05T07:14:51.000Z</time>
      </trkpt>
      <trkpt lat="47.28776" lon="4.93692">
        <ele>607.9</ele>
        <time>2017-06-05T07:14:53.000Z</time>
      </trkpt>
      <trkpt lat="47.28787" lon="4.93712">
        <ele>608</ele>
        <time>2017-06-05T07:14:57.000Z</time>
      </trkpt>
      <trkpt lat="47.28788" lon="4.93725">
        <ele>608.1</ele>
        <time>2017-06-05T07:14:59.000Z</time>
      </trkpt>
      <trkpt lat="47.28801" lon="4.9373">
        <ele>603.7</ele>
        <time>2017-06-05T07:15:12.000Z</time>
      </trkpt>
      <trkpt lat="47.28814" lon="4.93723">
        <ele>601.9</ele>
        <time>2017-06-05T07:15:15.000Z</time>
      </trkpt>
      <trkpt lat="47.28823" lon="4.93716">
        <ele>601</ele>
        <time>2017-06-05T07:15:17.000Z</time>
      </trkpt>
      <trkpt lat="47.28837" lon="4.93705">
        <ele>597.5</ele>
        <time>2017-06-05T07:15:23.000Z</time>
      </trkpt>
      <trkpt lat="47.28848" lon="4.93698">
        <ele>595.9</ele>
        <time>2017-06-05T07:15:25.000Z</time>
      </trkpt>
      <trkpt lat="47.2886" lon="4.93689">
        <ele>594.8</ele>
        <time>2017-06-05T07:15:27.000Z</time>
      </trkpt>
      <trkpt lat="47.28872" lon="4.9368">
        <ele>593.8</ele>
        <time>2017-06-05T07:15:29.000Z</time>
      </trkpt>
      <trkpt lat="47.28883" lon="4.9367">
        <ele>592.3</ele>
        <time>2017-06-05T07:15:31.000Z</time>
      </trkpt>
      <trkpt lat="47.28903" lon="4.93658">
        <ele>590.4</ele>
        <time>2017-06-05T07:15:34.000Z</time>
      </trkpt>
      <trkpt lat="47.28914" lon="4.93651">
        <ele>588.9</ele>
        <time>2017-06-05T07:15:36.000Z</time>
      </trkpt>
      <trkpt lat="47.28954" lon="4.93635">
        <ele>584.3</ele>
        <time>2017-06-05T07:15:42.000Z</time>
      </trkpt>
      <trkpt lat="47.28963" lon="4.93635">
        <ele>582.8</ele>
        <time>2017-06-05T07:15:44.000Z</time>
      </trkpt>
      <trkpt lat="47.28981" lon="4.9363">
        <ele>555.9</ele>
        <time>2017-06-05T07:15:48.000Z</time>
      </trkpt>
      <trkpt lat="47.2899" lon="4.93629">
        <ele>544.1</ele>
        <time>2017-06-05T07:15:50.000Z</time>
      </trkpt>
      <trkpt lat="47.29" lon="4.93627">
        <ele>536.3</ele>
        <time>2017-06-05T07:15:52.000Z</time>
      </trkpt>
      <trkpt lat="47.2901" lon="4.9363">
        <ele>528</ele>
        <time>2017-06-05T07:15:55.000Z</time>
      </trkpt>
      <trkpt lat="47.2902" lon="4.93632">
        <ele>522.2</ele>
        <time>2017-06-05T07:15:58.000Z</time>
      </trkpt>
      <trkpt lat="47.2903" lon="4.93633">
        <ele>517.6</ele>
        <time>2017-06-05T07:16:01.000Z</time>
      </trkpt>
      <trkpt lat="47.29042" lon="4.93635">
        <ele>511.8</ele>
        <time>2017-06-05T07:16:06.000Z</time>
      </trkpt>
      <trkpt lat="47.29054" lon="4.9364">
        <ele>506.8</ele>
        <time>2017-06-05T07:16:10.000Z</time>
      </trkpt>
      <trkpt lat="47.29063" lon="4.93642">
        <ele>502.5</ele>
        <time>2017-06-05T07:16:13.000Z</time>
      </trkpt>
      <trkpt lat="47.29083" lon="4.93678">
        <ele>496</ele>
        <time>2017-06-05T07:16:19.000Z</time>
      </trkpt>
      <trkpt lat="47.2909" lon="4.93695">
        <ele>494</ele>
        <time>2017-06-05T07:16:21.000Z</time>
      </trkpt>
      <trkpt lat="47.29096" lon="4.93714">
        <ele>492.2</ele>
        <time>2017-06-05T07:16:23.000Z</time>
      </trkpt>
      <trkpt lat="47.29102" lon="4.93735">
        <ele>490.4</ele>
        <time>2017-06-05T07:16:25.000Z</time>
      </trkpt>
      <trkpt lat="47.29106" lon="4.93757">
        <ele>488.9</ele>
        <time>2017-06-05T07:16:27.000Z</time>
      </trkpt>
      <trkpt lat="47.29111" lon="4.93779">
        <ele>487.1</ele>
        <time>2017-06-05T07:16:29.000Z</time>
      </trkpt>
      <trkpt lat="47.29117" lon="4.93803">
        <ele>485.1</ele>
        <time>2017-06-05T07:16:31.000Z</time>
      </trkpt>
      <trkpt lat="47.29131" lon="4.93837">
        <ele>481.7</ele>
        <time>2017-06-05T07:16:34.000Z</time>
      </trkpt>
      <trkpt lat="47.29137" lon="4.93849">
        <ele>480.3</ele>
        <time>2017-06-05T07:16:35.000Z</time>
      </trkpt>
      <trkpt lat="47.2915" lon="4.93872">
        <ele>477.5</ele>
        <time>2017-06-05T07:16:37.000Z</time>
      </trkpt>
      <trkpt lat="47.29165" lon="4.93894">
        <ele>474.9</ele>
        <time>2017-06-05T07:16:39.000Z</time>
      </trkpt>
      <trkpt lat="47.29173" lon="4.93904">
        <ele>473.7</ele>
        <time>2017-06-05T07:16:40.000Z</time>
      </trkpt>
      <trkpt lat="47.29188" lon="4.93922">
        <ele>471.4</ele>
        <time>2017-06-05T07:16:42.000Z</time>
      </trkpt>
      <trkpt lat="47.29195" lon="4.93931">
        <ele>470</ele>
        <time>2017-06-05T07:16:43.000Z</time>
      </trkpt>
      <trkpt lat="47.29211" lon="4.93944">
        <ele>468.1</ele>
        <time>2017-06-05T07:16:45.000Z</time>
      </trkpt>
      <trkpt lat="47.29232" lon="4.93959">
        <ele>465.8</ele>
        <time>2017-06-05T07:16:48.000Z</time>
      </trkpt>
      <trkpt lat="47.29249" lon="4.93973">
        <ele>464.3</ele>
        <time>2017-06-05T07:16:51.000Z</time>
      </trkpt>
      <trkpt lat="47.29259" lon="4.93985">
        <ele>463.3</ele>
        <time>2017-06-05T07:16:54.000Z</time>
      </trkpt>
      <trkpt lat="47.2927" lon="4.93991">
        <ele>462.8</ele>
        <time>2017-06-05T07:16:57.000Z</time>
      </trkpt>
      <trkpt lat="47.29287" lon="4.93999">
        <ele>462.1</ele>
        <time>2017-06-05T07:17:01.000Z</time>
      </trkpt>
      <trkpt lat="47.2929" lon="4.94012">
        <ele>461.7</ele>
        <time>2017-06-05T07:17:03.000Z</time>
      </trkpt>
      <trkpt lat="47.29292" lon="4.94028">
        <ele>461.2</ele>
        <time>2017-06-05T07:17:05.000Z</time>
      </trkpt>
      <trkpt lat="47.29293" lon="4.94045">
        <ele>460.8</ele>
        <time>2017-06-05T07:17:07.000Z</time>
      </trkpt>
      <trkpt lat="47.29294" lon="4.94064">
        <ele>460.3</ele>
        <time>2017-06-05T07:17:09.000Z</time>
      </trkpt>
      <trkpt lat="47.29296" lon="4.94085">
        <ele>459.7</ele>
        <time>2017-06-05T07:17:11.000Z</time>
      </trkpt>
      <trkpt lat="47.29297" lon="4.94107">
        <ele>458.7</ele>
        <time>2017-06-05T07:17:13.000Z</time>
      </trkpt>
      <trkpt lat="47.293" lon="4.94142">
        <ele>457.1</ele>
        <time>2017-06-05T07:17:16.000Z</time>
      </trkpt>
      <trkpt lat="47.29302" lon="4.94167">
        <ele>455.7</ele>
        <time>2017-06-05T07:17:18.000Z</time>
      </trkpt>
      <trkpt lat="47.29303" lon="4.94193">
        <ele>454.6</ele>
        <time>2017-06-05T07:17:20.000Z</time>
      </trkpt>
      <trkpt lat="47.29305" lon="4.9422">
        <ele>453.3</ele>
        <time>2017-06-05T07:17:22.000Z</time>
      </trkpt>
      <trkpt lat="47.29306" lon="4.94247">
        <ele>452.1</ele>
        <time>2017-06-05T07:17:24.000Z</time>
      </trkpt>
      <trkpt lat="47.29308" lon="4.94274">
        <ele>450.9</ele>
        <time>2017-06-05T07:17:26.000Z</time>
      </trkpt>
      <trkpt lat="47.2931" lon="4.94301">
        <ele>449.6</ele>
        <time>2017-06-05T07:17:28.000Z</time>
      </trkpt>
      <trkpt lat="47.29312" lon="4.94328">
        <ele>448.5</ele>
        <time>2017-06-05T07:17:30.000Z</time>
      </trkpt>
      <trkpt lat="47.29313" lon="4.94341">
        <ele>448.1</ele>
        <time>2017-06-05T07:17:31.000Z</time>
      </trkpt>
      <trkpt lat="47.29315" lon="4.94355">
        <ele>447.6</ele>
        <time>2017-06-05T07:17:32.000Z</time>
      </trkpt>
      <trkpt lat="47.2932" lon="4.9438">
        <ele>446.7</ele>
        <time>2017-06-05T07:17:34.000Z</time>
      </trkpt>
      <trkpt lat="47.29328" lon="4.94404">
        <ele>446</ele>
        <time>2017-06-05T07:17:36.000Z</time>
      </trkpt>
      <trkpt lat="47.29342" lon="4.94435">
        <ele>445.2</ele>
        <time>2017-06-05T07:17:39.000Z</time>
      </trkpt>
      <trkpt lat="47.2937" lon="4.94473">
        <ele>445</ele>
        <time>2017-06-05T07:17:44.000Z</time>
      </trkpt>
      <trkpt lat="47.2938" lon="4.94485">
        <ele>444.8</ele>
        <time>2017-06-05T07:17:46.000Z</time>
      </trkpt>
      <trkpt lat="47.29392" lon="4.94494">
        <ele>444.9</ele>
        <time>2017-06-05T07:17:48.000Z</time>
      </trkpt>
      <trkpt lat="47.29408" lon="4.94508">
        <ele>445.1</ele>
        <time>2017-06-05T07:17:51.000Z</time>
      </trkpt>
      <trkpt lat="47.29418" lon="4.94516">
        <ele>445.1</ele>
        <time>2017-06-05T07:17:53.000Z</time>
      </trkpt>
      <trkpt lat="47.29428" lon="4.94525">
        <ele>445.2</ele>
        <time>2017-06-05T07:17:55.000Z</time>
      </trkpt>
      <trkpt lat="47.29438" lon="4.94532">
        <ele>445.3</ele>
        <time>2017-06-05T07:17:57.000Z</time>
      </trkpt>
      <trkpt lat="47.29447" lon="4.9454">
        <ele>445.6</ele>
        <time>2017-06-05T07:17:59.000Z</time>
      </trkpt>
      <trkpt lat="47.29456" lon="4.94547">
        <ele>445.9</ele>
        <time>2017-06-05T07:18:01.000Z</time>
      </trkpt>
      <trkpt lat="47.29464" lon="4.94553">
        <ele>446.4</ele>
        <time>2017-06-05T07:18:03.000Z</time>
      </trkpt>
      <trkpt lat="47.29473" lon="4.94559">
        <ele>446.6</ele>
        <time>2017-06-05T07:18:05.000Z</time>
      </trkpt>
      <trkpt lat="47.29482" lon="4.94567">
        <ele>447</ele>
        <time>2017-06-05T07:18:07.000Z</time>
      </trkpt>
      <trkpt lat="47.29491" lon="4.94573">
        <ele>447.4</ele>
        <time>2017-06-05T07:18:09.000Z</time>
      </trkpt>
      <trkpt lat="47.29502" lon="4.94579">
        <ele>447.9</ele>
        <time>2017-06-05T07:18:11.000Z</time>
      </trkpt>
      <trkpt lat="47.29512" lon="4.94584">
        <ele>448.4</ele>
        <time>2017-06-05T07:18:13.000Z</time>
      </trkpt>
      <trkpt lat="47.29523" lon="4.94598">
        <ele>448.8</ele>
        <time>2017-06-05T07:18:16.000Z</time>
      </trkpt>
      <trkpt lat="47.29531" lon="4.9462">
        <ele>448.7</ele>
        <time>2017-06-05T07:18:19.000Z</time>
      </trkpt>
      <trkpt lat="47.29553" lon="4.94637">
        <ele>449.2</ele>
        <time>2017-06-05T07:18:23.000Z</time>
      </trkpt>
      <trkpt lat="47.29564" lon="4.94648">
        <ele>449</ele>
        <time>2017-06-05T07:18:25.000Z</time>
      </trkpt>
      <trkpt lat="47.2957" lon="4.94666">
        <ele>448.7</ele>
        <time>2017-06-05T07:18:27.000Z</time>
      </trkpt>
      <trkpt lat="47.29574" lon="4.94686">
        <ele>448</ele>
        <time>2017-06-05T07:18:29.000Z</time>
      </trkpt>
      <trkpt lat="47.29578" lon="4.94706">
        <ele>447.7</ele>
        <time>2017-06-05T07:18:31.000Z</time>
      </trkpt>
      <trkpt lat="47.29583" lon="4.94726">
        <ele>447.6</ele>
        <time>2017-06-05T07:18:33.000Z</time>
      </trkpt>
      <trkpt lat="47.29588" lon="4.94746">
        <ele>447.4</ele>
        <time>2017-06-05T07:18:35.000Z</time>
      </trkpt>
      <trkpt lat="47.29596" lon="4.94775">
        <ele>447.4</ele>
        <time>2017-06-05T07:18:38.000Z</time>
      </trkpt>
      <trkpt lat="47.29603" lon="4.94793">
        <ele>447.4</ele>
        <time>2017-06-05T07:18:40.000Z</time>
      </trkpt>
      <trkpt lat="47.29615" lon="4.9483">
        <ele>447.1</ele>
        <time>2017-06-05T07:18:44.000Z</time>
      </trkpt>
      <trkpt lat="47.2962" lon="4.94848">
        <ele>446.8</ele>
        <time>2017-06-05T07:18:46.000Z</time>
      </trkpt>
      <trkpt lat="47.29626" lon="4.94866">
        <ele>446.3</ele>
        <time>2017-06-05T07:18:48.000Z</time>
      </trkpt>
      <trkpt lat="47.29634" lon="4.94893">
        <ele>445.4</ele>
        <time>2017-06-05T07:18:51.000Z</time>
      </trkpt>
      <trkpt lat="47.29639" lon="4.94911">
        <ele>445</ele>
        <time>2017-06-05T07:18:53.000Z</time>
      </trkpt>
      <trkpt lat="47.29648" lon="4.94937">
        <ele>444.6</ele>
        <time>2017-06-05T07:18:56.000Z</time>
      </trkpt>
      <trkpt lat="47.29654" lon="4.94955">
        <ele>444.4</ele>
        <time>2017-06-05T07:18:58.000Z</time>
      </trkpt>
      <trkpt lat="47.2966" lon="4.94973">
        <ele>444.1</ele>
        <time>2017-06-05T07:19:00.000Z</time>
      </trkpt>
      <trkpt lat="47.29674" lon="4.95015">
        <ele>443.5</ele>
        <time>2017-06-05T07:19:05.000Z</time>
      </trkpt>
      <trkpt lat="47.2968" lon="4.95032">
        <ele>443.3</ele>
        <time>2017-06-05T07:19:07.000Z</time>
      </trkpt>
      <trkpt lat="47.29685" lon="4.95048">
        <ele>443.2</ele>
        <time>2017-06-05T07:19:09.000Z</time>
      </trkpt>
      <trkpt lat="47.29691" lon="4.95064">
        <ele>443.1</ele>
        <time>2017-06-05T07:19:11.000Z</time>
      </trkpt>
      <trkpt lat="47.29696" lon="4.9508">
        <ele>443.1</ele>
        <time>2017-06-05T07:19:13.000Z</time>
      </trkpt>
      <trkpt lat="47.29702" lon="4.95096">
        <ele>443.1</ele>
        <time>2017-06-05T07:19:15.000Z</time>
      </trkpt>
      <trkpt lat="47.29708" lon="4.95112">
        <ele>442.9</ele>
        <time>2017-06-05T07:19:17.000Z</time>
      </trkpt>
      <trkpt lat="47.29713" lon="4.95127">
        <ele>442.6</ele>
        <time>2017-06-05T07:19:19.000Z</time>
      </trkpt>
      <trkpt lat="47.29724" lon="4.95158">
        <ele>442.4</ele>
        <time>2017-06-05T07:19:23.000Z</time>
      </trkpt>
      <trkpt lat="47.2973" lon="4.95173">
        <ele>442.4</ele>
        <time>2017-06-05T07:19:25.000Z</time>
      </trkpt>
      <trkpt lat="47.29742" lon="4.95205">
        <ele>442.4</ele>
        <time>2017-06-05T07:19:29.000Z</time>
      </trkpt>
      <trkpt lat="47.29747" lon="4.95221">
        <ele>442.2</ele>
        <time>2017-06-05T07:19:31.000Z</time>
      </trkpt>
      <trkpt lat="47.29754" lon="4.95237">
        <ele>441.9</ele>
        <time>2017-06-05T07:19:33.000Z</time>
      </trkpt>
      <trkpt lat="47.29759" lon="4.95253">
        <ele>441.6</ele>
        <time>2017-06-05T07:19:35.000Z</time>
      </trkpt>
      <trkpt lat="47.2977" lon="4.95285">
        <ele>441.2</ele>
        <time>2017-06-05T07:19:39.000Z</time>
      </trkpt>
      <trkpt lat="47.29777" lon="4.95302">
        <ele>441</ele>
        <time>2017-06-05T07:19:41.000Z</time>
      </trkpt>
      <trkpt lat="47.29784" lon="4.95319">
        <ele>441.1</ele>
        <time>2017-06-05T07:19:43.000Z</time>
      </trkpt>
      <trkpt lat="47.29791" lon="4.95336">
        <ele>441.1</ele>
        <time>2017-06-05T07:19:45.000Z</time>
      </trkpt>
      <trkpt lat="47.29805" lon="4.95372">
        <ele>439.9</ele>
        <time>2017-06-05T07:19:49.000Z</time>
      </trkpt>
      <trkpt lat="47.29817" lon="4.95399">
        <ele>439.1</ele>
        <time>2017-06-05T07:19:52.000Z</time>
      </trkpt>
      <trkpt lat="47.29825" lon="4.95417">
        <ele>438.8</ele>
        <time>2017-06-05T07:19:54.000Z</time>
      </trkpt>
      <trkpt lat="47.29845" lon="4.95463">
        <ele>437.4</ele>
        <time>2017-06-05T07:19:59.000Z</time>
      </trkpt>
      <trkpt lat="47.29853" lon="4.95482">
        <ele>437</ele>
        <time>2017-06-05T07:20:01.000Z</time>
      </trkpt>
      <trkpt lat="47.29861" lon="4.955">
        <ele>436.8</ele>
        <time>2017-06-05T07:20:03.000Z</time>
      </trkpt>
      <trkpt lat="47.29869" lon="4.95518">
        <ele>436.4</ele>
        <time>2017-06-05T07:20:05.000Z</time>
      </trkpt>
      <trkpt lat="47.29877" lon="4.95537">
        <ele>436.2</ele>
        <time>2017-06-05T07:20:07.000Z</time>
      </trkpt>
      <trkpt lat="47.29884" lon="4.95556">
        <ele>435.9</ele>
        <time>2017-06-05T07:20:09.000Z</time>
      </trkpt>
      <trkpt lat="47.29892" lon="4.95574">
        <ele>435.7</ele>
        <time>2017-06-05T07:20:11.000Z</time>
      </trkpt>
      <trkpt lat="47.29906" lon="4.95607">
        <ele>435.5</ele>
        <time>2017-06-05T07:20:15.000Z</time>
      </trkpt>
      <trkpt lat="47.29916" lon="4.95631">
        <ele>435.3</ele>
        <time>2017-06-05T07:20:18.000Z</time>
      </trkpt>
      <trkpt lat="47.29926" lon="4.95656">
        <ele>435.1</ele>
        <time>2017-06-05T07:20:21.000Z</time>
      </trkpt>
      <trkpt lat="47.29936" lon="4.95679">
        <ele>434.7</ele>
        <time>2017-06-05T07:20:24.000Z</time>
      </trkpt>
      <trkpt lat="47.29942" lon="4.95695">
        <ele>434.4</ele>
        <time>2017-06-05T07:20:26.000Z</time>
      </trkpt>
      <trkpt lat="47.29948" lon="4.95711">
        <ele>434.2</ele>
        <time>2017-06-05T07:20:28.000Z</time>
      </trkpt>
      <trkpt lat="47.29957" lon="4.95735">
        <ele>433.7</ele>
        <time>2017-06-05T07:20:31.000Z</time>
      </trkpt>
      <trkpt lat="47.29967" lon="4.95759">
        <ele>433.3</ele>
        <time>2017-06-05T07:20:34.000Z</time>
      </trkpt>
      <trkpt lat="47.29973" lon="4.95774">
        <ele>433.1</ele>
        <time>2017-06-05T07:20:36.000Z</time>
      </trkpt>
      <trkpt lat="47.29982" lon="4.95796">
        <ele>433.1</ele>
        <time>2017-06-05T07:20:39.000Z</time>
      </trkpt>
      <trkpt lat="47.2999" lon="4.95818">
        <ele>432.9</ele>
        <time>2017-06-05T07:20:42.000Z</time>
      </trkpt>
      <trkpt lat="47.3" lon="4.95841">
        <ele>432.7</ele>
        <time>2017-06-05T07:20:45.000Z</time>
      </trkpt>
      <trkpt lat="47.30006" lon="4.95857">
        <ele>432.5</ele>
        <time>2017-06-05T07:20:47.000Z</time>
      </trkpt>
      <trkpt lat="47.30013" lon="4.95873">
        <ele>431.9</ele>
        <time>2017-06-05T07:20:49.000Z</time>
      </trkpt>
      <trkpt lat="47.30021" lon="4.9589">
        <ele>431.8</ele>
        <time>2017-06-05T07:20:51.000Z</time>
      </trkpt>
      <trkpt lat="47.30028" lon="4.95906">
        <ele>431.9</ele>
        <time>2017-06-05T07:20:53.000Z</time>
      </trkpt>
      <trkpt lat="47.3004" lon="4.95938">
        <ele>431.1</ele>
        <time>2017-06-05T07:20:57.000Z</time>
      </trkpt>
      <trkpt lat="47.3004" lon="4.95957">
        <ele>430.7</ele>
        <time>2017-06-05T07:20:59.000Z</time>
      </trkpt>
      <trkpt lat="47.30037" lon="4.95976">
        <ele>430.4</ele>
        <time>2017-06-05T07:21:01.000Z</time>
      </trkpt>
      <trkpt lat="47.3003" lon="4.96004">
        <ele>429.7</ele>
        <time>2017-06-05T07:21:04.000Z</time>
      </trkpt>
      <trkpt lat="47.30022" lon="4.96031">
        <ele>428.9</ele>
        <time>2017-06-05T07:21:07.000Z</time>
      </trkpt>
      <trkpt lat="47.30018" lon="4.96049">
        <ele>428.5</ele>
        <time>2017-06-05T07:21:09.000Z</time>
      </trkpt>
      <trkpt lat="47.30014" lon="4.96079">
        <ele>427.7</ele>
        <time>2017-06-05T07:21:12.000Z</time>
      </trkpt>
      <trkpt lat="47.30014" lon="4.961">
        <ele>426</ele>
        <time>2017-06-05T07:21:14.000Z</time>
      </trkpt>
      <trkpt lat="47.30013" lon="4.96121">
        <ele>425</ele>
        <time>2017-06-05T07:21:16.000Z</time>
      </trkpt>
      <trkpt lat="47.30012" lon="4.96142">
        <ele>423.9</ele>
        <time>2017-06-05T07:21:18.000Z</time>
      </trkpt>
      <trkpt lat="47.30009" lon="4.96168">
        <ele>421.8</ele>
        <time>2017-06-05T07:21:21.000Z</time>
      </trkpt>
      <trkpt lat="47.30008" lon="4.96183">
        <ele>420.8</ele>
        <time>2017-06-05T07:21:23.000Z</time>
      </trkpt>
      <trkpt lat="47.30014" lon="4.96198">
        <ele>420.9</ele>
        <time>2017-06-05T07:21:25.000Z</time>
      </trkpt>
      <trkpt lat="47.30021" lon="4.96212">
        <ele>421.6</ele>
        <time>2017-06-05T07:21:27.000Z</time>
      </trkpt>
      <trkpt lat="47.30027" lon="4.96227">
        <ele>422</ele>
        <time>2017-06-05T07:21:30.000Z</time>
      </trkpt>
      <trkpt lat="47.30035" lon="4.96244">
        <ele>422.3</ele>
        <time>2017-06-05T07:21:34.000Z</time>
      </trkpt>
      <trkpt lat="47.30031" lon="4.96259">
        <ele>421.7</ele>
        <time>2017-06-05T07:21:37.000Z</time>
      </trkpt>
      <trkpt lat="47.30024" lon="4.96268">
        <ele>421.2</ele>
        <time>2017-06-05T07:21:39.000Z</time>
      </trkpt>
      <trkpt lat="47.30019" lon="4.9628">
        <ele>420.3</ele>
        <time>2017-06-05T07:21:41.000Z</time>
      </trkpt>
      <trkpt lat="47.30021" lon="4.96294">
        <ele>419.8</ele>
        <time>2017-06-05T07:21:43.000Z</time>
      </trkpt>
      <trkpt lat="47.30029" lon="4.96321">
        <ele>418.7</ele>
        <time>2017-06-05T07:21:47.000Z</time>
      </trkpt>
      <trkpt lat="47.30032" lon="4.96338">
        <ele>418</ele>
        <time>2017-06-05T07:21:50.000Z</time>
      </trkpt>
      <trkpt lat="47.30037" lon="4.96353">
        <ele>417.6</ele>
        <time>2017-06-05T07:21:53.000Z</time>
      </trkpt>
      <trkpt lat="47.30043" lon="4.96385">
        <ele>417.7</ele>
        <time>2017-06-05T07:22:00.000Z</time>
      </trkpt>
      <trkpt lat="47.30049" lon="4.96405">
        <ele>417.9</ele>
        <time>2017-06-05T07:22:04.000Z</time>
      </trkpt>
      <trkpt lat="47.30054" lon="4.96421">
        <ele>418.4</ele>
        <time>2017-06-05T07:22:07.000Z</time>
      </trkpt>
      <trkpt lat="47.30061" lon="4.96442">
        <ele>419.2</ele>
        <time>2017-06-05T07:22:11.000Z</time>
      </trkpt>
      <trkpt lat="47.30067" lon="4.96461">
        <ele>419.8</ele>
        <time>2017-06-05T07:22:15.000Z</time>
      </trkpt>
      <trkpt lat="47.30076" lon="4.96488">
        <ele>421.3</ele>
        <time>2017-06-05T07:22:20.000Z</time>
      </trkpt>
      <trkpt lat="47.30081" lon="4.96507">
        <ele>422.9</ele>
        <time>2017-06-05T07:22:24.000Z</time>
      </trkpt>
      <trkpt lat="47.30087" lon="4.96527">
        <ele>424.3</ele>
        <time>2017-06-05T07:22:28.000Z</time>
      </trkpt>
      <trkpt lat="47.3008" lon="4.96541">
        <ele>424.8</ele>
        <time>2017-06-05T07:22:31.000Z</time>
      </trkpt>
      <trkpt lat="47.30067" lon="4.96551">
        <ele>426.7</ele>
        <time>2017-06-05T07:22:36.000Z</time>
      </trkpt>
      <trkpt lat="47.30058" lon="4.96561">
        <ele>428.4</ele>
        <time>2017-06-05T07:22:40.000Z</time>
      </trkpt>
      <trkpt lat="47.30045" lon="4.96571">
        <ele>430.5</ele>
        <time>2017-06-05T07:22:45.000Z</time>
      </trkpt>
      <trkpt lat="47.3003" lon="4.96575">
        <ele>431.4</ele>
        <time>2017-06-05T07:22:47.000Z</time>
      </trkpt>
      <trkpt lat="47.30012" lon="4.96583">
        <ele>432.3</ele>
        <time>2017-06-05T07:22:49.000Z</time>
      </trkpt>
      <trkpt lat="47.29997" lon="4.96593">
        <ele>433.2</ele>
        <time>2017-06-05T07:22:51.000Z</time>
      </trkpt>
      <trkpt lat="47.2999" lon="4.96602">
        <ele>427.8</ele>
        <time>2017-06-05T07:22:54.000Z</time>
      </trkpt>
      <trkpt lat="47.29985" lon="4.9662">
        <ele>423.9</ele>
        <time>2017-06-05T07:22:57.000Z</time>
      </trkpt>
      <trkpt lat="47.29981" lon="4.96636">
        <ele>422.4</ele>
        <time>2017-06-05T07:22:59.000Z</time>
      </trkpt>
      <trkpt lat="47.29977" lon="4.96654">
        <ele>421.5</ele>
        <time>2017-06-05T07:23:01.000Z</time>
      </trkpt>
      <trkpt lat="47.29956" lon="4.96698">
        <ele>417.2</ele>
        <time>2017-06-05T07:23:06.000Z</time>
      </trkpt>
      <trkpt lat="47.29948" lon="4.96713">
        <ele>416.1</ele>
        <time>2017-06-05T07:23:08.000Z</time>
      </trkpt>
      <trkpt lat="47.2994" lon="4.9673">
        <ele>414.8</ele>
        <time>2017-06-05T07:23:10.000Z</time>
      </trkpt>
      <trkpt lat="47.2993" lon="4.96745">
        <ele>412.3</ele>
        <time>2017-06-05T07:23:12.000Z</time>
      </trkpt>
      <trkpt lat="47.29921" lon="4.9676">
        <ele>410</ele>
        <time>2017-06-05T07:23:14.000Z</time>
      </trkpt>
      <trkpt lat="47.29912" lon="4.96775">
        <ele>407.6</ele>
        <time>2017-06-05T07:23:16.000Z</time>
      </trkpt>
      <trkpt lat="47.29904" lon="4.9679">
        <ele>405.6</ele>
        <time>2017-06-05T07:23:18.000Z</time>
      </trkpt>
      <trkpt lat="47.29894" lon="4.96814">
        <ele>402.7</ele>
        <time>2017-06-05T07:23:21.000Z</time>
      </trkpt>
      <trkpt lat="47.29884" lon="4.96838">
        <ele>401.1</ele>
        <time>2017-06-05T07:23:24.000Z</time>
      </trkpt>
      <trkpt lat="47.29874" lon="4.96863">
        <ele>399.7</ele>
        <time>2017-06-05T07:23:27.000Z</time>
      </trkpt>
      <trkpt lat="47.2987" lon="4.96879">
        <ele>398.4</ele>
        <time>2017-06-05T07:23:29.000Z</time>
      </trkpt>
      <trkpt lat="47.29866" lon="4.96895">
        <ele>397.6</ele>
        <time>2017-06-05T07:23:31.000Z</time>
      </trkpt>
      <trkpt lat="47.29861" lon="4.96912">
        <ele>396.4</ele>
        <time>2017-06-05T07:23:33.000Z</time>
      </trkpt>
      <trkpt lat="47.29853" lon="4.96938">
        <ele>394.6</ele>
        <time>2017-06-05T07:23:36.000Z</time>
      </trkpt>
      <trkpt lat="47.29848" lon="4.96965">
        <ele>393.3</ele>
        <time>2017-06-05T07:23:39.000Z</time>
      </trkpt>
      <trkpt lat="47.29844" lon="4.96984">
        <ele>392.1</ele>
        <time>2017-06-05T07:23:41.000Z</time>
      </trkpt>
      <trkpt lat="47.2984" lon="4.97003">
        <ele>390.6</ele>
        <time>2017-06-05T07:23:43.000Z</time>
      </trkpt>
      <trkpt lat="47.29836" lon="4.97021">
        <ele>389.3</ele>
        <time>2017-06-05T07:23:45.000Z</time>
      </trkpt>
      <trkpt lat="47.29834" lon="4.9704">
        <ele>388.1</ele>
        <time>2017-06-05T07:23:47.000Z</time>
      </trkpt>
      <trkpt lat="47.29835" lon="4.97068">
        <ele>386.8</ele>
        <time>2017-06-05T07:23:50.000Z</time>
      </trkpt>
      <trkpt lat="47.29836" lon="4.97094">
        <ele>386</ele>
        <time>2017-06-05T07:23:53.000Z</time>
      </trkpt>
      <trkpt lat="47.29838" lon="4.97111">
        <ele>385.4</ele>
        <time>2017-06-05T07:23:55.000Z</time>
      </trkpt>
      <trkpt lat="47.29839" lon="4.97128">
        <ele>385.4</ele>
        <time>2017-06-05T07:23:57.000Z</time>
      </trkpt>
      <trkpt lat="47.2984" lon="4.97142">
        <ele>385.5</ele>
        <time>2017-06-05T07:23:59.000Z</time>
      </trkpt>
      <trkpt lat="47.29842" lon="4.97168">
        <ele>385.5</ele>
        <time>2017-06-05T07:24:03.000Z</time>
      </trkpt>
      <trkpt lat="47.29831" lon="4.9718">
        <ele>386.6</ele>
        <time>2017-06-05T07:24:12.000Z</time>
      </trkpt>
      <trkpt lat="47.29822" lon="4.97189">
        <ele>387.1</ele>
        <time>2017-06-05T07:24:16.000Z</time>
      </trkpt>
      <trkpt lat="47.29812" lon="4.97183">
        <ele>387.9</ele>
        <time>2017-06-05T07:24:19.000Z</time>
      </trkpt>
      <trkpt lat="47.29797" lon="4.97171">
        <ele>388.7</ele>
        <time>2017-06-05T07:24:23.000Z</time>
      </trkpt>
      <trkpt lat="47.29778" lon="4.97157">
        <ele>389.5</ele>
        <time>2017-06-05T07:24:28.000Z</time>
      </trkpt>
      <trkpt lat="47.2977" lon="4.97146">
        <ele>389.8</ele>
        <time>2017-06-05T07:24:30.000Z</time>
      </trkpt>
      <trkpt lat="47.29756" lon="4.97134">
        <ele>390</ele>
        <time>2017-06-05T07:24:33.000Z</time>
      </trkpt>
      <trkpt lat="47.2974" lon="4.9713">
        <ele>390.1</ele>
        <time>2017-06-05T07:24:36.000Z</time>
      </trkpt>
      <trkpt lat="47.29731" lon="4.97131">
        <ele>390.3</ele>
        <time>2017-06-05T07:24:38.000Z</time>
      </trkpt>
      <trkpt lat="47.29719" lon="4.97142">
        <ele>390.3</ele>
        <time>2017-06-05T07:24:42.000Z</time>
      </trkpt>
      <trkpt lat="47.29712" lon="4.9715">
        <ele>390.4</ele>
        <time>2017-06-05T07:24:45.000Z</time>
      </trkpt>
      <trkpt lat="47.29705" lon="4.97163">
        <ele>389.9</ele>
        <time>2017-06-05T07:24:48.000Z</time>
      </trkpt>
      <trkpt lat="47.29697" lon="4.97175">
        <ele>389.8</ele>
        <time>2017-06-05T07:24:51.000Z</time>
      </trkpt>
      <trkpt lat="47.29688" lon="4.97198">
        <ele>389.8</ele>
        <time>2017-06-05T07:24:57.000Z</time>
      </trkpt>
      <trkpt lat="47.29681" lon="4.97211">
        <ele>390.4</ele>
        <time>2017-06-05T07:25:01.000Z</time>
      </trkpt>
      <trkpt lat="47.2967" lon="4.97217">
        <ele>391.3</ele>
        <time>2017-06-05T07:25:05.000Z</time>
      </trkpt>
      <trkpt lat="47.29654" lon="4.9722">
        <ele>391.7</ele>
        <time>2017-06-05T07:25:09.000Z</time>
      </trkpt>
      <trkpt lat="47.2964" lon="4.97221">
        <ele>391.9</ele>
        <time>2017-06-05T07:25:13.000Z</time>
      </trkpt>
      <trkpt lat="47.29629" lon="4.97221">
        <ele>392.1</ele>
        <time>2017-06-05T07:25:16.000Z</time>
      </trkpt>
      <trkpt lat="47.29619" lon="4.97221">
        <ele>392.5</ele>
        <time>2017-06-05T07:25:19.000Z</time>
      </trkpt>
      <trkpt lat="47.29604" lon="4.97223">
        <ele>392.6</ele>
        <time>2017-06-05T07:25:23.000Z</time>
      </trkpt>
      <trkpt lat="47.29577" lon="4.97238">
        <ele>391.9</ele>
        <time>2017-06-05T07:25:31.000Z</time>
      </trkpt>
      <trkpt lat="47.29566" lon="4.97254">
        <ele>391</ele>
        <time>2017-06-05T07:25:35.000Z</time>
      </trkpt>
      <trkpt lat="47.29559" lon="4.97271">
        <ele>391.5</ele>
        <time>2017-06-05T07:25:39.000Z</time>
      </trkpt>
      <trkpt lat="47.29548" lon="4.97287">
        <ele>391.3</ele>
        <time>2017-06-05T07:25:43.000Z</time>
      </trkpt>
      <trkpt lat="47.29541" lon="4.97297">
        <ele>392.3</ele>
        <time>2017-06-05T07:25:46.000Z</time>
      </trkpt>
      <trkpt lat="47.2953" lon="4.97306">
        <ele>392</ele>
        <time>2017-06-05T07:25:49.000Z</time>
      </trkpt>
      <trkpt lat="47.29522" lon="4.97323">
        <ele>391.9</ele>
        <time>2017-06-05T07:25:53.000Z</time>
      </trkpt>
      <trkpt lat="47.2951" lon="4.97334">
        <ele>391.7</ele>
        <time>2017-06-05T07:25:57.000Z</time>
      </trkpt>
      <trkpt lat="47.29506" lon="4.97348">
        <ele>391.6</ele>
        <time>2017-06-05T07:26:00.000Z</time>
      </trkpt>
      <trkpt lat="47.29498" lon="4.97356">
        <ele>391.6</ele>
        <time>2017-06-05T07:26:03.000Z</time>
      </trkpt>
      <trkpt lat="47.29485" lon="4.97358">
        <ele>391.6</ele>
        <time>2017-06-05T07:26:06.000Z</time>
      </trkpt>
      <trkpt lat="47.29468" lon="4.97366">
        <ele>390.7</ele>
        <time>2017-06-05T07:26:10.000Z</time>
      </trkpt>
      <trkpt lat="47.29461" lon="4.97378">
        <ele>389.6</ele>
        <time>2017-06-05T07:26:13.000Z</time>
      </trkpt>
      <trkpt lat="47.29451" lon="4.97393">
        <ele>389</ele>
        <time>2017-06-05T07:26:17.000Z</time>
      </trkpt>
      <trkpt lat="47.29435" lon="4.97401">
        <ele>388.3</ele>
        <time>2017-06-05T07:26:21.000Z</time>
      </trkpt>
      <trkpt lat="47.29421" lon="4.97406">
        <ele>388.1</ele>
        <time>2017-06-05T07:26:25.000Z</time>
      </trkpt>
      <trkpt lat="47.29406" lon="4.97403">
        <ele>388.1</ele>
        <time>2017-06-05T07:26:29.000Z</time>
      </trkpt>
      <trkpt lat="47.29399" lon="4.9742">
        <ele>389.1</ele>
        <time>2017-06-05T07:26:33.000Z</time>
      </trkpt>
      <trkpt lat="47.29392" lon="4.97433">
        <ele>389.9</ele>
        <time>2017-06-05T07:26:36.000Z</time>
      </trkpt>
      <trkpt lat="47.29383" lon="4.97444">
        <ele>390.3</ele>
        <time>2017-06-05T07:26:39.000Z</time>
      </trkpt>
      <trkpt lat="47.29377" lon="4.97454">
        <ele>390.5</ele>
        <time>2017-06-05T07:26:41.000Z</time>
      </trkpt>
      <trkpt lat="47.29371" lon="4.97464">
        <ele>390.2</ele>
        <time>2017-06-05T07:26:43.000Z</time>
      </trkpt>
      <trkpt lat="47.2936" lon="4.97483">
        <ele>389.3</ele>
        <time>2017-06-05T07:26:47.000Z</time>
      </trkpt>
      <trkpt lat="47.29355" lon="4.97495">
        <ele>388.7</ele>
        <time>2017-06-05T07:26:49.000Z</time>
      </trkpt>
      <trkpt lat="47.29353" lon="4.97509">
        <ele>388.6</ele>
        <time>2017-06-05T07:26:51.000Z</time>
      </trkpt>
      <trkpt lat="47.29349" lon="4.97534">
        <ele>388.1</ele>
        <time>2017-06-05T07:26:54.000Z</time>
      </trkpt>
      <trkpt lat="47.29343" lon="4.97569">
        <ele>387.3</ele>
        <time>2017-06-05T07:26:58.000Z</time>
      </trkpt>
      <trkpt lat="47.2934" lon="4.97585">
        <ele>386.7</ele>
        <time>2017-06-05T07:27:00.000Z</time>
      </trkpt>
      <trkpt lat="47.29341" lon="4.97614">
        <ele>386.4</ele>
        <time>2017-06-05T07:27:03.000Z</time>
      </trkpt>
      <trkpt lat="47.29343" lon="4.97632">
        <ele>386.2</ele>
        <time>2017-06-05T07:27:05.000Z</time>
      </trkpt>
      <trkpt lat="47.2935" lon="4.97647">
        <ele>386.2</ele>
        <time>2017-06-05T07:27:07.000Z</time>
      </trkpt>
      <trkpt lat="47.29353" lon="4.9766">
        <ele>385.6</ele>
        <time>2017-06-05T07:27:09.000Z</time>
      </trkpt>
      <trkpt lat="47.29354" lon="4.97683">
        <ele>385</ele>
        <time>2017-06-05T07:27:12.000Z</time>
      </trkpt>
      <trkpt lat="47.29362" lon="4.97725">
        <ele>384.4</ele>
        <time>2017-06-05T07:27:17.000Z</time>
      </trkpt>
      <trkpt lat="47.29367" lon="4.97741">
        <ele>384.2</ele>
        <time>2017-06-05T07:27:19.000Z</time>
      </trkpt>
      <trkpt lat="47.29369" lon="4.97756">
        <ele>383.8</ele>
        <time>2017-06-05T07:27:21.000Z</time>
      </trkpt>
      <trkpt lat="47.29364" lon="4.9778">
        <ele>382.8</ele>
        <time>2017-06-05T07:27:25.000Z</time>
      </trkpt>
      <trkpt lat="47.29364" lon="4.97801">
        <ele>381.7</ele>
        <time>2017-06-05T07:27:28.000Z</time>
      </trkpt>
      <trkpt lat="47.29372" lon="4.97812">
        <ele>382.5</ele>
        <time>2017-06-05T07:27:31.000Z</time>
      </trkpt>
      <trkpt lat="47.29383" lon="4.97828">
        <ele>383.5</ele>
        <time>2017-06-05T07:27:35.000Z</time>
      </trkpt>
      <trkpt lat="47.29377" lon="4.97846">
        <ele>383.1</ele>
        <time>2017-06-05T07:27:39.000Z</time>
      </trkpt>
      <trkpt lat="47.29369" lon="4.97856">
        <ele>382.7</ele>
        <time>2017-06-05T07:27:41.000Z</time>
      </trkpt>
      <trkpt lat="47.29356" lon="4.97865">
        <ele>382.8</ele>
        <time>2017-06-05T07:27:44.000Z</time>
      </trkpt>
      <trkpt lat="47.29347" lon="4.97868">
        <ele>382.9</ele>
        <time>2017-06-05T07:27:46.000Z</time>
      </trkpt>
      <trkpt lat="47.29337" lon="4.97868">
        <ele>382.7</ele>
        <time>2017-06-05T07:27:48.000Z</time>
      </trkpt>
      <trkpt lat="47.29322" lon="4.97868">
        <ele>382.8</ele>
        <time>2017-06-05T07:27:51.000Z</time>
      </trkpt>
      <trkpt lat="47.29308" lon="4.97866">
        <ele>382.7</ele>
        <time>2017-06-05T07:27:54.000Z</time>
      </trkpt>
      <trkpt lat="47.29287" lon="4.97871">
        <ele>382.1</ele>
        <time>2017-06-05T07:27:58.000Z</time>
      </trkpt>
      <trkpt lat="47.29276" lon="4.97878">
        <ele>382.4</ele>
        <time>2017-06-05T07:28:01.000Z</time>
      </trkpt>
      <trkpt lat="47.29266" lon="4.97885">
        <ele>382.7</ele>
        <time>2017-06-05T07:28:05.000Z</time>
      </trkpt>
      <trkpt lat="47.29258" lon="4.97895">
        <ele>384.1</ele>
        <time>2017-06-05T07:28:08.000Z</time>
      </trkpt>
      <trkpt lat="47.29248" lon="4.97909">
        <ele>385.2</ele>
        <time>2017-06-05T07:28:12.000Z</time>
      </trkpt>
      <trkpt lat="47.29241" lon="4.97931">
        <ele>385.1</ele>
        <time>2017-06-05T07:28:16.000Z</time>
      </trkpt>
      <trkpt lat="47.29243" lon="4.97945">
        <ele>385.1</ele>
        <time>2017-06-05T07:28:18.000Z</time>
      </trkpt>
      <trkpt lat="47.29251" lon="4.97964">
        <ele>386</ele>
        <time>2017-06-05T07:28:21.000Z</time>
      </trkpt>
      <trkpt lat="47.29262" lon="4.97984">
        <ele>388.1</ele>
        <time>2017-06-05T07:28:25.000Z</time>
      </trkpt>
      <trkpt lat="47.29271" lon="4.98006">
        <ele>387.9</ele>
        <time>2017-06-05T07:28:29.000Z</time>
      </trkpt>
      <trkpt lat="47.29276" lon="4.98017">
        <ele>388.1</ele>
        <time>2017-06-05T07:28:31.000Z</time>
      </trkpt>
      <trkpt lat="47.29282" lon="4.98028">
        <ele>388.3</ele>
        <time>2017-06-05T07:28:33.000Z</time>
      </trkpt>
      <trkpt lat="47.29289" lon="4.98047">
        <ele>387.7</ele>
        <time>2017-06-05T07:28:36.000Z</time>
      </trkpt>
      <trkpt lat="47.293" lon="4.9808">
        <ele>385.6</ele>
        <time>2017-06-05T07:28:40.000Z</time>
      </trkpt>
      <trkpt lat="47.29307" lon="4.98094">
        <ele>385.5</ele>
        <time>2017-06-05T07:28:42.000Z</time>
      </trkpt>
      <trkpt lat="47.29318" lon="4.98112">
        <ele>386</ele>
        <time>2017-06-05T07:28:45.000Z</time>
      </trkpt>
      <trkpt lat="47.29327" lon="4.98128">
        <ele>385.8</ele>
        <time>2017-06-05T07:28:48.000Z</time>
      </trkpt>
      <trkpt lat="47.29339" lon="4.98144">
        <ele>386.9</ele>
        <time>2017-06-05T07:28:52.000Z</time>
      </trkpt>
      <trkpt lat="47.29347" lon="4.98154">
        <ele>387</ele>
        <time>2017-06-05T07:28:55.000Z</time>
      </trkpt>
      <trkpt lat="47.29357" lon="4.98164">
        <ele>387.5</ele>
        <time>2017-06-05T07:28:59.000Z</time>
      </trkpt>
      <trkpt lat="47.29365" lon="4.98173">
        <ele>388.3</ele>
        <time>2017-06-05T07:29:03.000Z</time>
      </trkpt>
      <trkpt lat="47.29368" lon="4.98193">
        <ele>388.2</ele>
        <time>2017-06-05T07:29:07.000Z</time>
      </trkpt>
      <trkpt lat="47.29381" lon="4.98212">
        <ele>388.3</ele>
        <time>2017-06-05T07:29:11.000Z</time>
      </trkpt>
      <trkpt lat="47.29394" lon="4.98227">
        <ele>389.3</ele>
        <time>2017-06-05T07:29:15.000Z</time>
      </trkpt>
      <trkpt lat="47.29405" lon="4.98243">
        <ele>389.7</ele>
        <time>2017-06-05T07:29:19.000Z</time>
      </trkpt>
      <trkpt lat="47.29413" lon="4.98256">
        <ele>390.5</ele>
        <time>2017-06-05T07:29:23.000Z</time>
      </trkpt>
      <trkpt lat="47.29406" lon="4.98276">
        <ele>391.3</ele>
        <time>2017-06-05T07:29:27.000Z</time>
      </trkpt>
      <trkpt lat="47.29407" lon="4.98297">
        <ele>393.6</ele>
        <time>2017-06-05T07:29:32.000Z</time>
      </trkpt>
      <trkpt lat="47.29404" lon="4.98312">
        <ele>394.9</ele>
        <time>2017-06-05T07:29:36.000Z</time>
      </trkpt>
      <trkpt lat="47.29394" lon="4.98317">
        <ele>396.8</ele>
        <time>2017-06-05T07:29:43.000Z</time>
      </trkpt>
      <trkpt lat="47.29382" lon="4.98311">
        <ele>397.2</ele>
        <time>2017-06-05T07:29:47.000Z</time>
      </trkpt>
      <trkpt lat="47.29369" lon="4.98306">
        <ele>397.1</ele>
        <time>2017-06-05T07:29:51.000Z</time>
      </trkpt>
      <trkpt lat="47.29353" lon="4.98298">
        <ele>397.5</ele>
        <time>2017-06-05T07:29:55.000Z</time>
      </trkpt>
      <trkpt lat="47.29339" lon="4.9829">
        <ele>397</ele>
        <time>2017-06-05T07:29:59.000Z</time>
      </trkpt>
      <trkpt lat="47.29326" lon="4.98282">
        <ele>396.5</ele>
        <time>2017-06-05T07:30:02.000Z</time>
      </trkpt>
      <trkpt lat="47.2931" lon="4.98273">
        <ele>396.5</ele>
        <time>2017-06-05T07:30:05.000Z</time>
      </trkpt>
      <trkpt lat="47.29274" lon="4.98258">
        <ele>394.1</ele>
        <time>2017-06-05T07:30:11.000Z</time>
      </trkpt>
      <trkpt lat="47.29263" lon="4.98254">
        <ele>393.1</ele>
        <time>2017-06-05T07:30:13.000Z</time>
      </trkpt>
      <trkpt lat="47.29252" lon="4.98253">
        <ele>392.2</ele>
        <time>2017-06-05T07:30:15.000Z</time>
      </trkpt>
      <trkpt lat="47.29242" lon="4.98252">
        <ele>391.2</ele>
        <time>2017-06-05T07:30:17.000Z</time>
      </trkpt>
      <trkpt lat="47.29232" lon="4.98252">
        <ele>390.3</ele>
        <time>2017-06-05T07:30:19.000Z</time>
      </trkpt>
      <trkpt lat="47.29222" lon="4.98254">
        <ele>389.3</ele>
        <time>2017-06-05T07:30:21.000Z</time>
      </trkpt>
      <trkpt lat="47.29209" lon="4.98261">
        <ele>387.9</ele>
        <time>2017-06-05T07:30:25.000Z</time>
      </trkpt>
      <trkpt lat="47.29195" lon="4.98268">
        <ele>387.3</ele>
        <time>2017-06-05T07:30:29.000Z</time>
      </trkpt>
      <trkpt lat="47.29184" lon="4.98267">
        <ele>387.2</ele>
        <time>2017-06-05T07:30:33.000Z</time>
      </trkpt>
      <trkpt lat="47.29171" lon="4.98263">
        <ele>387.6</ele>
        <time>2017-06-05T07:30:37.000Z</time>
      </trkpt>
      <trkpt lat="47.29161" lon="4.98261">
        <ele>387.5</ele>
        <time>2017-06-05T07:30:39.000Z</time>
      </trkpt>
      <trkpt lat="47.2915" lon="4.98261">
        <ele>387.5</ele>
        <time>2017-06-05T07:30:41.000Z</time>
      </trkpt>
      <trkpt lat="47.29133" lon="4.98262">
        <ele>388.1</ele>
        <time>2017-06-05T07:30:45.000Z</time>
      </trkpt>
      <trkpt lat="47.29123" lon="4.98258">
        <ele>388.4</ele>
        <time>2017-06-05T07:30:47.000Z</time>
      </trkpt>
      <trkpt lat="47.29113" lon="4.98252">
        <ele>388.4</ele>
        <time>2017-06-05T07:30:49.000Z</time>
      </trkpt>
      <trkpt lat="47.29103" lon="4.98248">
        <ele>388.6</ele>
        <time>2017-06-05T07:30:51.000Z</time>
      </trkpt>
      <trkpt lat="47.29094" lon="4.98244">
        <ele>388.7</ele>
        <time>2017-06-05T07:30:53.000Z</time>
      </trkpt>
      <trkpt lat="47.29077" lon="4.98237">
        <ele>388.9</ele>
        <time>2017-06-05T07:30:57.000Z</time>
      </trkpt>
      <trkpt lat="47.29067" lon="4.98229">
        <ele>389.2</ele>
        <time>2017-06-05T07:31:01.000Z</time>
      </trkpt>
      <trkpt lat="47.2906" lon="4.98218">
        <ele>389.5</ele>
        <time>2017-06-05T07:31:04.000Z</time>
      </trkpt>
      <trkpt lat="47.2905" lon="4.9821">
        <ele>390.1</ele>
        <time>2017-06-05T07:31:07.000Z</time>
      </trkpt>
      <trkpt lat="47.29034" lon="4.98201">
        <ele>391.2</ele>
        <time>2017-06-05T07:31:11.000Z</time>
      </trkpt>
      <trkpt lat="47.29018" lon="4.98191">
        <ele>392.5</ele>
        <time>2017-06-05T07:31:16.000Z</time>
      </trkpt>
      <trkpt lat="47.29008" lon="4.98195">
        <ele>393.8</ele>
        <time>2017-06-05T07:31:21.000Z</time>
      </trkpt>
      <trkpt lat="47.28999" lon="4.9821">
        <ele>395.9</ele>
        <time>2017-06-05T07:31:29.000Z</time>
      </trkpt>
      <trkpt lat="47.28992" lon="4.98229">
        <ele>397.1</ele>
        <time>2017-06-05T07:31:33.000Z</time>
      </trkpt>
      <trkpt lat="47.28984" lon="4.98244">
        <ele>397.1</ele>
        <time>2017-06-05T07:31:36.000Z</time>
      </trkpt>
      <trkpt lat="47.28975" lon="4.98262">
        <ele>397.4</ele>
        <time>2017-06-05T07:31:39.000Z</time>
      </trkpt>
      <trkpt lat="47.28965" lon="4.98279">
        <ele>396.7</ele>
        <time>2017-06-05T07:31:42.000Z</time>
      </trkpt>
      <trkpt lat="47.28955" lon="4.98295">
        <ele>395.5</ele>
        <time>2017-06-05T07:31:45.000Z</time>
      </trkpt>
      <trkpt lat="47.2894" lon="4.98315">
        <ele>393.3</ele>
        <time>2017-06-05T07:31:50.000Z</time>
      </trkpt>
      <trkpt lat="47.28938" lon="4.98335">
        <ele>392.1</ele>
        <time>2017-06-05T07:31:54.000Z</time>
      </trkpt>
      <trkpt lat="47.28925" lon="4.98357">
        <ele>389.8</ele>
        <time>2017-06-05T07:31:58.000Z</time>
      </trkpt>
      <trkpt lat="47.2892" lon="4.98371">
        <ele>387.6</ele>
        <time>2017-06-05T07:32:00.000Z</time>
      </trkpt>
      <trkpt lat="47.28906" lon="4.98387">
        <ele>384.1</ele>
        <time>2017-06-05T07:32:03.000Z</time>
      </trkpt>
      <trkpt lat="47.28899" lon="4.98401">
        <ele>382.1</ele>
        <time>2017-06-05T07:32:05.000Z</time>
      </trkpt>
      <trkpt lat="47.28893" lon="4.98416">
        <ele>380.2</ele>
        <time>2017-06-05T07:32:07.000Z</time>
      </trkpt>
      <trkpt lat="47.28883" lon="4.98425">
        <ele>378.8</ele>
        <time>2017-06-05T07:32:09.000Z</time>
      </trkpt>
      <trkpt lat="47.28877" lon="4.98436">
        <ele>377.8</ele>
        <time>2017-06-05T07:32:11.000Z</time>
      </trkpt>
      <trkpt lat="47.28876" lon="4.98449">
        <ele>376.6</ele>
        <time>2017-06-05T07:32:13.000Z</time>
      </trkpt>
      <trkpt lat="47.28869" lon="4.98469">
        <ele>373.9</ele>
        <time>2017-06-05T07:32:17.000Z</time>
      </trkpt>
      <trkpt lat="47.28855" lon="4.98487">
        <ele>371.7</ele>
        <time>2017-06-05T07:32:21.000Z</time>
      </trkpt>
      <trkpt lat="47.28848" lon="4.98496">
        <ele>370.7</ele>
        <time>2017-06-05T07:32:23.000Z</time>
      </trkpt>
      <trkpt lat="47.28841" lon="4.98505">
        <ele>370.4</ele>
        <time>2017-06-05T07:32:25.000Z</time>
      </trkpt>
      <trkpt lat="47.28831" lon="4.98528">
        <ele>369.4</ele>
        <time>2017-06-05T07:32:29.000Z</time>
      </trkpt>
      <trkpt lat="47.28825" lon="4.98548">
        <ele>367.6</ele>
        <time>2017-06-05T07:32:32.000Z</time>
      </trkpt>
      <trkpt lat="47.28817" lon="4.9856">
        <ele>366.2</ele>
        <time>2017-06-05T07:32:34.000Z</time>
      </trkpt>
      <trkpt lat="47.28808" lon="4.98572">
        <ele>365</ele>
        <time>2017-06-05T07:32:36.000Z</time>
      </trkpt>
      <trkpt lat="47.28791" lon="4.9859">
        <ele>362.9</ele>
        <time>2017-06-05T07:32:39.000Z</time>
      </trkpt>
      <trkpt lat="47.28781" lon="4.98605">
        <ele>361.2</ele>
        <time>2017-06-05T07:32:41.000Z</time>
      </trkpt>
      <trkpt lat="47.2877" lon="4.98619">
        <ele>359.5</ele>
        <time>2017-06-05T07:32:43.000Z</time>
      </trkpt>
      <trkpt lat="47.28758" lon="4.98629">
        <ele>357.7</ele>
        <time>2017-06-05T07:32:45.000Z</time>
      </trkpt>
      <trkpt lat="47.28748" lon="4.98636">
        <ele>356.1</ele>
        <time>2017-06-05T07:32:47.000Z</time>
      </trkpt>
      <trkpt lat="47.28737" lon="4.9864">
        <ele>354.7</ele>
        <time>2017-06-05T07:32:49.000Z</time>
      </trkpt>
      <trkpt lat="47.2872" lon="4.98645">
        <ele>352.7</ele>
        <time>2017-06-05T07:32:52.000Z</time>
      </trkpt>
      <trkpt lat="47.28707" lon="4.98652">
        <ele>351.4</ele>
        <time>2017-06-05T07:32:54.000Z</time>
      </trkpt>
      <trkpt lat="47.28686" lon="4.98662">
        <ele>349.3</ele>
        <time>2017-06-05T07:32:57.000Z</time>
      </trkpt>
      <trkpt lat="47.28672" lon="4.98668">
        <ele>347.9</ele>
        <time>2017-06-05T07:32:59.000Z</time>
      </trkpt>
      <trkpt lat="47.28659" lon="4.98673">
        <ele>346</ele>
        <time>2017-06-05T07:33:01.000Z</time>
      </trkpt>
      <trkpt lat="47.28645" lon="4.98677">
        <ele>344.1</ele>
        <time>2017-06-05T07:33:03.000Z</time>
      </trkpt>
      <trkpt lat="47.28622" lon="4.98678">
        <ele>341.8</ele>
        <time>2017-06-05T07:33:06.000Z</time>
      </trkpt>
      <trkpt lat="47.28607" lon="4.98676">
        <ele>340.2</ele>
        <time>2017-06-05T07:33:08.000Z</time>
      </trkpt>
      <trkpt lat="47.28593" lon="4.98671">
        <ele>338.6</ele>
        <time>2017-06-05T07:33:10.000Z</time>
      </trkpt>
      <trkpt lat="47.2858" lon="4.98664">
        <ele>337</ele>
        <time>2017-06-05T07:33:12.000Z</time>
      </trkpt>
      <trkpt lat="47.28552" lon="4.98653">
        <ele>333.5</ele>
        <time>2017-06-05T07:33:16.000Z</time>
      </trkpt>
      <trkpt lat="47.28539" lon="4.98645">
        <ele>331.9</ele>
        <time>2017-06-05T07:33:18.000Z</time>
      </trkpt>
      <trkpt lat="47.28517" lon="4.98635">
        <ele>329.7</ele>
        <time>2017-06-05T07:33:21.000Z</time>
      </trkpt>
      <trkpt lat="47.285" lon="4.9863">
        <ele>328.2</ele>
        <time>2017-06-05T07:33:23.000Z</time>
      </trkpt>
      <trkpt lat="47.28479" lon="4.98625">
        <ele>326.7</ele>
        <time>2017-06-05T07:33:25.000Z</time>
      </trkpt>
      <trkpt lat="47.28458" lon="4.98624">
        <ele>324.9</ele>
        <time>2017-06-05T07:33:27.000Z</time>
      </trkpt>
      <trkpt lat="47.28436" lon="4.98635">
        <ele>323</ele>
        <time>2017-06-05T07:33:29.000Z</time>
      </trkpt>
      <trkpt lat="47.28413" lon="4.98647">
        <ele>320.9</ele>
        <time>2017-06-05T07:33:31.000Z</time>
      </trkpt>
      <trkpt lat="47.28386" lon="4.98653">
        <ele>318.9</ele>
        <time>2017-06-05T07:33:33.000Z</time>
      </trkpt>
      <trkpt lat="47.28358" lon="4.98655">
        <ele>317.2</ele>
        <time>2017-06-05T07:33:35.000Z</time>
      </trkpt>
      <trkpt lat="47.28329" lon="4.98658">
        <ele>314.8</ele>
        <time>2017-06-05T07:33:37.000Z</time>
      </trkpt>
      <trkpt lat="47.28314" lon="4.9866">
        <ele>313.6</ele>
        <time>2017-06-05T07:33:38.000Z</time>
      </trkpt>
      <trkpt lat="47.28284" lon="4.98663">
        <ele>311.1</ele>
        <time>2017-06-05T07:33:40.000Z</time>
      </trkpt>
      <trkpt lat="47.28255" lon="4.98667">
        <ele>307.8</ele>
        <time>2017-06-05T07:33:42.000Z</time>
      </trkpt>
      <trkpt lat="47.28241" lon="4.98668">
        <ele>305.8</ele>
        <time>2017-06-05T07:33:43.000Z</time>
      </trkpt>
      <trkpt lat="47.282" lon="4.98652">
        <ele>301.1</ele>
        <time>2017-06-05T07:33:46.000Z</time>
      </trkpt>
      <trkpt lat="47.28177" lon="4.98634">
        <ele>298.5</ele>
        <time>2017-06-05T07:33:48.000Z</time>
      </trkpt>
      <trkpt lat="47.28156" lon="4.98619">
        <ele>296.4</ele>
        <time>2017-06-05T07:33:50.000Z</time>
      </trkpt>
      <trkpt lat="47.28138" lon="4.98613">
        <ele>294.1</ele>
        <time>2017-06-05T07:33:52.000Z</time>
      </trkpt>
      <trkpt lat="47.28128" lon="4.98615">
        <ele>292.8</ele>
        <time>2017-06-05T07:33:53.000Z</time>
      </trkpt>
      <trkpt lat="47.28114" lon="4.98628">
        <ele>290.5</ele>
        <time>2017-06-05T07:33:55.000Z</time>
      </trkpt>
      <trkpt lat="47.28102" lon="4.98646">
        <ele>288.8</ele>
        <time>2017-06-05T07:33:57.000Z</time>
      </trkpt>
      <trkpt lat="47.28093" lon="4.98664">
        <ele>289.4</ele>
        <time>2017-06-05T07:33:59.000Z</time>
      </trkpt>
      <trkpt lat="47.28083" lon="4.98682">
        <ele>288.7</ele>
        <time>2017-06-05T07:34:01.000Z</time>
      </trkpt>
      <trkpt lat="47.28074" lon="4.987">
        <ele>288.2</ele>
        <time>2017-06-05T07:34:03.000Z</time>
      </trkpt>
      <trkpt lat="47.28064" lon="4.98719">
        <ele>287.6</ele>
        <time>2017-06-05T07:34:05.000Z</time>
      </trkpt>
      <trkpt lat="47.28053" lon="4.98736">
        <ele>287.1</ele>
        <time>2017-06-05T07:34:07.000Z</time>
      </trkpt>
      <trkpt lat="47.28042" lon="4.98754">
        <ele>286.6</ele>
        <time>2017-06-05T07:34:09.000Z</time>
      </trkpt>
      <trkpt lat="47.2803" lon="4.9877">
        <ele>286.1</ele>
        <time>2017-06-05T07:34:11.000Z</time>
      </trkpt>
      <trkpt lat="47.28018" lon="4.98787">
        <ele>285.7</ele>
        <time>2017-06-05T07:34:13.000Z</time>
      </trkpt>
      <trkpt lat="47.28005" lon="4.98803">
        <ele>285.3</ele>
        <time>2017-06-05T07:34:15.000Z</time>
      </trkpt>
      <trkpt lat="47.27992" lon="4.98818">
        <ele>284.8</ele>
        <time>2017-06-05T07:34:17.000Z</time>
      </trkpt>
      <trkpt lat="47.27978" lon="4.98833">
        <ele>284.2</ele>
        <time>2017-06-05T07:34:19.000Z</time>
      </trkpt>
      <trkpt lat="47.27958" lon="4.98859">
        <ele>283.3</ele>
        <time>2017-06-05T07:34:22.000Z</time>
      </trkpt>
      <trkpt lat="47.27944" lon="4.98879">
        <ele>282.7</ele>
        <time>2017-06-05T07:34:24.000Z</time>
      </trkpt>
      <trkpt lat="47.27938" lon="4.98891">
        <ele>282.4</ele>
        <time>2017-06-05T07:34:25.000Z</time>
      </trkpt>
      <trkpt lat="47.27929" lon="4.98917">
        <ele>281.9</ele>
        <time>2017-06-05T07:34:27.000Z</time>
      </trkpt>
      <trkpt lat="47.27923" lon="4.98945">
        <ele>281.4</ele>
        <time>2017-06-05T07:34:29.000Z</time>
      </trkpt>
      <trkpt lat="47.27919" lon="4.98971">
        <ele>280.9</ele>
        <time>2017-06-05T07:34:31.000Z</time>
      </trkpt>
      <trkpt lat="47.27918" lon="4.98994">
        <ele>280.5</ele>
        <time>2017-06-05T07:34:33.000Z</time>
      </trkpt>
      <trkpt lat="47.27922" lon="4.99017">
        <ele>280.2</ele>
        <time>2017-06-05T07:34:35.000Z</time>
      </trkpt>
      <trkpt lat="47.27927" lon="4.9904">
        <ele>280</ele>
        <time>2017-06-05T07:34:37.000Z</time>
      </trkpt>
      <trkpt lat="47.27934" lon="4.99063">
        <ele>280</ele>
        <time>2017-06-05T07:34:39.000Z</time>
      </trkpt>
      <trkpt lat="47.27945" lon="4.99096">
        <ele>280</ele>
        <time>2017-06-05T07:34:42.000Z</time>
      </trkpt>
      <trkpt lat="47.27953" lon="4.99129">
        <ele>280</ele>
        <time>2017-06-05T07:34:45.000Z</time>
      </trkpt>
      <trkpt lat="47.2795" lon="4.9915">
        <ele>279.9</ele>
        <time>2017-06-05T07:34:47.000Z</time>
      </trkpt>
      <trkpt lat="47.27944" lon="4.99169">
        <ele>279.9</ele>
        <time>2017-06-05T07:34:49.000Z</time>
      </trkpt>
      <trkpt lat="47.27937" lon="4.99189">
        <ele>279.8</ele>
        <time>2017-06-05T07:34:51.000Z</time>
      </trkpt>
      <trkpt lat="47.27931" lon="4.99209">
        <ele>279.4</ele>
        <time>2017-06-05T07:34:53.000Z</time>
      </trkpt>
      <trkpt lat="47.27924" lon="4.99229">
        <ele>279.1</ele>
        <time>2017-06-05T07:34:55.000Z</time>
      </trkpt>
      <trkpt lat="47.27915" lon="4.9926">
        <ele>278.4</ele>
        <time>2017-06-05T07:34:58.000Z</time>
      </trkpt>
      <trkpt lat="47.27904" lon="4.99289">
        <ele>277.3</ele>
        <time>2017-06-05T07:35:01.000Z</time>
      </trkpt>
      <trkpt lat="47.27898" lon="4.99308">
        <ele>276.6</ele>
        <time>2017-06-05T07:35:03.000Z</time>
      </trkpt>
      <trkpt lat="47.27892" lon="4.99326">
        <ele>276</ele>
        <time>2017-06-05T07:35:05.000Z</time>
      </trkpt>
      <trkpt lat="47.27886" lon="4.99345">
        <ele>275.5</ele>
        <time>2017-06-05T07:35:07.000Z</time>
      </trkpt>
      <trkpt lat="47.27881" lon="4.99363">
        <ele>275</ele>
        <time>2017-06-05T07:35:09.000Z</time>
      </trkpt>
      <trkpt lat="47.27869" lon="4.99398">
        <ele>274.3</ele>
        <time>2017-06-05T07:35:13.000Z</time>
      </trkpt>
      <trkpt lat="47.27859" lon="4.99417">
        <ele>274.6</ele>
        <time>2017-06-05T07:35:16.000Z</time>
      </trkpt>
      <trkpt lat="47.2785" lon="4.99428">
        <ele>274.1</ele>
        <time>2017-06-05T07:35:19.000Z</time>
      </trkpt>
    </trkseg>
  </trk>
</gpx>